[[{"header":{"parameterUnit":"m.s-1","parameterCategory":1,"la1":30.6,"la2":28.766,"lo1":-90.7593,"lo2":-88.6598,"dy":0.0162,"dx":0.0183,"nx":116,"ny":114,"refTime":"2023-07-31T12:00:00:Z","depth":0,"parameterNumber":2,"parameterNumberName":"U-component_of_WINDS"},"data":[0.0,0.0,0.0,0.0,0.0,0.0,0.0,0.0,0.0,0.0,0.0,0.0,0.0,0.0,0.0,0.0,0.0,0.0,0.0,0.0,0.0,0.0,0.0,0.0,0.0,0.0,0.0,0.0,0.0,0.0,0.0,0.0,0.0,0.0,0.0,0.0,0.0,0.0,0.0,0.0,0.0,0.0,0.0,0.0,0.0,0.0,0.0,0.0,0.0,0.0,0.0,0.0,0.0,0.0,0.0,0.0,0.0,0.0,0.0,0.0,0.0,0.0,0.0,0.0,0.0,0.0,0.0,0.0,0.0,0.0,0.0,0.0,0.0,0.0,0.0,0.0,0.0,0.0,0.0,0.0,0.0,0.0,0.0,0.0,0.0,0.0,0.0,0.0,0.0,0.0,0.0,0.0,0.0,0.0,0.0,0.0,0.0,0.0,0.0,0.0,0.0,0.0,0.0,0.0,0.0,0.0,0.0,0.0,0.0,0.0,0.0,0.0,0.0,0.0,0.0,0.0,0.0,0.0,0.0,0.0,0.0,0.0,0.0,0.0,0.0,0.0,0.0,0.0,0.0,0.0,0.0,0.0,0.0,0.0,0.0,0.0,0.0,0.0,0.0,0.0,0.0,0.0,0.0,0.0,0.0,0.0,0.0,0.0,0.0,0.0,0.0,0.0,0.0,0.0,0.0,0.0,0.0,0.0,0.0,0.0,0.0,0.0,0.0,0.0,0.0,0.0,0.0,0.0,0.0,0.0,0.0,0.0,0.0,0.0,0.0,0.0,0.0,0.0,0.0,0.0,0.0,0.0,0.0,0.0,0.0,0.0,0.0,0.0,0.0,0.0,0.0,0.0,0.0,0.0,0.0,0.0,0.0,0.0,0.0,0.0,0.0,0.0,0.0,0.0,0.0,0.0,0.0,0.0,0.0,0.0,0.0,0.0,0.0,0.0,0.0,0.0,0.0,0.0,0.0,0.0,0.0,0.0,0.0,0.0,0.0,0.0,0.0,0.0,0.0,0.0,0.0,0.0,0.0,0.0,0.0,0.0,0.0,0.0,0.0,0.0,0.0,0.0,0.0,0.0,0.0,0.0,0.0,0.0,0.0,0.0,0.0,0.0,0.0,0.0,0.0,0.0,0.0,0.0,0.0,0.0,0.0,0.0,0.0,0.0,0.0,0.0,0.0,0.0,0.0,0.0,0.0,0.0,0.0,0.0,0.0,0.0,0.0,0.0,0.0,0.0,0.0,0.0,0.0,0.0,0.0,0.0,0.0,0.0,0.0,0.0,0.0,0.0,0.0,0.0,0.0,0.0,0.0,0.0,0.0,0.0,0.0,0.0,0.0,0.0,0.0,0.0,0.0,0.0,0.0,0.0,0.0,0.0,0.0,0.0,0.0,0.0,0.0,0.0,0.0,0.0,0.0,0.0,0.0,0.0,0.0,0.0,0.0,0.0,0.0,0.0,0.0,0.0,0.0,0.0,0.0,0.0,0.0,0.0,0.0,0.0,0.0,0.0,0.0,0.0,0.0,0.0,0.0,0.0,0.0,0.0,0.0,0.0,0.0,0.0,0.0,0.0,0.0,0.0,0.0,0.0,0.0,0.0,0.0,0.0,0.0,0.0,0.0,0.0,0.0,0.0,0.0,0.0,0.0,0.0,0.0,0.0,0.0,0.0,0.0,0.0,0.0,0.0,0.0,0.0,0.0,0.0,0.0,0.0,0.0,0.0,0.0,0.0,0.0,0.0,0.0,0.0,0.0,0.0,0.0,0.0,0.0,0.0,0.0,0.0,0.0,0.0,0.0,0.0,0.0,0.0,0.0,0.0,0.0,0.0,0.0,0.0,0.0,0.0,0.0,0.0,0.0,0.0,0.0,0.0,0.0,0.0,0.0,0.0,0.0,0.0,0.0,0.0,0.0,0.0,0.0,0.0,0.0,0.0,0.0,0.0,0.0,0.0,0.0,0.0,0.0,0.0,0.0,0.0,0.0,0.0,0.0,0.0,0.0,0.0,0.0,0.0,0.0,0.0,0.0,0.0,0.0,0.0,0.0,0.0,0.0,0.0,0.0,0.0,0.0,0.0,0.0,0.0,0.0,0.0,0.0,0.0,0.0,0.0,0.0,0.0,0.0,0.0,0.0,0.0,0.0,0.0,0.0,0.0,0.0,0.0,0.0,0.0,0.0,0.0,0.0,0.0,0.0,0.0,0.0,0.0,0.0,0.0,0.0,0.0,0.0,0.0,0.0,0.0,0.0,0.0,0.0,0.0,0.0,0.0,0.0,0.0,0.0,0.0,0.0,0.0,0.0,0.0,0.0,0.0,0.0,0.0,0.0,0.0,0.0,0.0,0.0,0.0,0.0,0.0,0.0,0.0,0.0,0.0,0.0,0.0,0.0,0.0,0.0,0.0,0.0,0.0,0.0,0.0,0.0,0.0,0.0,0.0,0.0,0.0,0.0,0.0,0.0,0.0,0.0,0.0,0.0,0.0,0.0,0.0,0.0,0.0,0.0,0.0,0.0,0.0,0.0,0.0,0.0,0.0,0.0,0.0,0.0,0.0,0.0,0.0,0.0,0.0,0.0,0.0,0.0,0.0,0.0,0.0,0.0,0.0,0.0,0.0,0.0,0.0,0.0,0.0,0.0,0.0,0.0,0.0,0.0,0.0,0.0,0.0,0.0,0.0,0.0,0.0,0.0,0.0,0.0,0.0,0.0,0.0,0.0,0.0,0.0,0.0,0.0,0.0,0.0,0.0,0.0,0.0,0.0,0.0,0.0,0.0,0.0,0.0,0.0,0.0,0.0,0.0,0.0,0.0,0.0,0.0,0.0,0.0,0.0,0.0,0.0,0.0,0.0,0.0,0.0,0.0,0.0,0.0,0.0,0.0,0.0,0.0,0.0,0.0,0.0,0.0,0.0,0.0,0.0,0.0,0.0,0.0,0.0,0.0,0.0,0.0,0.0,0.0,0.0,0.0,0.0,0.0,0.0,0.0,0.0,0.0,0.0,0.0,0.0,0.0,0.0,0.0,0.0,0.0,0.0,0.0,0.0,0.0,0.0,0.0,0.0,0.0,0.0,0.0,0.0,0.0,0.0,0.0,0.0,0.0,0.0,0.0,0.0,0.0,0.0,0.0,0.0,0.0,0.0,0.0,0.0,0.0,0.0,0.0,0.0,0.0,0.0,0.0,0.0,0.0,0.0,0.0,0.0,0.0,0.0,0.0,0.0,0.0,0.0,0.0,0.0,0.0,0.0,0.0,0.0,0.0,0.0,0.0,0.0,0.0,0.0,0.0,0.0,0.0,0.0,0.0,0.0,0.0,0.0,0.0,0.0,0.0,0.0,0.0,0.0,0.0,0.0,0.0,0.0,0.0,0.0,0.0,0.0,0.0,0.0,0.0,0.0,0.0,0.0,0.0,0.0,0.0,0.0,0.0,0.0,0.0,0.0,0.0,0.0,0.0,0.0,0.0,0.0,0.0,0.0,0.0,0.0,0.0,0.0,0.0,0.0,0.0,0.0,0.0,0.0,0.0,0.0,0.0,0.0,0.0,0.0,0.0,0.0,0.0,0.0,0.0,0.0,0.0,0.0,0.0,0.0,0.0,0.0,0.0,0.0,0.0,0.0,0.0,0.0,0.0,0.0,0.0,0.0,0.0,0.0,0.0,0.0,0.0,0.0,0.0,0.0,0.0,0.0,0.0,0.0,0.0,0.0,0.0,0.0,0.0,0.0,0.0,0.0,0.0,0.0,0.0,0.0,0.0,0.0,0.0,0.0,0.0,0.0,0.0,0.0,0.0,0.0,0.0,0.0,0.0,0.0,0.0,0.0,0.0,0.0,0.0,0.0,0.0,0.0,0.0,0.0,0.0,0.0,0.0,0.0,0.0,0.0,0.0,0.0,0.0,0.0,0.0,0.0,0.0,0.0,0.0,0.0,0.0,0.0,0.0,0.0,0.0,0.0,0.0,0.0,0.0,0.0,0.0,0.0,0.0,0.0,0.0,0.0,0.0,0.0,0.0,0.0,0.0,0.0,0.0,0.0,0.0,0.0,0.0,0.0,0.0,0.0,0.0,0.0,0.0,0.0,0.0,0.0,0.0,0.0,0.0,0.0,0.0,0.0,0.0,0.0,0.0,0.0,0.0,0.0,0.0,0.0,0.0,0.0,0.0,0.0,0.0,0.0,0.0,0.0,0.0,0.0,0.0,0.0,0.0,0.0,0.0,0.0,0.0,0.0,0.0,0.0,0.0,0.0,0.0,0.0,0.0,0.0,0.0,0.0,0.0,0.0,0.0,0.0,0.0,0.0,0.0,0.0,0.0,0.0,0.0,0.0,0.0,0.0,0.0,0.0,0.0,0.0,0.0,0.0,0.0,0.0,0.0,0.0,0.0,0.0,0.0,0.0,0.0,0.0,0.0,0.0,0.0,0.0,0.0,0.0,0.0,0.0,0.0,0.0,0.0,0.0,0.0,0.0,0.0,0.0,0.0,0.0,0.0,0.0,0.0,0.0,0.0,0.0,0.0,0.0,0.0,0.0,0.0,0.0,0.0,0.0,0.0,0.0,0.0,0.0,0.0,0.0,0.0,0.0,0.0,0.0,0.0,0.0,0.0,0.0,0.0,0.0,0.0,0.0,0.0,0.0,0.0,0.0,0.0,0.0,0.0,0.0,0.0,0.0,0.0,0.0,0.0,0.0,0.0,0.0,0.0,0.0,0.0,0.0,0.0,0.0,0.0,0.0,0.0,0.0,0.0,0.0,0.0,0.0,0.0,0.0,0.0,0.0,0.0,0.0,0.0,0.0,0.0,0.0,0.0,0.0,0.0,0.0,0.0,0.0,0.0,0.0,0.0,0.0,0.0,0.0,0.0,0.0,0.0,0.0,0.0,0.0,0.0,0.0,0.0,0.0,0.0,0.0,0.0,0.0,0.0,0.0,0.0,0.0,0.0,0.0,0.0,0.0,0.0,0.0,0.0,0.0,0.0,0.0,0.0,0.0,0.0,0.0,0.0,0.0,0.0,0.0,0.0,0.0,0.0,0.0,0.0,0.0,0.0,0.0,0.0,0.0,0.0,0.0,0.0,0.0,0.0,0.0,0.0,0.0,0.0,0.0,0.0,0.0,0.0,0.0,0.0,0.0,0.0,0.0,0.0,0.0,0.0,0.0,0.0,0.0,0.0,0.0,0.0,0.0,0.0,0.0,0.0,0.0,0.0,0.0,0.0,0.0,0.0,0.0,0.0,0.0,0.0,0.0,0.0,0.0,0.0,0.0,0.0,0.0,0.0,0.0,0.0,0.0,0.0,0.0,0.0,0.0,0.0,0.0,0.0,0.0,0.0,0.0,0.0,0.0,0.0,0.0,0.0,0.0,0.0,0.0,0.0,0.0,0.0,0.0,0.0,0.0,0.0,0.0,0.0,0.0,0.0,0.0,0.0,0.0,0.0,0.0,0.0,0.0,0.0,0.0,0.0,0.0,0.0,0.0,0.0,0.0,0.0,0.0,0.0,0.0,0.0,0.0,0.0,0.0,0.0,0.0,0.0,0.0,0.0,0.0,0.0,0.0,0.0,0.0,0.0,0.0,0.0,0.0,0.0,0.0,0.0,0.0,0.0,0.0,0.0,0.0,0.0,0.0,0.0,0.0,0.0,0.0,0.0,0.0,0.0,0.0,0.0,0.0,0.0,0.0,0.0,0.0,0.0,0.0,0.0,0.0,0.0,0.0,0.0,0.0,0.0,0.0,0.0,0.0,0.0,0.0,0.0,0.0,0.0,0.0,0.0,0.0,0.0,0.0,0.0,0.0,0.0,0.0,0.0,0.0,0.0,0.0,0.0,0.0,0.0,0.0,0.0,0.0,0.0,0.0,0.0,0.0,0.0,0.0,0.0,0.0,0.0,0.0,0.0,0.0,0.0,0.0,0.0,0.0,0.0,0.0,0.0,0.0,0.0,0.0,0.0,0.0,0.0,0.0,0.0,0.0,0.0,0.0,0.0,0.0,0.0,0.0,0.0,0.0,0.0,0.0,0.0,0.0,0.0,0.0,0.0,0.0,0.0,0.0,0.0,0.0,0.0,0.0,0.0,0.0,0.0,0.0,0.0,0.0,0.0,-1.2869,0.0,0.0,0.0,0.0,0.0,0.0,0.0,0.0,0.0,0.0,0.0,0.0,0.0,0.0,0.0,0.0,0.0,0.0,0.0,0.0,0.0,0.0,0.0,0.0,0.0,0.0,0.0,0.0,0.0,0.0,0.0,0.0,0.0,0.0,0.0,0.0,0.0,0.0,0.0,0.0,0.0,0.0,0.0,0.0,0.0,0.0,0.0,0.0,0.0,0.0,0.0,0.0,0.0,0.0,0.0,0.0,0.0,0.0,0.0,0.0,0.0,0.0,0.0,0.0,0.0,0.0,0.0,0.0,0.0,0.0,0.0,0.0,0.0,0.0,0.0,0.0,0.0,0.0,0.0,0.0,0.0,0.0,0.0,0.0,0.0,0.0,0.0,0.0,0.0,0.0,0.0,0.0,0.0,0.0,0.0,0.0,0.0,0.0,0.0,0.0,0.0,0.0,0.0,0.0,0.0,0.0,0.0,0.0,0.0,0.0,0.0,0.0,0.0,0.0,0.0,0.0,-1.4386,0.0,0.0,0.0,0.0,0.0,0.0,0.0,0.0,0.0,0.0,0.0,0.0,0.0,0.0,0.0,0.0,0.0,0.0,0.0,0.0,0.0,0.0,0.0,0.0,0.0,0.0,0.0,0.0,0.0,0.0,0.0,0.0,0.0,0.0,0.0,0.0,0.0,0.0,0.0,0.0,0.0,0.0,0.0,0.0,0.0,0.0,0.0,0.0,0.0,0.0,0.0,0.0,0.0,0.0,0.0,0.0,0.0,0.0,0.0,0.0,0.0,0.0,0.0,0.0,0.0,0.0,0.0,0.0,0.0,0.0,0.0,0.0,0.0,0.0,0.0,0.0,0.0,0.0,0.0,0.0,0.0,0.0,0.0,0.0,0.0,0.0,0.0,0.0,0.0,0.0,0.0,0.0,0.0,0.0,0.0,0.0,0.0,0.0,0.0,0.0,0.0,0.0,0.0,0.0,0.0,0.0,0.0,0.0,-1.9699,-2.0116,-2.0105,-2.05,-2.0546,-2.0246,-1.8311,-1.7131,-1.6548,-1.6492,0.0,0.0,0.0,0.0,0.0,0.0,0.0,0.0,0.0,0.0,0.0,0.0,0.0,0.0,0.0,0.0,0.0,0.0,0.0,0.0,0.0,0.0,0.0,0.0,0.0,0.0,0.0,0.0,0.0,0.0,0.0,0.0,0.0,0.0,0.0,0.0,0.0,0.0,-2.628,-2.678,-2.7511,-2.8281,-2.564,0.0,0.0,0.0,0.0,0.0,0.0,0.0,0.0,0.0,0.0,0.0,0.0,0.0,0.0,0.0,0.0,0.0,0.0,0.0,0.0,0.0,0.0,0.0,0.0,0.0,0.0,0.0,0.0,0.0,0.0,0.0,0.0,0.0,0.0,0.0,0.0,0.0,0.0,0.0,0.0,0.0,0.0,0.0,-1.0846,-1.2798,0.0,0.0,0.0,0.0,0.0,0.0,0.0,0.0,0.0,0.0,0.0,0.0,0.0,-2.0001,-2.0654,-2.0961,-2.1667,-2.2761,-2.2618,-2.2803,-2.3295,-2.3067,-2.2946,-2.2908,-2.2414,0.0,-1.8786,-1.8761,0.0,0.0,0.0,0.0,0.0,0.0,0.0,0.0,0.0,0.0,0.0,0.0,0.0,0.0,0.0,0.0,0.0,0.0,0.0,0.0,0.0,0.0,0.0,0.0,0.0,0.0,0.0,0.0,0.0,0.0,0.0,0.0,0.0,0.0,0.0,0.0,-2.5035,-2.6785,-2.8519,-2.949,-3.0486,-3.1357,-3.0375,-2.8955,-2.7209,-2.5835,0.0,0.0,0.0,0.0,0.0,0.0,0.0,0.0,0.0,0.0,0.0,0.0,0.0,0.0,0.0,0.0,0.0,0.0,0.0,0.0,0.0,0.0,0.0,0.0,0.0,0.0,0.0,0.0,0.0,0.0,0.0,0.0,0.0,0.0,0.0,0.0,0.0,0.0,0.0,-1.1154,-1.2843,-1.4761,-1.5133,-1.5739,0.0,0.0,0.0,0.0,0.0,0.0,0.0,0.0,0.0,-2.0867,-2.1916,-2.2906,-2.3757,-2.4111,-2.467,-2.547,-2.5497,-2.5615,-2.5799,-2.5525,-2.5364,-2.53,-2.5106,-2.4284,-2.3041,-2.1714,-2.075,-2.0084,0.0,0.0,0.0,0.0,-1.7238,-1.6894,0.0,0.0,0.0,0.0,0.0,0.0,0.0,0.0,0.0,0.0,0.0,0.0,0.0,0.0,0.0,-2.1624,0.0,0.0,0.0,0.0,0.0,0.0,0.0,0.0,0.0,0.0,0.0,-2.6131,-2.7559,-2.9119,-3.0739,-3.186,-3.2853,-3.3705,-3.4169,-3.2757,-2.9943,-2.8776,-2.765,0.0,0.0,0.0,0.0,0.0,0.0,0.0,0.0,0.0,0.0,0.0,0.0,0.0,0.0,0.0,0.0,0.0,0.0,0.0,0.0,0.0,0.0,0.0,0.0,0.0,0.0,0.0,0.0,0.0,0.0,0.0,0.0,0.0,0.0,0.0,0.0,0.0,0.0,-1.3232,-1.4877,-1.6953,-1.7605,-1.837,0.0,0.0,0.0,0.0,0.0,0.0,-2.2072,-2.2801,-2.3557,-2.4395,-2.4951,-2.5706,-2.6644,-2.6917,-2.728,-2.7729,-2.7939,-2.7947,-2.7811,-2.7619,-2.7412,-2.7287,-2.7053,-2.6866,-2.6507,-2.4373,-2.3205,-2.2677,-2.2089,-2.1362,-2.0546,-2.007,-1.9614,-1.923,0.0,0.0,0.0,0.0,0.0,0.0,0.0,0.0,0.0,0.0,0.0,0.0,0.0,0.0,-2.251,-2.4425,-2.4514,-2.4408,0.0,0.0,0.0,0.0,0.0,0.0,0.0,0.0,0.0,-2.7591,-2.907,-3.0869,-3.2935,-3.3663,-3.4639,-3.5857,-3.5889,-3.4635,-3.2471,-3.1766,-3.0277,-2.8238,0.0,0.0,0.0,0.0,0.0,0.0,0.0,0.0,0.0,0.0,0.0,0.0,0.0,0.0,0.0,0.0,0.0,0.0,0.0,0.0,0.0,0.0,0.0,0.0,0.0,0.0,0.0,0.0,0.0,0.0,0.0,0.0,0.0,0.0,0.0,0.0,0.0,0.0,0.0,-1.9595,-2.0249,0.0,0.0,0.0,0.0,-2.2915,-2.4025,-2.4927,-2.5437,-2.6394,-2.7187,-2.7738,-2.8153,-2.8668,-2.9292,-2.9134,-2.9275,-2.9656,-2.9556,-2.9394,-2.9196,-2.8993,-2.8779,-2.86,-2.8371,-2.8191,-2.7897,-2.6359,-2.5634,-2.5373,-2.415,-2.3505,-2.3206,-2.2226,-2.1708,-2.1498,0.0,0.0,0.0,0.0,0.0,0.0,0.0,0.0,0.0,0.0,0.0,0.0,0.0,-2.218,-2.3852,-2.5392,-2.6243,-2.6685,-2.6571,0.0,0.0,0.0,0.0,0.0,0.0,0.0,-2.8192,-2.9119,-3.1468,-3.2983,-3.3777,-3.5412,-3.6648,-3.7591,-3.8044,-3.7547,-3.6249,-3.4455,-3.2711,-3.1085,-2.9727,-2.7901,0.0,0.0,0.0,0.0,0.0,0.0,0.0,0.0,0.0,0.0,0.0,0.0,0.0,0.0,0.0,0.0,0.0,0.0,0.0,0.0,0.0,0.0,0.0,0.0,0.0,0.0,0.0,0.0,0.0,0.0,0.0,0.0,0.0,0.0,0.0,0.0,0.0,-2.1649,-2.2703,0.0,-2.4869,-2.5398,-2.5803,-2.6103,-2.6919,-2.7577,-2.8075,-2.8668,-2.9224,-2.9726,-3.0126,-3.0798,-3.1811,-3.1609,-3.1709,-3.2062,-3.1874,-3.1698,-3.147,-3.1279,-3.11,-3.0881,-3.0661,-3.0454,-3.0181,-2.9532,-2.8285,-2.6797,-2.6226,-2.5636,-2.511,-2.4669,-2.4254,-2.3854,0.0,0.0,0.0,0.0,0.0,0.0,0.0,0.0,0.0,0.0,0.0,-1.884,-2.1113,-2.3412,-2.5274,-2.6489,-2.7633,-2.8196,-2.8077,0.0,0.0,0.0,-2.5554,0.0,0.0,-2.8521,-2.9908,-3.1322,-3.3178,-3.4603,-3.5574,-3.7015,-3.8197,-3.9136,-3.9606,-3.9557,-3.9007,-3.7173,-3.5289,-3.3407,-3.2063,-3.0522,-2.8818,0.0,0.0,0.0,0.0,0.0,0.0,0.0,0.0,0.0,0.0,0.0,0.0,0.0,0.0,0.0,0.0,0.0,0.0,0.0,0.0,0.0,0.0,0.0,0.0,0.0,0.0,0.0,0.0,0.0,0.0,0.0,0.0,0.0,0.0,0.0,-2.1814,-2.365,-2.5116,-2.634,-2.7266,-2.7954,-2.8491,-2.8796,-2.9507,-3.0175,-3.0695,-3.1096,-3.155,-3.1989,-3.2208,-3.2636,-3.3349,-3.3249,-3.3248,-3.3417,-3.3223,-3.2988,-3.2804,-3.2579,-3.2393,-3.2206,-3.1992,-3.1777,-3.1521,-3.1276,-3.0226,-2.8654,-2.8006,-2.7451,-2.6987,-2.6452,-2.6019,-2.5684,0.0,0.0,0.0,0.0,0.0,0.0,0.0,0.0,0.0,0.0,-1.8473,-2.0726,-2.2003,-2.4646,-2.6766,-2.7915,-2.8629,-2.8981,-2.8843,-2.8806,0.0,0.0,0.0,0.0,-2.9979,-3.0005,-3.1371,-3.4101,-3.4165,-3.5639,-3.8391,-3.8424,-3.9185,-4.0529,-4.0529,-4.0529,-4.051,-3.9862,-3.7934,-3.5211,-3.3785,-3.274,-3.1769,0.0,0.0,0.0,0.0,0.0,0.0,0.0,0.0,0.0,0.0,0.0,0.0,0.0,0.0,0.0,0.0,0.0,0.0,0.0,0.0,0.0,0.0,0.0,0.0,0.0,0.0,0.0,0.0,0.0,0.0,0.0,0.0,0.0,-1.9546,-2.1662,-2.3891,-2.5701,-2.7511,-2.8828,-2.9434,-3.0352,-3.0903,-3.0903,-3.188,-3.275,-3.3354,-3.3737,-3.4154,-3.4609,-3.4444,-3.4216,-3.3962,-3.3962,-3.3885,-3.373,-3.3471,-3.3237,-3.3054,-3.2856,-3.2632,-3.2445,-3.2257,-3.2043,-3.1828,-3.1571,-3.1326,-3.1034,-2.9542,-2.8968,-2.8794,-2.7481,-2.6982,-2.6932,0.0,0.0,0.0,0.0,0.0,0.0,0.0,0.0,0.0,0.0,-1.8407,-2.0393,-2.2712,-2.4913,-2.675,-2.803,-2.9107,-2.9718,-2.9659,0.0,0.0,0.0,0.0,0.0,-2.9924,-3.1906,-3.3307,-3.4101,-3.5671,-3.7112,-3.8408,-3.8942,-3.9959,-4.1304,-4.1304,-4.1334,-4.1439,-4.126,-4.018,-3.8433,-3.6385,-3.4787,-3.347,0.0,0.0,0.0,0.0,0.0,0.0,0.0,0.0,0.0,0.0,0.0,0.0,0.0,0.0,0.0,0.0,0.0,0.0,0.0,0.0,0.0,0.0,0.0,0.0,0.0,0.0,0.0,0.0,0.0,0.0,0.0,0.0,-2.3031,-2.2456,-2.4414,-2.6626,-2.8556,-2.9915,-3.0897,-3.1469,-3.2536,-3.3082,-3.284,-3.3952,-3.4659,-3.4683,-3.4654,-3.4882,-3.5461,-3.5129,-3.5141,-3.55,-3.5314,-3.5115,-3.4915,-3.4714,-3.4512,-3.4308,-3.4063,-3.3816,-3.361,-3.3581,-3.3332,-3.2942,-3.29,-3.2731,-3.2419,-3.103,-3.0311,-2.9922,-2.9549,-2.9088,-2.8595,0.0,0.0,0.0,0.0,0.0,0.0,0.0,0.0,0.0,0.0,-1.8754,-2.0895,-2.2682,-2.4927,-2.6727,-2.7698,-2.8673,-2.9356,-2.9608,0.0,0.0,0.0,0.0,-3.0733,-3.1646,-3.3259,-3.4538,-3.5445,-3.668,-3.7987,-3.9282,-3.9703,-4.0658,-4.2019,-4.2111,-4.2172,-4.2248,-4.2015,-4.1305,-4.0214,-3.8657,-3.7114,-3.5575,-3.3835,-3.2217,-3.0724,-2.955,-2.8204,-2.6785,-2.5594,0.0,0.0,0.0,0.0,0.0,0.0,0.0,0.0,0.0,0.0,0.0,0.0,0.0,0.0,0.0,0.0,0.0,0.0,0.0,0.0,0.0,0.0,0.0,0.0,-2.5085,-2.6381,-2.6424,-2.755,-2.8956,-3.05,-3.1709,-3.2617,-3.314,-3.4008,-3.4528,-3.459,-3.5386,-3.5844,-3.5695,-3.5747,-3.5903,-3.6178,-3.588,-3.5849,-3.6086,-3.5844,-3.5642,-3.5521,-3.5318,-3.5127,-3.4921,-3.466,-3.4452,-3.4243,-3.416,-3.3949,-3.3696,-3.3484,-3.3313,0.0,0.0,0.0,0.0,0.0,-3.0089,-2.9581,0.0,0.0,0.0,0.0,0.0,0.0,0.0,0.0,0.0,0.0,0.0,-2.1597,-2.2244,-2.4685,-2.6502,-2.7048,-2.7696,-2.8356,0.0,0.0,0.0,-3.0872,-3.0985,-3.1988,-3.4052,-3.4262,-3.5331,-3.7295,-3.7376,-3.8489,-4.0496,-4.0526,-4.1304,-4.2634,-4.2837,-4.293,-4.2929,-4.2444,-4.1796,-4.0992,-4.0449,-3.9281,-3.7613,-3.5538,-3.4292,-3.3439,-3.1909,-3.0495,-2.9223,-2.8366,0.0,0.0,0.0,0.0,0.0,0.0,0.0,0.0,0.0,0.0,0.0,0.0,0.0,0.0,0.0,0.0,0.0,0.0,0.0,0.0,0.0,0.0,0.0,0.0,-2.7961,-2.9633,-3.0728,-3.0872,-3.1205,-3.2069,-3.324,-3.4138,-3.4593,-3.5094,-3.5596,-3.6086,-3.6388,-3.6557,-3.6481,0.0,0.0,0.0,0.0,-3.6325,-3.6126,-3.5898,-3.5723,-3.571,-3.5521,-3.5277,-3.5086,-3.488,-3.466,-3.4397,-3.4202,-3.4118,-3.4076,-3.3611,-3.3398,-3.3262,-3.2347,-3.199,-3.1886,-3.0856,-3.041,-3.0254,0.0,0.0,0.0,0.0,0.0,0.0,0.0,0.0,0.0,-1.6791,-1.8718,-2.0481,-2.2191,-2.3881,-2.5328,-2.6393,-2.703,-2.7833,0.0,0.0,-2.9637,-3.0839,-3.1454,-3.2514,-3.4068,-3.5266,-3.6351,-3.7295,-3.7906,-3.8974,-4.0496,-4.0677,-4.1488,-4.2837,-4.3007,-4.316,-4.3312,-4.3194,-4.243,-4.1324,-4.1203,-3.9864,-3.786,-3.684,-3.5622,-3.4347,-3.3317,-3.2357,-3.145,-3.0711,-2.9892,-2.8968,-2.7377,0.0,0.0,0.0,0.0,0.0,0.0,0.0,0.0,0.0,0.0,0.0,0.0,0.0,0.0,0.0,0.0,0.0,0.0,0.0,0.0,-2.9205,-3.0849,-3.2282,-3.3035,-3.392,-3.4509,-3.4555,-3.5086,-3.5654,-3.614,-3.6748,-3.7026,-3.6829,-3.7322,-3.7477,-3.7119,-3.7193,-3.7148,-3.6954,-3.6747,-3.6563,-3.6325,-3.6112,-3.5898,-3.571,0.0,0.0,-3.5086,-3.488,-3.466,-3.4397,-3.4356,-3.4243,-3.4076,-3.3768,-3.3441,-3.3099,-3.2728,-3.2562,-3.2401,-3.1406,-3.1138,-3.1228,0.0,0.0,0.0,0.0,0.0,0.0,0.0,0.0,0.0,0.0,-1.7802,-1.937,-2.0656,-2.234,-2.3787,-2.471,-2.5995,0.0,0.0,-2.8596,-2.9718,-3.1396,-3.1817,-3.2838,-3.4603,-3.5736,-3.6643,-3.7295,-3.8051,-3.9149,-4.0648,-4.0753,-4.1608,-4.3007,-4.319,-4.3312,-4.3402,-4.3462,-4.2679,-4.1409,-4.1409,-4.0062,-3.8025,-3.7281,-3.6538,-3.5721,-3.4495,-3.3569,-3.2842,-3.2396,-3.1717,-3.0796,-2.935,-2.8589,-2.7773,0.0,0.0,0.0,0.0,0.0,0.0,0.0,0.0,0.0,0.0,0.0,0.0,0.0,0.0,-2.6962,0.0,0.0,-3.1014,-3.1607,-3.3008,-3.4182,-3.4664,-3.5533,-3.6016,-3.5737,-3.62,-3.6714,-3.7216,-3.7447,-3.7624,-3.7723,-3.7832,-3.7815,-3.7625,-3.7419,-3.7264,-3.7148,-3.6864,-3.6603,-3.6405,-3.6206,-3.5992,-3.571,-3.5602,-3.5399,-3.5086,-3.5003,-3.4743,-3.4397,-3.4397,-3.4356,-3.423,-3.3852,-3.3679,-3.3575,-3.3095,-3.281,-3.2643,-3.2142,-3.197,-3.1945,0.0,0.0,0.0,0.0,0.0,0.0,0.0,0.0,0.0,0.0,-1.6685,-1.8245,-1.8936,-2.0636,-2.2088,0.0,0.0,0.0,0.0,-2.8092,-2.969,-3.1517,-3.185,-3.2935,-3.4926,-3.5704,-3.6497,-3.7334,-3.7917,-3.9068,-4.0645,-4.0629,-4.1468,-4.2961,-4.3128,-4.3234,-4.3234,-4.3353,-4.2522,-4.121,-4.1238,-4.0028,-3.8155,-3.7434,-3.707,-3.6679,-3.5077,-3.4122,-3.3548,-3.3306,-3.2698,-3.1821,-3.0663,-3.0125,-2.9524,-2.7526,-2.6917,0.0,0.0,0.0,0.0,0.0,0.0,0.0,0.0,0.0,-2.8297,-2.9548,-2.9717,-3.0161,-3.1824,-3.2624,-3.3167,-3.3621,-3.4636,-3.5537,-3.5953,-3.6552,-3.6902,-3.672,-3.7128,-3.7604,-3.8109,-3.7973,-3.8069,-3.8486,-3.8194,-3.7967,-3.7891,-3.7572,-3.7341,-3.7303,-3.6929,-3.6628,-3.6405,-3.6246,-3.6047,-3.5886,-3.5886,-3.5709,-3.5419,-3.5419,-3.5156,-3.4724,-3.4724,-3.4724,-3.4653,-3.4216,-3.4155,-3.4306,-3.3658,-3.3264,-3.3053,-3.2798,-3.2636,-3.2519,0.0,0.0,0.0,0.0,0.0,0.0,0.0,0.0,0.0,0.0,0.0,0.0,0.0,0.0,0.0,0.0,0.0,0.0,-2.6115,-2.7399,-2.8751,-3.0152,-3.1362,-3.2708,-3.4182,-3.4943,-3.6042,-3.7465,-3.7546,-3.8411,-3.9989,-4.0102,-4.0976,-4.2404,-4.2534,-4.2605,-4.2605,-4.2622,-4.1823,-4.0525,-4.0635,-3.9758,-3.8302,-3.7694,-3.6911,-3.5926,-3.4452,-3.3763,-3.3505,-3.2846,-3.2065,-3.1362,-3.1087,-3.0516,-2.9811,-2.8827,0.0,-2.8061,-2.6639,-2.6659,-2.7187,-2.77,-2.8818,-2.9934,0.0,0.0,-3.1877,-3.2505,-3.3081,-3.3529,-3.3626,-3.4579,-3.5346,-3.5393,-3.5799,-3.6318,-3.6926,-3.7512,-3.8012,-3.8381,-3.8327,-3.8435,-3.8941,-3.8964,-3.8811,-3.8516,-3.8441,-3.8269,-3.7929,-3.7701,-3.7457,-3.7303,-3.707,-3.6772,-3.6405,-3.6365,-3.6413,-3.6497,-3.6497,-3.6531,-3.6631,-3.6631,-3.636,-3.5913,-3.5913,-3.5783,-3.5621,-3.5326,-3.5111,-3.4952,-3.4665,-3.4492,-3.4322,-3.3115,-3.2853,-3.2995,0.0,0.0,0.0,0.0,0.0,0.0,0.0,0.0,0.0,0.0,0.0,0.0,0.0,0.0,0.0,0.0,0.0,0.0,-2.4728,-2.6036,-2.7738,-2.9897,-3.0508,-3.1646,-3.3469,-3.4198,-3.5117,-3.6271,-3.7085,-3.8123,-3.9374,-3.9857,-4.0699,-4.1774,-4.1815,-4.1844,-4.1872,-4.1991,-4.1172,-3.9837,-4.0004,-3.8938,-3.716,-3.6439,-3.5673,-3.4855,-3.4176,-3.3553,0.0,0.0,-3.2325,-3.1923,-3.1484,-3.1007,-3.0483,-2.9724,-2.9718,0.0,-2.9744,-2.9839,0.0,0.0,-3.2196,-3.3487,-3.371,-3.4576,-3.5489,-3.6127,-3.6403,-3.6535,-3.6476,-3.678,-3.6908,0.0,-3.6476,-3.6707,-3.7288,-3.78,-3.8302,-3.8799,-3.9033,-3.9202,-3.9271,-3.9177,-3.9031,-3.8848,-3.8627,-3.8418,-3.8269,-3.7967,-3.7701,-3.7457,-3.7604,-3.7447,-3.693,-3.7275,-3.7318,-3.7134,-3.7134,-3.7017,-3.6817,-3.6817,-3.6545,-3.6109,-3.6109,-3.6066,-3.5978,-3.5727,-3.5711,-3.5756,-3.5167,-3.5017,-3.5056,-3.419,-3.3746,-3.3558,0.0,0.0,0.0,0.0,0.0,0.0,0.0,0.0,0.0,0.0,0.0,0.0,0.0,0.0,0.0,0.0,0.0,0.0,0.0,-2.479,-2.6602,-2.8792,-2.9567,-3.0654,-3.2275,-3.3137,-3.412,-3.5208,-3.6238,-3.7324,-3.8473,-3.9017,-3.9726,-4.0531,-4.0558,-4.0569,-4.0569,-4.0739,-4.0061,-3.8887,-3.8832,-3.7743,-3.6025,-3.5075,-3.4136,-3.3299,-3.3178,-3.2701,0.0,0.0,-3.1466,-3.1308,-3.099,-3.0762,-3.0555,-3.0402,-3.0933,-3.1695,-3.2384,0.0,0.0,-3.3908,-3.5332,-3.6573,-3.6545,-3.7414,-3.8342,-3.885,-3.8711,-3.8492,-3.8431,-3.8089,0.0,-3.7122,-3.6892,-3.6971,-3.7495,-3.7843,-3.8292,-3.899,-3.9369,-3.9556,-3.9502,-3.9301,-3.9141,-3.9104,-3.8775,-3.8553,-3.8478,-3.8118,-3.7902,-3.7829,-3.8076,-3.799,-3.7551,-3.7979,-3.8032,-3.7743,-3.7743,-3.7639,-3.7384,-3.7253,-3.6946,-3.6606,-3.6606,-3.6606,-3.6606,-3.6384,-3.6406,-3.6559,-3.5889,-3.575,-3.5903,-3.5511,-3.4816,-3.4123,0.0,0.0,0.0,0.0,0.0,0.0,0.0,0.0,0.0,0.0,0.0,0.0,0.0,0.0,0.0,0.0,0.0,0.0,0.0,-2.3852,-2.5301,-2.6091,-2.8617,-3.0092,-3.0266,-3.1577,-3.3067,-3.4724,-3.4773,-3.5597,-3.7143,-3.7176,-3.7573,-3.8311,-3.8434,-3.8485,-3.8511,-3.858,-3.8196,-3.7493,-3.686,-3.6118,-3.5284,-3.3968,-3.2478,-3.1076,-3.0955,0.0,0.0,-2.9107,-2.8583,-2.8622,-2.9193,-2.9366,0.0,-3.0882,-3.2145,-3.3258,0.0,0.0,-3.6282,-3.684,-3.8035,-3.9068,-3.895,-3.9484,-4.0044,-4.006,-3.9486,-3.8946,-3.8796,-3.8058,-3.7389,-3.7224,-3.7075,-3.7141,-3.7622,-3.773,-3.8097,-3.9088,-3.9203,-3.934,0.0,-3.9517,-3.9301,-3.9104,-3.8907,-3.8723,-3.8516,-3.8118,-3.8103,-3.8457,-3.8303,-3.8201,-3.8159,-3.8186,-3.8238,-3.8383,-3.8383,-3.855,-3.881,-3.8373,-3.8037,-3.7848,-3.7848,-3.7848,-3.7802,-3.7559,-3.7466,-3.7433,-3.7163,-3.7023,-3.7036,-3.7023,-3.6045,-3.47,0.0,0.0,0.0,0.0,0.0,0.0,0.0,0.0,0.0,0.0,0.0,0.0,0.0,0.0,0.0,0.0,0.0,0.0,0.0,-2.1668,-2.3309,-2.4476,-2.6307,-2.7741,-2.8707,-3.0146,-3.1423,-3.251,-3.3488,-3.4284,-3.4916,-3.5413,-3.5826,-3.6148,-3.618,-3.6252,-3.6284,-3.641,-3.6038,-3.5367,-3.5217,-3.444,-3.3246,-3.2286,-3.1306,-3.02,0.0,0.0,0.0,-2.8677,-2.8489,-2.8566,-2.9198,-2.9679,-3.0491,-3.2758,-3.3736,-3.4399,0.0,0.0,-3.8054,-3.9107,-4.0347,-4.1303,-4.1272,-4.1709,-4.1901,-4.0958,-4.0574,-3.9935,-3.8453,-3.7932,-3.7526,-3.6891,-3.6681,-3.677,-3.7294,-3.7561,-3.8023,-3.8853,-3.9097,0.0,0.0,0.0,0.0,-3.9301,-3.898,-3.8745,-3.8686,-3.8737,-3.8702,-3.85,-3.9273,-3.9447,-3.9005,-3.928,-3.9326,-3.9254,-3.8905,-3.8809,-3.8863,-3.8427,-3.8167,-3.8089,-3.7979,-3.79,-3.79,-3.7808,-3.7657,-3.7505,-3.74,-3.7261,-3.7108,-3.7108,-3.6772,-3.6264,0.0,0.0,0.0,0.0,0.0,0.0,0.0,0.0,0.0,0.0,0.0,0.0,0.0,0.0,0.0,0.0,0.0,0.0,0.0,0.0,-2.1299,-2.3012,-2.441,-2.5721,-2.6937,-2.8365,-2.9506,-3.0335,-3.1506,-3.2276,-3.263,-3.3133,-3.3449,-3.3539,-3.359,-3.3656,-3.3706,-3.3837,-3.3633,-3.3178,-3.2992,-3.2357,-3.136,-3.0074,-2.9296,0.0,0.0,0.0,-2.7527,-2.7437,-2.7714,-2.8275,-2.9178,-3.0638,-3.2403,-3.4388,-3.5506,-3.6498,0.0,-3.9438,-4.0411,-4.1476,-4.2311,-4.2847,-4.2847,-4.2751,-4.2302,-4.1144,-4.0471,-3.9556,-3.7575,-3.7222,-3.6942,-3.6055,-3.6232,-3.6579,-3.6859,-3.7278,-3.7857,-3.8691,-3.8941,0.0,0.0,0.0,0.0,-3.9409,-3.9017,-3.8782,-3.8782,-3.9054,-3.9097,-3.8856,-3.9841,-4.0207,-3.9772,-3.9903,-3.9834,-3.9554,-3.9203,-3.8997,-3.8908,-3.8594,-3.8381,-3.82,-3.8044,-3.7979,-3.79,-3.79,-3.7808,-3.7657,-3.7657,-3.7551,-3.7413,-3.7413,-3.7413,-3.7302,0.0,0.0,0.0,0.0,0.0,0.0,0.0,0.0,0.0,0.0,0.0,0.0,0.0,0.0,0.0,0.0,0.0,0.0,0.0,0.0,0.0,-2.1497,-2.2896,-2.405,-2.4911,-2.6244,-2.7368,-2.8227,-2.892,-2.9595,-3.0294,-3.041,-3.0468,-3.0488,-3.0694,-3.0777,-3.0796,-3.0915,-3.0954,-3.0922,-3.0209,-2.9905,-2.9651,-2.7469,0.0,0.0,0.0,0.0,0.0,0.0,0.0,0.0,0.0,-3.2149,-3.509,-3.5778,-3.7475,-3.9424,-4.0758,-4.2024,-4.3175,-4.3941,-4.396,-4.3751,-4.3751,-4.2633,-4.1369,-4.0526,-3.9262,-3.7813,0.0,0.0,-3.5599,-3.4798,-3.5684,-3.6438,-3.6406,-3.6857,-3.7589,0.0,0.0,0.0,0.0,0.0,0.0,-3.946,0.0,-3.8833,-3.8841,-3.9113,-3.9357,-3.9553,-4.0153,-4.0434,-4.0428,-4.014,-3.9777,-3.9305,-3.9305,-3.9158,-3.8908,-3.8908,-3.8639,-3.8245,-3.82,-3.8089,-3.7946,-3.79,-3.79,-3.79,-3.79,-3.79,-3.79,-3.79,-3.79,-3.79,0.0,0.0,0.0,0.0,0.0,0.0,0.0,0.0,0.0,0.0,0.0,0.0,0.0,0.0,0.0,0.0,0.0,0.0,0.0,0.0,0.0,0.0,0.0,0.0,0.0,0.0,0.0,0.0,-2.6649,-2.7133,-2.7371,-2.7406,-2.7498,-2.7661,-2.7698,-2.7752,-2.7806,-2.7894,-2.7912,-2.7912,0.0,-2.7369,-2.6758,0.0,0.0,0.0,0.0,0.0,0.0,0.0,0.0,0.0,0.0,-3.3748,-3.6075,-3.7871,-3.9532,-4.1064,-4.2417,-4.3427,-4.4384,-4.5488,-4.5326,-4.4738,-4.4199,-4.2927,-4.1246,-3.8884,-3.7693,-3.6453,0.0,0.0,0.0,-3.4217,-3.4442,0.0,-3.6372,-3.6564,0.0,0.0,0.0,-3.9243,-4.0332,-4.0172,0.0,0.0,-3.925,-3.9165,-3.9519,-3.9885,-4.023,-4.0455,-4.0907,-4.1042,-4.0845,-4.03,-3.9878,-3.9598,-3.9407,-3.9247,-3.9203,-3.8997,-3.8819,-3.8729,-3.8575,-3.8466,-3.8434,-3.8226,-3.8122,-3.8089,-3.7979,-3.79,-3.79,-3.79,-3.7965,-3.8135,0.0,0.0,0.0,0.0,0.0,0.0,0.0,0.0,0.0,0.0,0.0,0.0,0.0,0.0,0.0,0.0,0.0,0.0,0.0,0.0,0.0,0.0,0.0,0.0,0.0,0.0,0.0,0.0,0.0,0.0,0.0,-2.5263,-2.5531,-2.5647,-2.5696,-2.5745,-2.5775,-2.5856,0.0,0.0,0.0,0.0,0.0,0.0,0.0,0.0,0.0,0.0,0.0,0.0,0.0,-3.1479,-3.3295,-3.5557,-3.7891,-3.9696,0.0,-4.2738,-4.4481,-4.5164,-4.558,-4.629,-4.5897,-4.4931,-4.3541,-4.1871,-3.978,-3.6885,-3.5446,0.0,0.0,0.0,0.0,0.0,0.0,0.0,-3.5683,-3.6241,-3.7196,0.0,-3.9075,0.0,-4.0538,-4.0331,-4.0188,0.0,-3.9828,-3.9624,-3.9784,-4.0475,-4.0833,-4.0795,-4.1275,-4.1325,-4.0887,-4.04,-4.0067,-3.9818,-3.9584,-3.9496,-3.9452,-3.9203,-3.9011,-3.8908,0.0,-3.8679,-3.8602,-3.8453,-3.8362,-3.8349,-3.8239,-3.8207,-3.8207,-3.8207,-3.8285,-3.8362,0.0,0.0,0.0,0.0,0.0,0.0,0.0,0.0,0.0,0.0,0.0,0.0,0.0,0.0,0.0,0.0,0.0,0.0,0.0,0.0,0.0,0.0,0.0,0.0,0.0,0.0,0.0,0.0,0.0,0.0,0.0,0.0,0.0,0.0,0.0,0.0,0.0,0.0,0.0,0.0,0.0,0.0,0.0,0.0,0.0,0.0,0.0,0.0,0.0,0.0,-3.1483,-3.3446,-3.4854,-3.7303,-3.9901,-4.1111,-4.263,-4.4354,-4.626,-4.6778,-4.6765,-4.6666,-4.5927,-4.4634,-4.2438,-4.0099,-3.7593,-3.471,0.0,0.0,-2.9091,0.0,-2.9749,-2.988,0.0,-3.3137,-3.4681,-3.5719,-3.7057,-3.9029,-3.9141,-3.9478,-4.0603,-4.0478,-4.0517,-4.1024,-4.0583,-4.0263,-4.0088,-4.0955,-4.1281,-4.0925,-4.1429,-4.1409,-4.073,-4.0544,-4.0298,-4.0053,-3.9862,-3.9744,-3.97,-3.9452,-3.9203,-3.8953,-3.8953,0.0,-3.8692,-3.8647,-3.8647,-3.8647,-3.8602,-3.8602,-3.8602,-3.8602,-3.8602,-3.8647,0.0,0.0,0.0,0.0,0.0,0.0,0.0,0.0,0.0,0.0,-1.031,0.0,0.0,0.0,0.0,0.0,0.0,0.0,0.0,0.0,0.0,0.0,0.0,0.0,0.0,0.0,0.0,0.0,0.0,0.0,0.0,0.0,0.0,0.0,0.0,0.0,0.0,0.0,0.0,0.0,0.0,0.0,0.0,0.0,0.0,0.0,0.0,0.0,0.0,0.0,-3.1483,-3.3568,-3.5602,-3.8229,-4.0756,-4.1571,-4.3606,-4.5652,-4.6034,-4.6953,-4.762,-4.7008,-4.5818,-4.4216,-4.2018,-3.891,0.0,0.0,0.0,-2.8579,-2.6991,-2.7212,0.0,-2.9223,0.0,0.0,0.0,0.0,-3.5764,0.0,0.0,0.0,0.0,0.0,0.0,0.0,0.0,-4.1497,-4.162,-4.1637,-4.1606,-4.1571,-4.1645,-4.1479,-4.0958,-4.073,-4.0544,-4.0342,-4.0067,-3.9848,-3.97,-3.9656,-3.9496,-3.9247,-3.9247,0.0,-3.9172,-3.8922,-3.8877,-3.8832,-3.8679,-3.8602,-3.8602,-3.8602,-3.8724,-3.8877,0.0,0.0,0.0,0.0,0.0,0.0,0.0,0.0,0.0,-1.1035,-1.1285,-1.1705,0.0,0.0,0.0,0.0,0.0,0.0,0.0,0.0,0.0,0.0,0.0,0.0,0.0,0.0,0.0,0.0,0.0,0.0,0.0,0.0,0.0,0.0,0.0,0.0,0.0,0.0,0.0,0.0,0.0,0.0,0.0,0.0,0.0,0.0,0.0,0.0,0.0,0.0,-3.1087,-3.3313,-3.575,-3.8262,-4.062,-4.2049,-4.3671,-4.5183,-4.5968,-4.6562,-4.6786,-4.6055,-4.4699,-4.2883,-4.0354,0.0,0.0,0.0,0.0,-2.6856,-2.5325,0.0,0.0,0.0,0.0,0.0,0.0,0.0,0.0,0.0,0.0,0.0,0.0,0.0,0.0,0.0,0.0,-4.2448,-4.221,-4.2199,-4.2162,-4.2075,-4.191,-4.1688,-4.1395,-4.1015,-4.0816,-4.0702,-4.0371,-4.0168,-4.0051,-3.9892,-3.9791,-3.9645,-3.954,0.0,-3.9496,-3.9203,-3.91,-3.9114,-3.8993,-3.8948,-3.8948,-3.8948,-3.9024,-3.91,0.0,0.0,0.0,0.0,0.0,0.0,0.0,-0.9176,-1.0938,-1.1493,-1.2241,-1.2729,-1.2709,-1.3112,-1.3396,0.0,0.0,0.0,0.0,0.0,0.0,0.0,0.0,0.0,0.0,0.0,0.0,0.0,0.0,0.0,0.0,0.0,0.0,0.0,0.0,0.0,0.0,0.0,0.0,0.0,0.0,0.0,0.0,0.0,0.0,0.0,0.0,0.0,0.0,0.0,-3.0013,-3.2108,-3.4822,-3.7533,-4.0087,-4.1856,-4.3227,-4.4377,-4.5567,-4.5965,-4.5843,-4.496,-4.3556,-4.1637,-3.8776,-3.558,0.0,0.0,-2.6729,-2.4946,-2.3569,0.0,0.0,0.0,0.0,0.0,0.0,0.0,0.0,0.0,0.0,0.0,0.0,0.0,0.0,0.0,0.0,0.0,-4.2644,-4.2688,-4.2648,-4.2474,-4.2213,-4.1993,-4.1785,-4.1339,-4.1128,-4.11,-4.0702,-4.0515,-4.0471,-4.0198,-4.0053,-3.9996,-3.9848,0.0,0.0,-3.9526,-3.9438,-3.9407,-3.9407,-3.9349,-3.9305,-3.9305,-3.9305,-3.9305,0.0,0.0,0.0,0.0,0.0,0.0,0.0,-0.9601,-1.1499,-1.1512,-1.2663,-1.3442,-1.3327,-1.337,-1.3346,0.0,0.0,0.0,0.0,0.0,0.0,0.0,0.0,0.0,0.0,0.0,0.0,0.0,0.0,0.0,0.0,0.0,0.0,0.0,0.0,0.0,0.0,0.0,0.0,0.0,0.0,0.0,0.0,0.0,0.0,0.0,0.0,0.0,0.0,0.0,0.0,-2.9022,-3.2005,-3.5822,-3.9323,-4.013,0.0,0.0,-4.445,-4.5375,-4.5912,-4.4537,-4.3064,-4.1197,-3.8238,0.0,0.0,0.0,-2.4763,-2.2065,-2.1238,-2.1593,-2.2477,0.0,0.0,0.0,0.0,0.0,0.0,0.0,0.0,0.0,0.0,0.0,0.0,0.0,0.0,0.0,-4.324,-4.3046,-4.2875,-4.2688,-4.2459,-4.2213,-4.1951,-4.1744,-4.1535,-4.1354,-4.1057,-4.0845,-4.0659,-4.0471,-4.0255,-3.9996,-3.9966,0.0,0.0,-3.9966,-3.9848,-3.9656,-3.9656,-3.9496,-3.9305,-3.9305,-3.9305,-3.9305,0.0,0.0,0.0,0.0,0.0,0.0,0.0,-0.8869,-1.0514,-1.1329,-1.2289,-1.3008,-1.3353,-1.3337,-1.3269,0.0,0.0,0.0,0.0,0.0,0.0,0.0,0.0,0.0,0.0,0.0,0.0,0.0,0.0,0.0,0.0,0.0,0.0,0.0,0.0,0.0,0.0,0.0,0.0,0.0,0.0,0.0,0.0,0.0,0.0,0.0,0.0,0.0,0.0,0.0,0.0,0.0,-3.0035,-3.2767,0.0,0.0,-4.029,-4.1974,-4.2324,-4.3081,-4.3524,-4.2483,-4.0735,-3.8623,-3.6125,0.0,0.0,-2.6185,-2.3736,-2.1683,-2.0383,-2.0708,-2.1527,0.0,0.0,0.0,0.0,0.0,0.0,0.0,0.0,0.0,0.0,0.0,0.0,0.0,0.0,0.0,-4.3918,-4.3621,-4.3265,-4.2875,-4.2795,-4.2648,-4.2404,-4.2075,-4.1827,-4.1758,-4.1423,-4.1213,-4.1086,-4.0859,-4.0716,-4.0588,-4.0357,0.0,0.0,-4.0053,-3.9966,-3.9892,-3.9892,-3.9834,-3.9733,-3.9733,-3.9733,-3.9733,0.0,0.0,0.0,0.0,0.0,-0.6246,-0.6992,-0.8332,-0.9708,-1.0923,-1.1637,-1.2224,-1.2676,-1.2621,-1.254,-1.2523,0.0,0.0,0.0,0.0,0.0,0.0,0.0,0.0,0.0,0.0,0.0,0.0,0.0,0.0,0.0,0.0,0.0,0.0,0.0,0.0,0.0,0.0,0.0,0.0,0.0,0.0,0.0,0.0,0.0,0.0,0.0,0.0,0.0,0.0,0.0,0.0,0.0,0.0,0.0,0.0,-3.7982,-3.9496,-4.0145,-4.0595,-4.0762,-4.0239,-3.8353,-3.6112,0.0,0.0,-2.7466,-2.4953,-2.2883,-2.111,-1.967,-1.9984,-2.0691,-2.1365,0.0,0.0,0.0,0.0,0.0,0.0,0.0,0.0,0.0,0.0,0.0,0.0,0.0,0.0,0.0,-4.4065,-4.366,-4.321,-4.3115,-4.2996,-4.2809,-4.2404,-4.2172,-4.2131,-4.1758,-4.1549,-4.1465,-4.1241,-4.11,-4.11,-4.0744,0.0,0.0,-4.0314,-4.0184,-4.0097,-4.0097,-4.0053,-3.9996,-3.9996,-3.9996,-3.9996,0.0,0.0,0.0,0.0,0.0,0.0,0.0,-0.8293,-0.9459,-1.0203,-1.0835,-1.1179,-1.1127,-1.1066,-1.1004,-1.093,0.0,0.0,0.0,0.0,0.0,0.0,0.0,0.0,0.0,0.0,-1.5439,-1.5492,-1.6974,0.0,0.0,0.0,0.0,0.0,0.0,0.0,0.0,0.0,0.0,0.0,0.0,0.0,0.0,0.0,0.0,0.0,0.0,0.0,0.0,0.0,0.0,0.0,0.0,0.0,0.0,0.0,-3.5347,-3.7274,-3.8024,-3.8142,-3.8031,-3.802,-3.6271,-3.4134,0.0,0.0,-2.6302,-2.4812,-2.2113,-1.9753,-1.8859,-1.9269,-1.994,-2.06,-2.2559,0.0,0.0,0.0,0.0,0.0,0.0,0.0,0.0,0.0,0.0,0.0,0.0,0.0,0.0,-4.4396,-4.4089,-4.3729,-4.3423,-4.321,-4.2981,-4.2795,-4.2581,-4.2392,-4.2131,-4.1868,-4.1688,-4.1465,-4.1396,0.0,0.0,0.0,0.0,-4.0773,-4.0587,-4.0399,-4.0399,-4.0241,-3.9996,-3.9996,-3.9996,-3.9996,0.0,0.0,0.0,0.0,0.0,0.0,0.0,-0.6613,-0.7507,-0.9244,-0.9606,-1.0059,-1.0997,-1.1035,-1.097,-1.0914,0.0,0.0,0.0,0.0,0.0,0.0,0.0,0.0,0.0,0.0,-1.5472,-1.5492,-1.7077,-1.8144,-1.8717,-1.8846,0.0,0.0,0.0,0.0,0.0,0.0,0.0,0.0,0.0,0.0,0.0,0.0,0.0,0.0,0.0,0.0,0.0,0.0,0.0,0.0,0.0,0.0,0.0,0.0,0.0,0.0,-3.4311,-3.4712,-3.4947,-3.4436,-3.3325,-3.1859,-2.987,-2.7657,-2.5316,-2.2819,-2.1085,-1.9588,-1.8247,-1.8985,-1.998,-2.0658,-2.259,0.0,0.0,0.0,0.0,0.0,0.0,0.0,0.0,0.0,0.0,0.0,0.0,0.0,0.0,-4.4723,-4.4458,-4.391,-4.3675,-4.3557,-4.3463,-4.309,-4.2875,-4.2809,-4.2459,-4.2213,-4.2172,-4.1785,-4.1633,0.0,0.0,0.0,0.0,-4.1015,-4.0887,-4.0816,-4.0659,-4.053,-4.0487,-4.0487,-4.0487,-4.0487,0.0,0.0,0.0,0.0,0.0,0.0,0.0,-0.5862,-0.639,-0.8057,-0.8453,-0.8912,-0.9758,-1.0044,-1.0142,-1.0112,0.0,0.0,0.0,0.0,0.0,0.0,0.0,0.0,0.0,-1.4628,-1.5578,-1.5578,-1.7441,-1.8614,-1.915,-1.9568,-1.9797,-1.9847,0.0,0.0,0.0,0.0,0.0,0.0,0.0,0.0,-1.8532,0.0,0.0,0.0,0.0,0.0,0.0,0.0,0.0,0.0,0.0,0.0,0.0,0.0,-2.7489,0.0,0.0,-3.1316,-3.1227,-3.1365,-3.032,0.0,0.0,-2.58,-2.3896,-2.1752,-2.0412,-1.9304,-1.8288,-1.9068,-2.0147,-2.1066,-2.3051,0.0,0.0,0.0,0.0,0.0,0.0,0.0,0.0,0.0,0.0,0.0,0.0,0.0,0.0,-4.4716,-4.4368,-4.3953,-4.3928,-4.3832,-4.369,-4.3423,-4.317,-4.2981,-4.2729,-4.2581,-4.25,-4.2131,-4.1951,0.0,0.0,0.0,0.0,-4.1241,-4.1142,-4.1142,-4.0887,-4.0802,-4.0802,-4.073,-4.0702,-4.0702,0.0,0.0,0.0,0.0,0.0,0.0,0.0,0.0,0.0,0.0,-0.7354,-0.7731,-0.7723,-0.8319,-0.8717,0.0,0.0,0.0,0.0,0.0,0.0,0.0,0.0,0.0,0.0,-1.4499,-1.5695,-1.5695,-1.7994,-1.9178,-1.9316,-2.02,-2.0628,-2.0668,-1.9996,-1.9672,-1.9578,-1.8903,-1.8622,-1.8622,-1.8622,-1.8601,0.0,0.0,0.0,0.0,0.0,0.0,0.0,0.0,0.0,0.0,0.0,0.0,0.0,0.0,0.0,0.0,0.0,0.0,0.0,0.0,0.0,0.0,0.0,-2.4055,0.0,-2.1489,-2.0173,-1.9111,-1.8923,-1.9542,-2.0515,-2.1859,-2.3914,0.0,0.0,0.0,0.0,0.0,0.0,0.0,0.0,0.0,0.0,0.0,0.0,0.0,0.0,-4.4497,-4.3919,-4.382,-4.405,-4.399,-4.3618,-4.3624,-4.3388,-4.2961,-4.3006,-4.2915,-4.2729,-4.25,-4.2392,0.0,0.0,0.0,0.0,-4.1507,-4.1438,-4.1396,-4.1142,-4.1043,-4.1001,-4.0816,-4.0744,-4.0744,0.0,0.0,0.0,0.0,0.0,0.0,0.0,0.0,0.0,0.0,-0.6157,-0.6402,-0.6897,-0.7604,-0.8018,0.0,0.0,0.0,0.0,0.0,0.0,0.0,0.0,0.0,0.0,-1.4545,-1.5706,-1.5706,-1.8095,-1.9579,-2.0206,-2.1138,-2.1586,-2.1575,-2.089,-1.9976,-1.8917,-1.8749,-1.8688,-1.8688,-1.8688,-1.865,0.0,0.0,0.0,0.0,-1.8559,-1.9039,0.0,0.0,0.0,0.0,0.0,0.0,0.0,0.0,-2.3293,-2.3701,-2.5007,0.0,-2.5581,-2.5943,0.0,-2.5036,0.0,-2.3841,-2.3042,-2.1721,0.0,-2.0586,-1.9971,-2.085,-2.2135,-2.3583,-2.553,0.0,0.0,0.0,0.0,0.0,0.0,0.0,0.0,0.0,0.0,0.0,0.0,0.0,-4.493,-4.449,-4.3909,-4.3092,-4.3123,-4.2981,-4.2641,-4.2788,-4.2799,-4.2683,-4.2902,-4.2996,-4.2915,-4.2729,-4.2541,0.0,0.0,0.0,-4.1995,-4.1717,-4.1619,-4.1619,-4.1381,-4.1297,-4.1297,-4.1255,-4.1227,-4.1227,0.0,0.0,0.0,0.0,0.0,0.0,0.0,0.0,0.0,0.0,0.0,0.0,0.0,0.0,0.0,0.0,0.0,0.0,0.0,0.0,0.0,0.0,0.0,0.0,-1.1831,-1.4435,-1.5972,-1.6333,-1.872,-2.0316,-2.1125,-2.2035,-2.2457,-2.2404,-2.143,-2.0129,-1.8706,-1.8725,-1.8752,-1.8752,-1.8752,0.0,0.0,0.0,0.0,0.0,-1.8598,-1.8851,0.0,-1.9496,-2.0169,-2.095,0.0,0.0,0.0,0.0,-2.19,-2.2068,-2.287,-2.3532,-2.4064,-2.4409,-2.4226,-2.3819,-2.3388,0.0,0.0,0.0,0.0,0.0,0.0,0.0,0.0,0.0,0.0,0.0,0.0,0.0,0.0,0.0,0.0,0.0,0.0,0.0,0.0,0.0,0.0,0.0,-4.4503,-4.3892,-4.3301,-4.2716,-4.2245,-4.2103,-4.2316,-4.2408,-4.2501,-4.2612,-4.2764,-4.2936,-4.3115,-4.2915,-4.2769,0.0,0.0,0.0,-4.2201,-4.198,-4.1883,-4.1856,-4.1633,-4.1549,-4.1549,-4.1423,-4.1396,-4.1396,0.0,0.0,0.0,0.0,0.0,0.0,0.0,0.0,0.0,0.0,0.0,0.0,0.0,0.0,0.0,0.0,0.0,0.0,0.0,0.0,0.0,0.0,0.0,-1.1284,-1.1418,-1.4365,-1.6378,-1.7305,-1.9532,-2.104,-2.1841,-2.2714,-2.3021,-2.2752,-2.1617,-2.0218,-1.8715,-1.8797,-1.8824,-1.8824,-1.8824,0.0,0.0,0.0,0.0,0.0,0.0,0.0,0.0,-1.9288,-1.9619,-1.9802,-2.0444,0.0,0.0,0.0,0.0,0.0,-2.1698,-2.2282,-2.2829,-2.3548,-2.3304,-2.2884,-2.2871,0.0,0.0,0.0,0.0,0.0,0.0,0.0,0.0,0.0,0.0,0.0,0.0,0.0,0.0,0.0,0.0,0.0,0.0,0.0,0.0,0.0,0.0,0.0,-4.4145,-4.3218,-4.2618,-4.244,-4.1619,-4.1491,-4.2103,-4.2153,-4.2239,-4.2372,-4.2545,-4.2821,-4.318,-4.3071,-4.3036,-4.2996,0.0,0.0,-4.2433,-4.2242,-4.2133,-4.2133,-4.1841,-4.1744,-4.1744,-4.1564,-4.1522,-4.1522,0.0,0.0,0.0,0.0,0.0,0.0,0.0,0.0,0.0,0.0,0.0,0.0,0.0,0.0,0.0,0.0,0.0,0.0,0.0,0.0,0.0,0.0,-1.0918,-1.1691,-1.2363,-1.4742,-1.6705,-1.8196,-1.9941,-2.1177,-2.1984,-2.2864,-2.2593,-2.1391,-2.1192,-2.0228,-1.8788,-1.8869,-1.8887,-1.8887,-1.8887,0.0,0.0,0.0,0.0,0.0,0.0,0.0,0.0,-1.8491,-1.9182,-1.9714,-1.9819,0.0,0.0,0.0,0.0,0.0,-2.1768,-2.2007,-2.219,-2.2812,-2.3344,-2.3698,-2.3643,0.0,0.0,0.0,0.0,0.0,0.0,0.0,0.0,0.0,0.0,0.0,0.0,0.0,0.0,0.0,0.0,0.0,0.0,0.0,0.0,0.0,0.0,0.0,-4.38,-4.336,-4.2695,-4.1795,-4.1619,-4.1449,-4.1293,-4.1522,-4.1561,-4.1422,-4.2206,-4.2657,-4.2739,-4.3075,-4.3155,-4.2981,0.0,-4.2795,-4.2662,-4.2433,-4.2351,-4.231,-4.2119,-4.2051,-4.2036,-4.2009,-4.2009,-4.2009,0.0,0.0,0.0,0.0,0.0,0.0,0.0,0.0,0.0,0.0,0.0,0.0,0.0,0.0,0.0,0.0,0.0,0.0,0.0,0.0,0.0,-1.0318,-1.1093,-1.2052,-1.3216,-1.5138,-1.7086,-1.9094,-2.0312,-2.1518,-2.2717,-2.3153,-2.256,-2.1151,-2.1151,-2.0299,-1.887,-1.8896,-1.8905,-1.8851,0.0,0.0,0.0,0.0,0.0,0.0,0.0,0.0,0.0,0.0,-1.8473,-1.9095,-1.9057,0.0,0.0,0.0,0.0,0.0,-2.1024,-2.1317,-2.1674,-2.3184,-2.3736,-2.4005,-2.435,-2.5042,0.0,0.0,0.0,0.0,0.0,0.0,0.0,0.0,0.0,0.0,0.0,0.0,0.0,0.0,0.0,0.0,0.0,0.0,0.0,0.0,0.0,0.0,-4.3279,-4.3008,-4.2639,-4.2061,-4.1882,-4.1653,-4.1372,-4.1367,-4.1365,-4.1382,-4.1669,-4.213,-4.2612,-4.2797,-4.3024,-4.3155,0.0,-4.2955,-4.2835,-4.2662,-4.2581,-4.2541,-4.2474,-4.2366,-4.2242,-4.2133,-4.2092,-4.2092,0.0,0.0,0.0,0.0,0.0,0.0,0.0,0.0,0.0,0.0,0.0,0.0,0.0,0.0,0.0,0.0,0.0,0.0,0.0,0.0,-0.9461,-1.0625,-1.1294,-1.2413,-1.4086,-1.5509,-1.7478,-1.9998,-2.0711,-2.1845,-2.3395,-2.3252,-2.2482,-2.1225,-2.1036,-2.0169,-1.8904,-1.8913,-1.8805,-1.8589,0.0,0.0,0.0,0.0,0.0,0.0,0.0,0.0,0.0,0.0,0.0,0.0,0.0,0.0,0.0,-1.8495,-1.8495,-1.8793,-2.0163,-2.0673,-2.1346,-2.3635,-2.4203,-2.4448,-2.536,-2.6247,-2.6938,0.0,0.0,0.0,0.0,0.0,0.0,0.0,0.0,0.0,0.0,0.0,0.0,0.0,0.0,0.0,0.0,0.0,0.0,0.0,0.0,0.0,-4.3023,-4.2821,-4.2618,-4.2445,-4.2206,-4.1947,-4.172,-4.1489,-4.1354,-4.1344,-4.1306,-4.1705,-4.2538,-4.2651,-4.2973,-4.3448,-4.325,-4.3155,-4.3155,-4.289,-4.2769,-4.2769,-4.2729,-4.2622,-4.2474,-4.2284,-4.2201,-4.2175,0.0,0.0,0.0,0.0,0.0,0.0,0.0,0.0,0.0,0.0,0.0,0.0,0.0,0.0,0.0,0.0,0.0,0.0,0.0,0.0,-0.9178,-1.1417,-1.163,-1.2758,-1.5044,-1.5878,-1.7816,-2.0912,-2.1081,-2.2046,-2.3649,-2.2909,-2.2111,-2.1251,-2.0512,-1.9704,-1.8904,-1.8975,-1.8551,-1.7866,-1.7812,0.0,0.0,0.0,0.0,0.0,0.0,0.0,0.0,0.0,0.0,0.0,0.0,0.0,-1.8495,-1.8495,-1.8495,-1.8688,-1.9549,-2.0286,-2.1346,-2.3627,-2.4652,-2.5472,-2.6905,-2.8279,0.0,-3.0213,0.0,0.0,0.0,0.0,0.0,0.0,0.0,0.0,0.0,0.0,0.0,0.0,0.0,0.0,0.0,0.0,0.0,0.0,0.0,0.0,-4.3342,-4.3174,-4.2929,-4.2602,-4.2571,-4.2381,-4.2077,-4.1753,-4.1321,-4.0842,-4.1267,-4.1781,-4.2334,-4.2773,-4.3312,-4.3949,-4.3729,-4.3651,-4.3596,-4.3155,-4.2996,-4.2955,-4.2769,-4.2688,-4.2688,-4.2648,-4.2541,-4.2392,0.0,0.0,0.0,0.0,0.0,0.0,0.0,0.0,0.0,0.0,0.0,0.0,0.0,0.0,0.0,0.0,0.0,0.0,0.0,0.0,-0.8939,-1.0828,-1.1469,-1.2656,-1.4535,-1.5785,-1.7728,-2.0388,-2.097,-2.1578,-2.2193,-2.1906,-2.1341,-2.0597,-2.0299,-1.9741,-1.9026,-1.9053,-1.8591,-1.7814,-1.7315,-1.6457,0.0,0.0,0.0,0.0,0.0,0.0,0.0,0.0,-1.6381,-1.6905,-1.7692,-1.7894,-1.7973,-1.8441,-1.8553,-1.8851,-2.009,-2.0624,-2.1481,-2.4239,-2.5467,0.0,0.0,-2.9659,-3.1217,-3.2031,-3.3341,0.0,0.0,0.0,0.0,0.0,0.0,0.0,0.0,0.0,0.0,0.0,0.0,0.0,0.0,0.0,0.0,0.0,0.0,0.0,0.0,-4.3462,-4.3281,-4.2929,-4.2728,-4.2539,-4.2397,-4.2077,-4.172,-4.129,-4.1283,-4.1453,-4.1812,-4.2414,-4.2938,-4.3396,-4.3728,-4.3871,-4.3871,-4.3542,-4.3423,-4.3384,-4.305,-4.2875,-4.2875,-4.2729,-4.2648,-4.2581,0.0,0.0,0.0,0.0,0.0,0.0,0.0,0.0,0.0,0.0,0.0,0.0,0.0,0.0,0.0,0.0,0.0,0.0,0.0,-0.7466,-0.8585,-1.0443,-1.1359,-1.2544,-1.4168,-1.5475,-1.7294,-1.9647,-2.0782,-2.1354,-2.1392,-2.113,-2.0752,-2.0246,-1.9993,-1.9603,-1.9111,-1.8858,-1.8296,-1.748,-1.6657,-1.5845,0.0,0.0,0.0,0.0,0.0,0.0,0.0,0.0,-1.5579,-1.6149,-1.6904,-1.7312,-1.7595,-1.8099,-1.8425,-1.8872,-2.0167,-2.0664,-2.1521,-2.4361,0.0,0.0,-2.9104,-3.0959,-3.2677,-3.3981,-3.5356,-3.6684,-3.7851,0.0,0.0,0.0,0.0,0.0,0.0,0.0,0.0,0.0,0.0,0.0,0.0,0.0,0.0,0.0,0.0,0.0,0.0,-4.3717,-4.3568,-4.3265,-4.299,-4.279,-4.2696,-4.2397,-4.2109,-4.1851,-4.1554,-4.1513,-4.1681,-4.216,-4.2565,-4.2945,-4.3327,-4.3625,-4.3746,-4.3553,-4.3611,-4.3754,-4.3369,-4.321,-4.321,-4.297,-4.285,-4.2765,0.0,0.0,0.0,0.0,0.0,0.0,0.0,0.0,0.0,0.0,0.0,0.0,0.0,0.0,0.0,0.0,0.0,0.0,-0.6907,-0.7003,-0.8081,-1.0479,-1.135,-1.2538,-1.4141,-1.4986,-1.6545,-1.8887,-2.0544,-2.1442,-2.1553,-2.0751,-2.0378,-2.0342,-1.9549,-1.9211,-1.9148,-1.8333,-1.7536,-1.6718,-1.5852,-1.5017,-1.4293,0.0,0.0,0.0,0.0,0.0,0.0,0.0,-1.5236,-1.5333,-1.6139,-1.6895,-1.7471,-1.7498,-1.8028,-1.8744,-1.9507,-2.0298,-2.1467,0.0,0.0,0.0,-3.0685,-3.2267,-3.3901,-3.6255,-3.7835,-3.9005,-3.96,0.0,0.0,0.0,0.0,0.0,0.0,0.0,0.0,0.0,0.0,0.0,0.0,0.0,0.0,0.0,0.0,0.0,0.0,-4.3985,-4.3793,-4.3628,-4.3462,-4.3221,-4.2899,-4.2696,-4.2539,-4.2413,-4.2206,-4.2117,-4.2084,-4.2084,-4.2354,-4.2777,-4.2576,-4.283,-4.3273,-4.3099,-4.3365,-4.3972,-4.3738,-4.366,-4.366,-4.3354,-4.314,-4.2877,0.0,0.0,0.0,0.0,0.0,0.0,0.0,0.0,0.0,0.0,0.0,0.0,0.0,0.0,0.0,0.0,0.0,0.0,-0.6973,-0.7069,-0.7891,-0.9749,-1.0604,-1.1507,-1.257,-1.4531,-1.6134,-1.7351,-1.8455,-1.9022,-1.9073,-1.9393,-1.9549,-1.9549,-1.932,-1.9211,-1.9156,-1.8346,-1.7537,-1.6729,-1.5901,-1.5088,-1.4367,0.0,0.0,0.0,0.0,0.0,0.0,0.0,0.0,0.0,-1.5376,-1.5778,-1.6179,-1.7256,-1.7684,-1.8234,-2.0167,-2.1167,0.0,-2.5257,0.0,0.0,0.0,-3.393,0.0,0.0,-3.9829,-4.0532,-4.0735,0.0,0.0,0.0,0.0,0.0,0.0,0.0,0.0,0.0,0.0,0.0,0.0,0.0,0.0,0.0,0.0,0.0,0.0,-4.4196,-4.4126,-4.3952,-4.3671,-4.3509,-4.3372,-4.3082,-4.2805,-4.2539,-4.2476,-4.2221,-4.1754,-4.2241,-4.2401,-4.2307,-4.2718,-4.2937,-4.2921,-4.2643,-4.2491,-4.2508,-4.247,-4.2433,-4.2395,-4.2235,-4.2136,-4.2053,0.0,0.0,0.0,0.0,0.0,0.0,0.0,0.0,0.0,0.0,0.0,0.0,0.0,0.0,0.0,0.0,0.0,0.0,0.0,0.0,-0.7817,-0.9429,-1.0263,-1.1101,-1.1918,-1.3409,-1.4551,-1.5302,-1.6819,-1.7724,-1.8042,-1.8535,-1.893,-1.9248,-1.9248,-1.9065,-1.871,-1.7899,-1.7088,-1.6285,-1.5456,-1.4836,-1.4405,0.0,0.0,0.0,0.0,0.0,0.0,0.0,0.0,0.0,-1.4577,-1.5041,-1.5477,-1.6405,-1.7094,-1.7995,-2.0048,-2.1345,0.0,-2.5972,-2.81,-3.0517,-3.457,0.0,0.0,0.0,0.0,-4.1255,0.0,0.0,0.0,0.0,0.0,0.0,0.0,0.0,0.0,0.0,0.0,0.0,0.0,0.0,0.0,0.0,0.0,0.0,0.0,-4.4406,-4.4321,-4.4167,-4.3923,-4.3747,-4.3598,-4.3402,-4.3113,-4.2805,-4.2759,-4.2476,-4.1996,-4.223,-4.2153,-4.1915,-4.2481,-4.2622,-4.2512,-4.252,-4.2395,-4.2233,-4.2101,-4.2065,-4.2028,-4.1857,-4.1798,-4.1715,0.0,0.0,0.0,0.0,0.0,0.0,0.0,0.0,0.0,0.0,0.0,0.0,0.0,0.0,0.0,0.0,0.0,0.0,0.0,0.0,-0.7824,-0.9436,-1.0272,-1.1075,-1.1863,-1.1963,-1.2404,-1.3216,-1.5532,-1.7133,-1.8005,-1.806,-1.8544,-1.9323,-1.9323,-1.8864,-1.8067,-1.725,-1.6437,-1.5637,-1.477,-1.4405,-1.4399,-1.4314,0.0,0.0,0.0,0.0,0.0,0.0,0.0,0.0,-1.3757,-1.4495,-1.5127,-1.5263,-1.6334,-1.7843,-1.9471,-2.1078,0.0,-2.6154,-2.885,0.0,-3.7138,-3.8818,-3.955,-4.0302,0.0,0.0,0.0,0.0,0.0,0.0,0.0,0.0,0.0,0.0,0.0,0.0,0.0,0.0,0.0,0.0,0.0,0.0,0.0,0.0,0.0,0.0,-4.4463,-4.4367,-4.4212,-4.3981,-4.3658,-4.3628,-4.3462,-4.3143,-4.3007,-4.2821,-4.2602,-4.2141,-4.1817,-4.162,-4.193,-4.2025,-4.2037,-4.2466,-4.2643,-4.2571,-4.2262,-4.2169,-4.2096,-4.1845,-4.1756,-4.168,0.0,0.0,0.0,0.0,0.0,0.0,0.0,0.0,0.0,0.0,0.0,0.0,0.0,0.0,0.0,0.0,0.0,0.0,0.0,0.0,-0.7834,-0.9506,-1.0357,-1.0876,-1.1045,-1.1723,-1.2463,-1.3272,-1.4438,-1.5772,-1.7244,-1.787,-1.8646,-1.9461,-1.9461,-1.8981,-1.8137,-1.732,-1.6503,-1.5705,-1.4829,-1.4476,-1.4397,-1.3718,-1.3423,0.0,0.0,0.0,0.0,0.0,0.0,0.0,-1.2974,-1.3357,-1.3728,-1.4942,-1.5972,-1.7216,-1.9386,-2.1537,0.0,0.0,-3.0918,-3.4447,-3.6198,-3.8123,-3.9941,-4.135,0.0,0.0,0.0,0.0,0.0,0.0,0.0,0.0,0.0,0.0,0.0,0.0,0.0,0.0,0.0,0.0,0.0,0.0,0.0,0.0,0.0,0.0,-4.4703,-4.4692,-4.4395,-4.4224,-4.4167,-4.3939,-4.3734,0.0,-4.3358,-4.3129,-4.2837,-4.2445,-4.2141,-4.1833,-4.1762,-4.161,-4.1458,-4.1476,-4.1351,-4.1233,-4.1129,-4.104,-4.0865,-4.0689,-4.0654,-4.0603,0.0,0.0,0.0,0.0,0.0,0.0,0.0,0.0,0.0,0.0,0.0,0.0,0.0,0.0,0.0,0.0,0.0,0.0,0.0,0.0,0.0,-0.9528,-1.0029,-1.0274,-1.0268,-1.0719,-1.1359,-1.2142,-1.2993,-1.4637,-1.7013,-1.7425,-1.8306,-1.9509,-1.9509,-1.88,-1.7604,-1.718,-1.6313,-1.5193,-1.474,-1.4294,-1.3892,-1.3426,-1.2975,-1.2471,-1.1654,0.0,0.0,0.0,0.0,0.0,0.0,0.0,-1.2657,-1.3847,-1.4741,-1.5865,-1.8253,0.0,0.0,-2.8101,0.0,-3.4959,-3.6469,-3.805,-3.9667,0.0,0.0,0.0,0.0,0.0,0.0,0.0,0.0,0.0,0.0,0.0,0.0,0.0,0.0,0.0,0.0,0.0,0.0,0.0,0.0,0.0,0.0,-4.4502,-4.4565,-4.4803,-4.4637,-4.4452,-4.431,-4.4155,-4.3952,-4.3734,-4.3568,-4.3298,-4.2899,-4.2539,-4.2254,-4.198,-4.1817,-4.1686,-4.1571,-4.1321,-4.1138,-4.1021,-4.0984,-4.0814,-4.0627,-4.0574,-4.047,-4.0366,0.0,0.0,0.0,0.0,0.0,0.0,0.0,0.0,0.0,0.0,0.0,0.0,0.0,0.0,0.0,0.0,0.0,0.0,0.0,0.0,0.0,-0.9557,-0.968,-0.9703,-0.9699,-0.9717,-1.0109,-1.0924,-1.1786,0.0,0.0,0.0,0.0,-1.9523,-1.9523,-1.8592,-1.7015,-1.7015,-1.6097,-1.4629,-1.4605,-1.4164,-1.3511,-1.3356,-1.2842,-1.2093,-1.1145,-1.0767,-1.0694,-1.0561,0.0,0.0,0.0,0.0,-1.1765,-1.2579,-1.3429,-1.4609,-1.689,0.0,-2.3057,-2.8558,-3.1844,0.0,-3.6345,-3.7774,0.0,0.0,0.0,0.0,0.0,0.0,0.0,0.0,0.0,0.0,0.0,0.0,0.0,0.0,0.0,0.0,0.0,0.0,0.0,0.0,0.0,0.0,-4.3933,-4.3924,-4.4059,-4.4477,-4.4575,-4.4489,-4.4193,-4.4282,-4.4196,-4.3985,-4.3717,-4.3388,-4.2961,-4.2634,-4.2365,-4.2142,-4.2012,-4.1963,-4.1866,-4.1538,-4.1357,-4.129,-4.1187,-4.1018,-4.0833,-4.0833,-4.073,-4.0558,0.0,0.0,0.0,0.0,0.0,0.0,0.0,0.0,0.0,0.0,0.0,0.0,0.0,0.0,0.0,0.0,0.0,0.0,-0.5955,0.0,0.0,-0.9647,-0.9688,-0.9699,-0.9702,-0.975,-1.018,-1.099,0.0,0.0,0.0,0.0,0.0,-1.9595,0.0,-1.866,-1.7083,-1.7083,-1.6156,-1.4672,-1.4614,-1.4529,-1.4333,-1.359,-1.3222,-1.2921,-1.1352,-1.0785,-1.0676,-0.9982,-0.9702,0.0,0.0,0.0,-1.0996,-1.1812,-1.3052,-1.454,0.0,0.0,-2.4843,0.0,-2.9932,-3.246,0.0,0.0,0.0,0.0,0.0,0.0,0.0,0.0,0.0,0.0,0.0,0.0,0.0,0.0,0.0,0.0,0.0,0.0,0.0,0.0,0.0,0.0,0.0,0.0,-4.3393,-4.3192,-4.3091,-4.3151,-4.3732,-4.3914,-4.3719,-4.4209,-4.4406,-4.4253,-4.3805,-4.3509,-4.3312,-4.2992,-4.2665,-4.2349,-4.2349,-4.2174,-4.1898,-4.1833,-4.1604,-4.129,-4.129,-4.1187,-4.1068,-4.1068,-4.0916,-4.0765,0.0,0.0,0.0,0.0,0.0,0.0,0.0,0.0,0.0,0.0,0.0,0.0,0.0,0.0,0.0,-0.4853,-0.4853,-0.5204,-0.6002,-0.6746,-0.7726,-0.8973,-0.903,-0.9266,-0.975,-0.9783,-0.9979,-1.0324,0.0,0.0,0.0,-1.6338,-1.8025,0.0,0.0,0.0,0.0,-1.7361,-1.6485,-1.5386,-1.4863,-1.4401,-1.394,-1.352,-1.3055,-1.2537,-1.1783,-1.1535,-1.1465,-1.1077,-1.0635,-1.029,-1.0644,0.0,0.0,0.0,-1.1703,-1.2872,-1.5774,-1.9641,-2.3318,0.0,-2.8236,-3.0927,-3.2149,0.0,0.0,0.0,0.0,0.0,0.0,0.0,0.0,0.0,0.0,0.0,0.0,0.0,0.0,0.0,0.0,0.0,0.0,0.0,0.0,0.0,0.0,-4.2315,-4.2766,-4.2614,-4.2657,-4.3012,-4.3229,-4.3271,-4.3096,-4.3287,-4.3267,-4.3065,-4.2705,-4.2448,-4.227,-4.2052,-4.2225,-4.2649,-4.2041,-4.1691,-4.1517,-4.0944,-4.0626,-4.0451,-4.0323,-4.0209,-4.0094,-4.0094,-3.9964,-3.9784,0.0,0.0,0.0,0.0,0.0,0.0,0.0,0.0,0.0,0.0,0.0,0.0,0.0,0.0,0.0,0.0,-0.5353,-0.5482,-0.6054,-0.6091,-0.673,-0.8138,-0.8187,-0.8495,-0.915,-0.9374,-0.9502,0.0,0.0,0.0,-1.3561,-1.5833,-1.7757,0.0,-1.9586,-1.9245,0.0,0.0,0.0,0.0,-1.5604,-1.4987,-1.4426,-1.4367,-1.3932,-1.3332,-1.3117,-1.3036,-1.2937,-1.2485,-1.1912,-1.1332,-1.0927,-1.0349,0.0,0.0,0.0,0.0,0.0,0.0,-2.0981,-2.3376,-2.6201,-2.8896,0.0,0.0,0.0,0.0,0.0,0.0,0.0,0.0,0.0,0.0,0.0,0.0,0.0,0.0,0.0,0.0,0.0,0.0,0.0,0.0,0.0,0.0,0.0,-4.1516,-4.2126,-4.2026,-4.2144,-4.26,-4.2684,-4.2661,-4.2509,-4.256,-4.2409,-4.2159,-4.1948,-4.1711,-4.1453,-4.1328,-4.169,-4.2421,-4.1517,-4.1137,-4.1044,-4.0254,-3.9892,-3.983,-3.9659,-3.9503,-3.944,-3.9361,-3.9219,-3.9075,0.0,0.0,0.0,0.0,0.0,0.0,0.0,0.0,0.0,0.0,0.0,0.0,-0.7176,-0.7272,-0.7272,-0.7272,-0.6568,-0.612,-0.6095,-0.6095,-0.6476,-0.7327,-0.7364,0.0,-0.742,-0.8243,0.0,0.0,0.0,0.0,-1.3542,-1.5271,-1.6948,-1.8584,-1.9369,-1.9245,-1.8509,0.0,0.0,0.0,0.0,0.0,0.0,0.0,0.0,0.0,0.0,-1.5563,-1.5282,-1.3754,-1.3154,-1.2816,-1.1277,-1.0776,-1.0581,0.0,0.0,0.0,0.0,-1.6164,0.0,-2.1051,0.0,0.0,0.0,0.0,0.0,0.0,0.0,0.0,0.0,0.0,0.0,0.0,0.0,0.0,0.0,0.0,0.0,0.0,0.0,0.0,0.0,0.0,0.0,0.0,0.0,-4.142,-4.1455,-4.1324,-4.1256,-4.1308,-4.1897,-4.2175,-4.2046,-4.2466,-4.2541,-4.2284,-4.2284,-4.2041,-4.1688,-4.147,-4.1361,-4.1272,-4.0887,-4.0651,-4.0534,-4.0351,-4.0168,-3.9984,-3.983,-3.9768,-3.9737,-3.955,-3.9393,-3.9282,0.0,0.0,0.0,0.0,0.0,0.0,0.0,0.0,0.0,0.0,0.0,0.0,0.0,-0.7404,-0.7404,-0.7404,-0.7144,-0.6749,-0.6197,-0.6118,-0.6224,-0.6515,-0.6538,-0.6773,-0.7292,-0.7651,0.0,0.0,0.0,-1.118,-1.284,-1.4476,-1.585,-1.7047,-1.8938,-1.9601,-1.9307,-1.8745,0.0,0.0,0.0,0.0,0.0,0.0,0.0,0.0,0.0,0.0,0.0,-1.6637,-1.5362,-1.3935,-1.3362,-1.2076,-1.0622,-0.9756,0.0,0.0,0.0,0.0,0.0,-1.9359,-2.1759,0.0,0.0,0.0,0.0,0.0,0.0,0.0,0.0,0.0,0.0,0.0,0.0,0.0,0.0,0.0,0.0,0.0,0.0,0.0,0.0,0.0,0.0,0.0,0.0,0.0,-4.1648,-4.1453,-4.1318,-4.1318,-4.1464,-4.1481,-4.1302,-4.1446,-4.1412,-4.1137,-4.0959,-4.0805,-4.0666,-4.0411,-4.0224,-4.0094,-3.9886,-3.987,-3.9933,-3.9334,-3.8995,-3.8849,-3.8656,-3.8537,-3.8448,-3.8388,-3.8267,-3.8132,0.0,0.0,0.0,0.0,0.0,0.0,0.0,0.0,0.0,0.0,0.0,0.0,0.0,0.0,-0.8138,-0.7852,-0.7833,-0.7381,-0.6265,-0.6162,-0.6008,-0.5708,-0.569,-0.5942,-0.6485,0.0,0.0,0.0,0.0,0.0,0.0,-1.3662,-1.4874,-1.5795,-1.8014,-1.9136,0.0,0.0,0.0,-1.8899,0.0,0.0,-1.9338,0.0,0.0,0.0,0.0,0.0,0.0,0.0,0.0,-1.6004,0.0,0.0,0.0,0.0,0.0,0.0,-1.2332,0.0,0.0,0.0,0.0,0.0,0.0,0.0,0.0,0.0,0.0,0.0,0.0,0.0,0.0,0.0,0.0,0.0,0.0,0.0,0.0,0.0,0.0,0.0,0.0,0.0,0.0,0.0,0.0,0.0,-4.1068,-4.0879,-4.0872,-4.1046,-4.0956,-4.092,-4.0995,-4.0982,-4.0864,-4.0631,-4.0412,-4.0238,-4.0096,-3.9935,-3.9729,-3.9563,-3.9484,-3.9456,-3.9413,-3.8783,-3.8448,-3.8323,-3.8135,-3.7992,-3.7847,-3.773,-3.7642,-3.7569,0.0,0.0,0.0,0.0,0.0,0.0,0.0,0.0,0.0,-0.8569,0.0,0.0,0.0,0.0,0.0,-0.8843,-0.8765,-0.8052,-0.6377,-0.6249,-0.5846,-0.4968,-0.4912,-0.4892,-0.4894,0.0,0.0,0.0,0.0,0.0,0.0,0.0,-1.407,-1.4904,-1.6578,-1.7766,-1.854,0.0,-1.9762,-1.9831,0.0,-2.1033,-2.1255,0.0,0.0,0.0,-2.4223,-2.3948,0.0,0.0,0.0,0.0,0.0,0.0,0.0,0.0,0.0,0.0,0.0,0.0,0.0,0.0,0.0,0.0,0.0,0.0,0.0,0.0,0.0,0.0,0.0,0.0,0.0,0.0,0.0,0.0,0.0,0.0,0.0,0.0,0.0,0.0,0.0,0.0,0.0,0.0,0.0,-3.9615,-3.9615,-3.9595,-3.9829,-4.0354,-4.032,-4.0577,-4.1174,-4.1111,-4.1029,-4.0894,-4.0769,-4.0485,-4.0138,-4.0096,-3.9961,-3.9703,-3.9703,-3.9451,-3.9023,-3.8887,-3.8738,-3.8588,-3.8448,-3.8307,-3.818,-3.7847,-3.77,-3.7671,0.0,0.0,0.0,0.0,0.0,0.0,0.0,0.0,0.0,0.0,0.0,0.0,-1.1674,-1.1711,-1.1366,-1.051,-1.0435,-0.9741,-0.8108,-0.7418,-0.67,-0.5884,-0.5232,-0.4906,-0.4894,0.0,0.0,0.0,0.0,0.0,0.0,0.0,0.0,0.0,-1.4846,-1.5747,-1.6124,-1.8097,0.0,0.0,-2.049,-2.1767,0.0,0.0,0.0,0.0,0.0,-2.569,0.0,0.0,-2.2557,-2.0602,0.0,0.0,0.0,0.0,0.0,0.0,-1.255,0.0,0.0,0.0,0.0,0.0,0.0,0.0,0.0,0.0,0.0,0.0,0.0,0.0,0.0,0.0,0.0,0.0,0.0,0.0,0.0,0.0,0.0,0.0,0.0,0.0,0.0,0.0,-3.9893,-3.9795,-3.9751,-3.9636,-3.964,-3.9746,-3.9743,-3.9985,-4.0542,-4.0533,-4.0699,-4.1047,-4.0912,-4.0745,-4.051,-4.0436,-4.0246,-3.9995,-3.9995,-3.9807,-3.9478,-3.9255,-3.8985,-3.8738,-3.8588,-3.8448,-3.8323,-3.8135,-3.7963,-3.7847,0.0,0.0,0.0,0.0,0.0,0.0,0.0,0.0,0.0,0.0,0.0,0.0,-1.2869,-1.2906,-1.2696,-1.2185,-1.1847,-1.0949,-0.9315,-0.8732,-0.7916,-0.6746,-0.5871,-0.5417,-0.5446,0.0,0.0,0.0,0.0,0.0,0.0,0.0,0.0,0.0,0.0,0.0,0.0,0.0,0.0,0.0,-2.081,0.0,0.0,-2.5148,-2.6689,0.0,0.0,0.0,-2.7101,-2.6608,-2.4607,0.0,0.0,0.0,0.0,0.0,0.0,0.0,0.0,0.0,0.0,0.0,0.0,0.0,-2.0112,-2.1621,0.0,0.0,0.0,0.0,0.0,0.0,0.0,0.0,0.0,0.0,0.0,0.0,0.0,0.0,0.0,0.0,0.0,0.0,0.0,-3.8689,-3.8903,-3.9007,-3.893,-3.8817,-3.888,-3.9118,-3.9055,-3.9303,-3.9968,-3.9861,-3.9962,-4.0259,-4.0412,-4.0405,-4.0281,-4.0494,-4.0461,-4.0288,-4.0288,-4.0121,-3.9841,-3.9703,-3.9388,-3.9013,-3.892,-3.8727,-3.8464,-3.8335,-3.8164,-3.802,0.0,0.0,0.0,0.0,0.0,0.0,0.0,0.0,0.0,0.0,-1.2835,-1.3226,-1.3931,-1.4006,-1.3968,-1.3893,-1.3132,-1.2008,-1.0408,-1.0056,-0.9236,-0.7748,-0.6761,-0.628,-0.6325,-0.5578,0.0,0.0,0.0,0.0,0.0,0.0,0.0,0.0,0.0,0.0,0.0,0.0,0.0,-1.8782,-2.1205,-2.2773,0.0,0.0,-2.8212,0.0,-3.0478,-3.0261,-2.9636,-2.9381,-2.6622,0.0,0.0,0.0,0.0,0.0,-1.6001,0.0,0.0,0.0,0.0,0.0,0.0,0.0,-2.0018,-2.0437,-2.0933,0.0,0.0,0.0,0.0,0.0,0.0,0.0,0.0,0.0,0.0,0.0,0.0,0.0,0.0,0.0,0.0,-3.6335,-3.6669,-3.6602,-3.7234,-3.763,-3.7596,-3.7524,-3.779,-3.8461,-3.8304,-3.8574,-3.9367,-3.9143,-3.9035,-3.914,-3.9581,-3.9749,-3.9629,-4.0225,-4.0415,-4.0278,-4.0278,-4.0131,-3.9884,-3.9884,-3.9664,-3.9352,-3.9299,-3.9056,-3.8644,-3.8423,-3.825,-3.8092,-0.836,0.0,0.0,0.0,0.0,0.0,0.0,0.0,0.0,0.0,-1.5503,-1.6404,-1.6549,-1.6586,-1.6329,-1.5663,-1.4827,-1.3918,-1.2934,-1.1004,-0.976,-0.9423,-0.7954,-0.7147,-0.7158,-0.6991,0.0,0.0,0.0,0.0,0.0,0.0,0.0,0.0,0.0,0.0,0.0,0.0,0.0,-1.7951,-2.041,0.0,-2.476,-2.6578,-2.8641,-3.0571,-3.0679,-3.1001,-3.1201,0.0,-2.7431,-2.4894,0.0,0.0,0.0,0.0,0.0,0.0,0.0,0.0,0.0,0.0,0.0,0.0,-1.93,-2.0042,-2.0594,0.0,0.0,0.0,0.0,0.0,0.0,0.0,0.0,0.0,0.0,0.0,0.0,0.0,0.0,0.0,0.0,-3.6004,-3.6035,-3.5901,-3.5951,-3.6246,-3.6858,-3.6789,-3.7059,-3.7772,-3.766,-3.7919,-3.86,-3.8498,-3.8731,-3.9263,-3.9276,-3.9177,-3.9063,-3.918,-3.9155,-3.8969,-3.8969,-3.8814,-3.8587,-3.8587,-3.8988,-3.9599,-3.9379,-3.9245,-3.9071,-3.815,-3.7829,-3.772,-0.9244,0.0,0.0,0.0,0.0,0.0,0.0,0.0,0.0,-1.6035,-1.7525,-1.8692,-1.9094,-1.915,-1.8981,-1.8574,-1.7385,-1.63,-1.5497,-1.3506,-1.215,-1.1719,-0.9741,-0.8644,-0.8649,-0.7865,-0.7668,0.0,0.0,0.0,0.0,0.0,0.0,0.0,0.0,0.0,0.0,0.0,-1.5974,-1.7728,-2.0201,0.0,-2.5023,-2.6666,-2.9062,-3.1494,-3.1414,-3.1611,-3.1629,-2.9925,-2.8221,0.0,0.0,-2.4063,-2.2876,0.0,-2.0844,-1.9833,0.0,0.0,0.0,-1.9776,0.0,0.0,0.0,-2.0217,-2.0401,0.0,0.0,0.0,0.0,0.0,0.0,0.0,0.0,0.0,0.0,0.0,0.0,0.0,0.0,0.0,0.0,-3.396,-3.4451,-3.5203,-3.5152,-3.5417,-3.6163,-3.6116,-3.6392,-3.713,-3.6988,-3.7252,-3.7979,-3.7881,-3.7939,-3.8207,-3.8474,-3.8562,-3.8471,-3.8773,-3.8842,-3.8767,-3.8767,-3.8634,-3.8391,-3.8391,-3.8628,-3.893,-3.8673,-3.8394,-3.8086,-3.755,-3.7272,-3.7118,-0.9903,0.0,0.0,0.0,0.0,0.0,0.0,0.0,0.0,-1.796,-1.9516,-2.0766,-2.141,0.0,0.0,0.0,-2.0183,-1.895,0.0,0.0,0.0,-1.427,-1.191,-1.0626,-1.0628,-0.9034,-0.8218,0.0,0.0,0.0,0.0,0.0,0.0,0.0,0.0,0.0,0.0,0.0,0.0,-1.7937,0.0,-2.2691,-2.509,-2.6701,-2.9239,-3.1985,-3.2083,-3.1904,-3.1464,-3.0108,0.0,-2.8073,-2.6561,-2.5606,0.0,0.0,0.0,0.0,0.0,0.0,0.0,0.0,0.0,-2.1559,0.0,0.0,0.0,0.0,0.0,0.0,0.0,0.0,0.0,0.0,0.0,0.0,0.0,0.0,0.0,0.0,0.0,0.0,0.0,-3.1524,-3.2548,-3.3992,-3.4062,-3.4403,-3.5253,-3.5198,-3.557,-3.6476,-3.6325,-3.6541,-3.7167,-3.7145,-3.7066,-3.6954,-3.7631,-3.7918,-3.7869,-3.8342,-3.8558,-3.8537,-3.8516,-3.8404,-3.8242,-3.8242,-3.8092,-3.7826,-3.7814,-3.7532,-3.712,-3.6937,-3.6736,-3.6525,-0.9903,-1.0555,0.0,0.0,0.0,0.0,0.0,0.0,0.0,-2.0383,-2.2077,0.0,0.0,0.0,0.0,0.0,0.0,0.0,-2.165,0.0,0.0,0.0,0.0,0.0,-1.3274,-1.1637,-1.0788,-1.078,0.0,0.0,0.0,0.0,0.0,0.0,-1.1256,0.0,0.0,0.0,-1.6372,0.0,-2.0494,-2.2691,0.0,-2.6687,-2.8889,-3.1224,-3.1877,-3.1551,-3.0816,0.0,-2.9969,-2.9074,0.0,-2.7746,0.0,0.0,0.0,0.0,0.0,0.0,0.0,0.0,-2.1785,0.0,0.0,0.0,-2.0466,0.0,0.0,0.0,0.0,0.0,0.0,0.0,0.0,0.0,0.0,0.0,0.0,0.0,0.0,0.0,0.0,0.0,-3.0721,-3.1545,-3.1604,-3.2247,-3.3759,-3.3658,-3.4256,-3.5772,-3.5683,-3.5622,-3.5644,-3.6221,-3.6452,-3.6398,-3.7068,-3.74,-3.7381,-3.7318,-3.7275,-3.7211,-3.7073,-3.6989,-3.6922,-3.6922,-3.6762,-3.6595,-3.7454,-3.7749,-3.761,-3.6772,-3.6458,-3.6334,-0.9903,-1.0963,0.0,0.0,0.0,0.0,0.0,0.0,0.0,-2.2292,0.0,0.0,0.0,0.0,0.0,0.0,0.0,-2.4917,0.0,0.0,0.0,0.0,0.0,0.0,0.0,-1.3481,-1.2409,-1.1958,-1.1105,0.0,0.0,0.0,0.0,0.0,-1.1834,0.0,-1.457,0.0,0.0,0.0,0.0,0.0,0.0,-2.6923,-2.8866,-3.1101,-3.1839,-3.1526,-3.0747,0.0,-3.0122,0.0,0.0,0.0,0.0,0.0,0.0,0.0,0.0,0.0,0.0,0.0,0.0,0.0,-2.272,0.0,-2.1822,0.0,0.0,0.0,0.0,0.0,0.0,0.0,0.0,0.0,0.0,0.0,0.0,0.0,0.0,0.0,0.0,0.0,0.0,0.0,-2.9246,-2.9905,-3.1488,-3.1442,-3.2323,-3.4359,-3.4295,-3.4634,-3.5524,-3.5766,-3.604,-3.6364,-3.663,-3.6965,-3.7297,-3.7239,-3.7184,-3.7163,-3.7124,-3.7007,-3.6869,-3.6869,-3.6728,-3.6572,-3.6917,-3.687,-3.6564,-3.6099,-3.5883,-3.5763,-1.0583,0.0,0.0,0.0,0.0,0.0,0.0,0.0,0.0,0.0,0.0,0.0,-2.7739,-2.8791,0.0,0.0,0.0,-2.7947,0.0,0.0,-2.3622,0.0,0.0,0.0,0.0,0.0,0.0,-1.3197,-1.2299,0.0,0.0,0.0,0.0,0.0,0.0,-1.3821,-1.5476,0.0,0.0,-2.0497,-2.2191,-2.4346,-2.6671,-2.768,-2.9156,-3.0706,-3.125,-3.1033,-3.0526,-3.0672,-3.0155,0.0,-2.9694,0.0,0.0,0.0,0.0,0.0,-2.7224,0.0,0.0,0.0,0.0,0.0,0.0,0.0,0.0,0.0,0.0,0.0,0.0,0.0,0.0,0.0,0.0,0.0,0.0,0.0,0.0,0.0,0.0,0.0,0.0,0.0,0.0,-2.6853,-2.7077,-2.7758,-2.9068,-2.9509,-3.0597,-3.2511,-3.2885,-3.3577,-3.4661,-3.5065,-3.5457,-3.5827,-3.6059,-3.6381,-3.6807,-3.6983,-3.7053,-3.7052,-3.7227,-3.722,-3.7085,-3.7085,-3.6968,-3.6766,-3.6667,-3.6398,-3.6014,-3.5822,-3.5689,-3.556,-1.2316,-1.2362,0.0,0.0,0.0,0.0,0.0,0.0,0.0,0.0,0.0,0.0,0.0,0.0,0.0,0.0,0.0,-3.0762,-3.0743,0.0,-2.7035,0.0,0.0,-2.1763,0.0,0.0,0.0,-1.4923,-1.4047,-1.322,0.0,0.0,0.0,0.0,0.0,-1.4698,-1.6361,-1.8055,-1.9725,-2.1403,-2.3075,-2.5239,-2.7638,0.0,-2.9787,-2.9746,-2.9765,0.0,0.0,-3.0563,-3.0263,0.0,0.0,0.0,0.0,0.0,0.0,0.0,0.0,0.0,0.0,-2.6982,0.0,0.0,0.0,0.0,-2.3093,0.0,0.0,0.0,0.0,0.0,0.0,-2.0752,0.0,0.0,0.0,0.0,0.0,0.0,0.0,0.0,0.0,0.0,0.0,-2.4349,-2.5133,-2.5906,-2.6665,-2.8202,-2.9392,-3.0179,-3.1649,-3.2379,-3.2306,-3.3849,-3.455,-3.4379,-3.5168,-3.5545,-3.5582,-3.6166,-3.6417,-3.6453,-3.7053,-3.7314,-3.7278,-3.7278,-3.7163,-3.6987,-3.6987,-3.6866,-3.664,-3.631,-3.6101,-3.5975,0.0,0.0,0.0,0.0,0.0,0.0,0.0,-2.1699,0.0,0.0,0.0,0.0,0.0,0.0,-3.3531,0.0,0.0,-3.3118,-3.2582,-3.0763,0.0,0.0,0.0,-2.4974,0.0,0.0,0.0,-1.7449,-1.5506,-1.4418,0.0,0.0,0.0,0.0,0.0,-1.559,0.0,0.0,0.0,0.0,0.0,-2.708,-2.84,0.0,0.0,-2.9815,-2.9735,-2.9699,0.0,-3.0593,-3.0667,-3.0544,-3.1366,-3.142,-3.1146,-3.1125,-3.1125,0.0,0.0,0.0,-2.9483,-2.8077,0.0,0.0,0.0,0.0,0.0,0.0,0.0,0.0,0.0,0.0,0.0,-2.0882,0.0,0.0,0.0,0.0,0.0,0.0,0.0,0.0,0.0,0.0,0.0,-2.2695,-2.2953,-2.3693,0.0,-2.5563,-2.6917,-2.93,-2.9832,-3.0815,-3.232,-3.2869,-3.3626,-3.4573,-3.4798,-3.5133,-3.5573,-3.5727,-3.5804,-3.584,-3.6488,-3.6756,-3.6737,-3.7179,-3.7298,-3.7201,-3.7201,-3.7087,-3.693,-3.6544,-3.6318,-3.6174,-1.4181,0.0,0.0,0.0,0.0,0.0,0.0,0.0,0.0,0.0,-2.8877,0.0,-3.2067,0.0,-3.4977,0.0,-3.5206,-3.5292,-3.4784,-3.3238,0.0,-3.2345,-2.9976,0.0,0.0,0.0,0.0,0.0,-1.7696,-1.6324,0.0,0.0,0.0,0.0,0.0,0.0,0.0,0.0,-2.1356,0.0,0.0,-2.7983,0.0,0.0,-2.9893,-2.9895,0.0,-2.9717,-2.9869,-3.095,-3.1099,-3.1042,-3.2204,-3.2314,-3.205,-3.2048,-3.2037,-3.1925,-3.1381,-3.12,0.0,-2.9443,-2.8824,0.0,-2.7481,0.0,0.0,0.0,0.0,0.0,0.0,0.0,0.0,0.0,-1.9843,0.0,0.0,-1.6218,0.0,0.0,0.0,0.0,0.0,0.0,-2.0359,-2.0596,-2.0911,-2.1655,0.0,0.0,-2.5335,-2.7684,-2.8546,-2.996,-3.2017,-3.2301,-3.3063,-3.4302,-3.4276,-3.4456,-3.4852,-3.5081,-3.5159,-3.5163,-3.5836,-3.6288,-3.6541,-3.697,-3.7272,-3.7429,-3.7428,-3.7317,-3.7166,-3.6811,-3.6568,-3.6423,0.0,0.0,0.0,0.0,-1.789,0.0,0.0,0.0,-2.5895,0.0,-3.0132,-3.207,-3.4349,-3.5446,-3.6329,-3.7091,-3.7224,0.0,-3.7258,-3.5805,0.0,0.0,-3.2562,-3.0471,-2.8761,0.0,0.0,0.0,0.0,0.0,0.0,0.0,0.0,0.0,-1.604,0.0,-1.7775,-2.0356,-2.1998,-2.3124,-2.6255,-2.8002,-2.8836,-2.9612,-2.9891,-2.9895,-2.9825,-2.9763,-2.9944,-3.1561,-3.1598,-3.125,-3.292,-3.2893,-3.2226,-3.2212,-3.2221,-3.221,-3.2094,-3.2064,-3.1867,-3.0997,0.0,0.0,0.0,0.0,-2.7065,0.0,0.0,0.0,0.0,0.0,0.0,0.0,0.0,0.0,0.0,0.0,0.0,0.0,0.0,0.0,0.0,-1.7065,-1.7405,-1.8184,-1.9045,0.0,0.0,0.0,-2.4644,-2.5429,-2.7759,-2.9717,-3.128,-3.2059,-3.2816,-3.3564,-3.3601,-3.3577,-3.3528,-3.4235,-3.4488,-3.4395,-3.5127,-3.5903,-3.6658,-3.6694,-3.711,-3.7703,-3.7631,-3.7522,-3.7339,-3.7089,-3.6869,-3.6702,-1.9262,-1.9687,-2.0314,0.0,-2.1004,-2.1494,0.0,0.0,0.0,0.0,-3.1948,-3.3978,-3.4537,-3.6441,-3.7798,-3.8044,-3.8075,0.0,0.0,0.0,0.0,-3.5785,-3.4586,-3.2862,-3.0589,-2.8313,0.0,-2.4017,0.0,0.0,-1.8137,0.0,0.0,0.0,0.0,0.0,-1.7814,-2.0962,-2.3847,-2.6383,-2.7219,-2.8385,0.0,0.0,-2.9907,-2.9899,-2.9876,-2.9834,-3.0027,-3.1628,-3.1993,-3.2086,-3.3757,-3.4132,-3.3963,-3.3953,-3.3971,-3.3811,-3.3218,-3.2999,-3.2772,-3.1946,-3.1522,-3.1117,0.0,0.0,0.0,0.0,0.0,0.0,0.0,0.0,0.0,0.0,0.0,0.0,0.0,0.0,0.0,-1.6405,0.0,0.0,0.0,-1.6664,-1.7139,-1.7386,-1.8165,0.0,0.0,0.0,0.0,-2.4644,-2.6408,-2.8101,-2.9738,-3.1097,-3.2144,-3.2939,-3.3451,-3.3657,-3.3647,-3.3738,-3.3756,-3.3763,-3.4408,-3.5139,-3.5915,-3.6477,-3.7162,-3.7864,-3.7828,-3.7381,-3.6774,-3.6992,-3.7009,-3.6908,-2.1457,0.0,0.0,-2.4892,0.0,0.0,-2.5729,0.0,0.0,-3.1054,-3.3272,0.0,-3.6104,-3.7455,-3.8462,-3.8886,-3.8952,0.0,0.0,0.0,0.0,-3.7265,-3.6092,-3.4643,-3.2861,-3.0379,0.0,-2.6084,0.0,0.0,-1.8769,0.0,0.0,0.0,0.0,-1.7603,0.0,-2.1173,-2.4547,-2.7606,-2.7606,0.0,0.0,-2.9897,-2.9897,-2.9888,-2.9891,-2.9876,-3.0033,-3.1261,-3.1872,-3.2369,-3.3673,-3.432,-3.4612,-3.4612,-3.4612,-3.4489,-3.4057,-3.3904,-3.3687,-3.287,-3.2622,-3.2347,-3.1495,-3.1287,-3.0903,0.0,0.0,0.0,0.0,0.0,0.0,0.0,0.0,0.0,0.0,0.0,0.0,0.0,0.0,0.0,0.0,0.0,-1.6497,0.0,0.0,0.0,0.0,0.0,0.0,-2.3818,-2.5403,-2.7196,-2.9229,-3.0768,-3.1918,-3.2704,-3.3448,-3.3766,-3.3698,-3.3615,-3.3577,-3.3553,-3.3887,-3.4495,-3.531,-3.6093,-3.6874,-3.7599,-3.7531,-3.7158,-3.6608,-3.6453,-3.6289,-3.6157,0.0,0.0,0.0,0.0,0.0,0.0,0.0,-2.9361,0.0,-3.3254,0.0,-3.5916,-3.8056,-3.8394,-3.877,-3.9545,0.0,-3.9701,-3.9712,-3.9183,-3.8803,-3.8709,-3.7211,-3.5893,-3.4927,-3.2482,0.0,0.0,0.0,0.0,0.0,0.0,0.0,0.0,0.0,0.0,0.0,-2.1612,-2.4737,0.0,-2.7702,-2.862,-2.9897,-2.9897,-2.9897,-2.9897,-2.9897,-2.9891,-3.0,-3.0762,-3.1478,-3.2212,-3.3131,-3.389,-3.4473,-3.4596,-3.4634,-3.4623,-3.4623,-3.4623,-3.4443,-3.3738,-3.3519,-3.3262,-3.2445,-3.2237,-3.1944,-3.1063,-3.0241,-2.9399,0.0,0.0,0.0,0.0,0.0,0.0,0.0,0.0,0.0,0.0,0.0,0.0,0.0,0.0,0.0,0.0,0.0,0.0,0.0,0.0,0.0,-2.298,-2.4708,-2.67,-2.896,0.0,-3.1832,-3.2576,-3.3373,-3.3737,-3.3726,-3.3712,-3.3657,-3.3601,-3.3605,-3.4061,-3.4849,-3.5556,-3.6322,-3.7036,-3.6912,-3.6727,-3.6448,-3.5681,-3.5194,-3.4887,0.0,0.0,0.0,0.0,0.0,-3.186,-3.312,-3.2997,-3.3148,-3.4256,-3.6291,-3.7831,-3.8263,-3.8939,-3.9463,-3.9662,-3.9703,0.0,0.0,0.0,0.0,-3.8727,-3.7742,-3.6462,-3.4927,-3.2482,-3.0313,0.0,0.0,0.0,0.0,0.0,0.0,0.0,0.0,0.0,-2.186,-2.3886,0.0,-2.7664,-2.8329,-2.9114,-2.9897,-2.9897,-2.9897,-2.9897,-2.9897,-2.9891,-3.0009,-3.0814,-3.1137,-3.1487,-3.3005,-3.3589,-3.3834,-3.4561,-3.4768,-3.4758,-3.4687,-3.4676,-3.4647,-3.4443,-3.4376,-3.4159,-3.336,-3.3173,-3.29,-3.2018,-3.1163,-3.0309,-2.9504,0.0,0.0,0.0,0.0,0.0,0.0,0.0,0.0,0.0,0.0,0.0,0.0,0.0,0.0,0.0,0.0,0.0,0.0,0.0,0.0,0.0,-2.4474,0.0,0.0,0.0,-3.1094,-3.1878,-3.2582,-3.3256,-3.3855,-3.3753,-3.3684,-3.3671,-3.3615,-3.4061,-3.4812,-3.494,-3.5487,-3.62,-3.617,-3.5754,-3.5139,-3.4918,-3.4359,-3.3841,0.0,0.0,0.0,0.0,0.0,0.0,0.0,-3.5916,0.0,-3.6479,-3.7568,-3.8469,-3.892,-3.9345,-3.9602,-3.9645,-3.9686,-3.9696,-3.9747,-3.9804,-3.9689,-3.9342,-3.8519,0.0,-3.6215,-3.3771,-3.1686,-2.9991,0.0,0.0,0.0,0.0,0.0,0.0,0.0,-2.027,0.0,0.0,0.0,-2.7679,-2.8517,-2.9319,-2.9988,-2.9988,-2.9988,-2.9988,-2.9988,-2.9999,-3.0051,-3.0375,-3.0729,-3.1269,-3.2487,-3.3156,-3.3675,-3.4543,-3.4798,-3.4788,-3.4758,-3.4758,-3.4747,-3.4697,-3.4676,-3.4561,-3.4156,-3.4041,-3.3794,-3.2949,-3.2441,-3.1633,-2.9907,-2.8531,0.0,0.0,0.0,0.0,0.0,0.0,0.0,0.0,0.0,0.0,0.0,0.0,0.0,0.0,0.0,0.0,0.0,0.0,0.0,0.0,0.0,0.0,0.0,0.0,0.0,-3.1709,-3.2446,-3.321,-3.3947,-3.3881,-3.3873,-3.3842,-3.3815,-3.4027,-3.4412,-3.4871,-3.5532,-3.6215,-3.5732,-3.5296,-3.4879,-3.4377,-3.3923,-3.3615,0.0,-3.3598,0.0,0.0,-3.6441,0.0,-3.7523,-3.845,-3.8889,-3.8375,-3.8619,-3.9089,-3.9777,-4.0021,-4.0115,-4.0115,-4.0165,-4.0131,-4.0002,-4.0042,-4.0015,-3.9919,-3.9134,-3.8291,-3.742,-3.5135,-3.3051,0.0,0.0,0.0,0.0,0.0,0.0,0.0,0.0,0.0,0.0,0.0,-2.6562,-2.7954,-2.8812,-2.9534,-3.0095,-3.0095,-3.0095,-3.0095,-3.0095,-3.0095,-3.008,-2.9986,-3.0354,-3.1056,-3.2042,-3.2808,-3.3507,-3.4546,-3.4849,-3.4839,-3.4838,-3.4809,-3.4827,-3.4798,-3.4758,-3.4708,-3.4708,-3.4676,-3.4457,-3.3826,-3.3552,-3.2743,-3.0545,-2.9429,0.0,0.0,0.0,0.0,0.0,0.0,0.0,0.0,0.0,0.0,0.0,0.0,0.0,0.0,0.0,0.0,0.0,0.0,0.0,0.0,0.0,-2.4408,-2.6869,0.0,-3.0007,-3.1733,-3.2351,-3.313,-3.4023,-3.4011,-3.3998,-3.3998,-3.3998,-3.4011,-3.4079,-3.4781,-3.5428,-3.5932,-3.5182,-3.4976,-3.5054,-3.4302,-3.4151,-3.4238,0.0,0.0,0.0,0.0,0.0,0.0,0.0,-4.0666,-4.0841,-3.8588,-3.9614,-4.0591,-4.0685,-4.1329,-4.1779,-4.1779,-4.1844,-4.16,-4.0908,-4.0948,-4.0666,-3.9938,-3.9134,-3.8291,-3.742,-3.5685,-3.3619,0.0,0.0,0.0,0.0,0.0,0.0,0.0,0.0,0.0,0.0,-2.6746,-2.7968,-2.885,-2.967,-3.003,-3.0095,-3.0095,-3.0095,-3.0095,-3.0095,-3.0095,-3.0095,-3.0087,-3.0137,-3.0479,-3.2069,-3.2613,-3.2985,-3.4537,-3.4983,-3.4964,-3.4907,-3.4887,-3.4877,-3.4827,-3.4788,-3.4788,-3.4788,-3.4778,-3.4759,-3.4684,-3.404,-3.3161,-3.2077,-3.1154,-3.03,0.0,0.0,0.0,0.0,0.0,0.0,0.0,0.0,0.0,0.0,0.0,0.0,0.0,0.0,0.0,0.0,0.0,0.0,-2.1792,0.0,-2.4442,-2.6869,-2.778,-2.9415,-3.1782,-3.1818,-3.2617,-3.4086,-3.4023,-3.3998,-3.3998,-3.3998,-3.4036,-3.4099,-3.4241,-3.4315,-3.4309,-3.4234,-3.4641,-3.5272,-3.5167,-3.5569,-3.6141,0.0,0.0,0.0,0.0,0.0,0.0,0.0,-4.1591,-4.1648,-4.0653,-4.1103,-4.1516,-4.1516,-4.1817,-4.2004,-4.2004,-4.2012,-4.1945,-4.1719,-4.1302,-4.0934,-4.0696,-3.9873,-3.902,-3.8197,-3.6548,-3.4946,0.0,0.0,0.0,0.0,0.0,0.0,0.0,0.0,-2.5281,-2.6026,-2.7714,-2.8605,-2.8973,-2.982,-3.0157,-3.0169,-3.0164,-3.0152,-3.0178,-3.0199,-3.0232,-3.0232,-3.0232,-3.0176,-3.0381,-3.2075,-3.2608,-3.2923,-3.458,-3.5066,-3.5057,-3.5039,-3.4983,-3.4955,-3.4936,-3.4888,-3.4858,-3.4858,-3.4838,-3.4798,-3.4798,-3.4108,-3.3399,-3.3011,-3.2238,-3.1354,0.0,0.0,0.0,0.0,0.0,0.0,0.0,0.0,0.0,0.0,0.0,0.0,0.0,0.0,0.0,0.0,0.0,0.0,-2.1216,0.0,-2.4417,-2.6869,-2.8226,-2.9861,-3.1812,-3.2272,-3.3066,-3.4161,-3.4173,-3.4209,-3.4245,-3.4245,-3.4257,-3.4281,-3.4305,-3.4305,-3.4337,-3.4858,-3.5256,-3.5603,-3.603,-3.6395,-3.6703,-4.1461,0.0,-4.14,0.0,-4.2211,-4.238,-4.238,-4.2586,-4.2736,-4.2736,-4.2736,-4.2643,-4.2399,-4.2586,-4.2736,-4.2736,-4.2736,-4.269,-4.2586,-4.1813,-4.1307,-4.1207,-4.0374,0.0,-3.8727,-3.7287,-3.6007,-3.4908,-3.2117,0.0,0.0,0.0,0.0,0.0,-2.6536,-2.6918,-2.7205,-2.8415,-2.9065,-2.9332,-2.9964,-3.0239,-3.0219,-3.0221,-3.0227,-3.0234,-3.0279,-3.0292,-3.035,-3.0599,-3.0616,-3.0798,-3.2203,-3.2832,-3.3328,-3.4725,-3.5136,-3.5127,-3.5101,-3.5066,-3.502,-3.502,-3.4993,-3.4955,-3.4927,-3.4888,-3.4859,-3.4829,-3.4347,-3.3912,-3.3889,-3.3172,-3.2371,-3.17,0.0,0.0,0.0,0.0,0.0,0.0,-2.519,-2.4248,-2.3105,0.0,0.0,0.0,0.0,0.0,0.0,0.0,0.0,0.0,0.0,0.0,0.0,-2.856,-3.0214,-3.1812,-3.2641,-3.3452,-3.4233,-3.4293,-3.4351,-3.4386,-3.4427,-3.445,-3.4461,-3.4484,-3.4626,-3.4907,-3.5525,-3.6056,-3.6519,-3.7044,-3.7387,-3.7673,-4.3088,-4.2536,-4.2077,-4.2018,-4.2712,-4.3275,-4.3275,-4.397,-4.4463,-4.4463,-4.4463,-4.4177,-4.3369,-4.3989,-4.4463,-4.4463,-4.4463,-4.4194,-4.3529,-4.2668,-4.1881,0.0,0.0,-3.9532,-3.8727,-3.7837,-3.6557,-3.4908,0.0,0.0,-3.0061,0.0,-2.7682,-2.7663,-2.7682,-2.8134,-2.8879,-2.8957,-2.9468,-3.0195,-3.0273,-3.0312,-3.0312,-3.0312,-3.0312,-3.0312,-3.0312,-3.0292,-3.0427,-3.1296,-3.1584,-3.1718,-3.2529,-3.3398,-3.4227,-3.4985,-3.5201,-3.5185,-3.5119,-3.5092,-3.5092,-3.5092,-3.5092,-3.5075,-3.5011,-3.5001,-3.4974,-3.4917,-3.4897,-3.4859,-3.4809,-3.4069,-3.3482,-3.3482,0.0,0.0,0.0,0.0,0.0,0.0,-2.6069,-2.4912,-2.3169,0.0,0.0,0.0,0.0,0.0,0.0,0.0,0.0,-2.1922,-2.3616,0.0,-2.6869,-2.856,-3.0214,-3.1812,-3.2668,-3.3522,-3.4293,-3.4381,-3.4386,-3.4397,-3.4473,-3.4528,-3.4594,-3.4666,-3.5168,-3.5883,-3.5883,-3.6866,-3.8268,-3.8275,-3.8782,-3.9464,-4.4347,-4.4052,-4.3809,-4.3775,-4.396,-4.412,-4.412,-4.4332,-4.4501,-4.4501,-4.4501,-4.4388,-4.4158,-4.435,-4.4501,0.0,-4.4501,-4.4457,0.0,-4.3001,-4.2145,-4.2022,-4.0658,-3.9786,-3.9532,-3.8698,-3.7752,-3.6672,0.0,0.0,0.0,-3.1321,-3.1114,-3.1114,-3.1157,-3.1324,-3.1553,-3.1576,-3.1743,-3.1934,-3.1404,-3.12,-3.1123,-3.0529,-3.0311,-3.0388,-3.1027,-3.1257,-3.1397,-3.2262,-3.2954,-3.3474,-3.3692,-3.3902,-3.4242,-3.5029,-3.527,-3.5262,-3.5245,-3.5204,-3.5179,-3.5164,-3.5138,-3.5092,-3.5075,-3.5029,-3.4992,-3.4964,-3.4927,-3.4888,-3.4877,-3.4601,-3.4192,-3.3595,-3.247,0.0,0.0,0.0,0.0,0.0,-2.7489,-2.6847,0.0,-2.505,0.0,0.0,0.0,0.0,0.0,0.0,0.0,0.0,-2.4741,0.0,-2.8579,-3.0214,-3.1593,-3.2687,-3.3529,-3.4097,-3.445,-3.4506,-3.455,-3.4612,-3.4676,-3.5028,-3.5558,-3.5579,-3.6098,-3.6909,-3.7456,-3.8014,-3.8565,-3.912,-3.952,-3.977,-4.4895,-4.4808,-4.4693,-4.4619,-4.4584,-4.4542,-4.4496,-4.4501,-4.4501,-4.4501,-4.4501,-4.4501,-4.4501,-4.4501,0.0,-4.4501,-4.451,-4.4578,-4.4699,-4.3158,-4.2295,-4.2401,-4.079,-3.99,-3.99,0.0,0.0,-3.7508,-3.5532,-3.409,-3.3115,-3.2825,-3.2707,-3.2748,-3.2785,-3.2807,-3.2802,-3.2837,-3.2838,-3.2794,-3.2308,-3.2129,-3.2071,-3.1512,-3.1306,-3.1383,-3.1979,-3.2189,-3.2322,-3.3195,-3.3843,-3.4357,-3.4647,-3.4693,-3.4749,-3.5192,-3.533,-3.5323,-3.5304,-3.5273,-3.5242,-3.5239,-3.5206,-3.5162,-3.5147,-3.5084,-3.502,-3.5011,-3.4974,-3.4917,-3.4888,-3.4877,-3.4544,-3.3654,-3.2727,-3.1812,-3.0928,0.0,0.0,0.0,0.0,0.0,0.0,-2.6317,-2.6011,0.0,0.0,0.0,0.0,0.0,0.0,-2.4927,-2.634,0.0,-2.9378,-3.1292,-3.2553,-3.3112,-3.3978,-3.46,-3.5022,-3.5074,-3.5297,-3.5681,-3.5713,-3.6036,-3.6539,-3.6531,-3.7043,-3.7907,-3.8409,-3.8839,-3.9231,-3.9732,-3.9933,-3.9984,-4.4895,-4.4914,0.0,0.0,-4.4605,0.0,-4.4528,-4.4501,-4.4501,-4.4501,-4.4501,-4.4501,-4.4501,-4.4501,-4.4501,-4.4501,0.0,0.0,0.0,-4.3158,-4.2293,-4.2325,-4.0753,-3.99,-3.9911,-3.9224,-3.8468,-3.7594,-3.5233,-3.4108,-3.4147,-3.3299,-3.2901,-3.2972,-3.2979,-3.2982,-3.2978,-3.3044,-3.3077,-3.307,-3.3088,-3.308,-3.3089,-3.3012,-3.2993,-3.3012,-3.307,-3.3089,-3.3224,-3.4093,-3.4388,-3.4542,-3.5353,-3.5598,-3.556,-3.5448,-3.5412,-3.5386,-3.5323,-3.5315,-3.53,-3.53,-3.5293,-3.5288,-3.5225,-3.5147,-3.5084,-3.502,-3.5011,-3.4992,-3.4927,-3.4888,-3.4594,-3.3666,-3.2769,-3.1872,-3.0948,0.0,0.0,0.0,0.0,0.0,0.0,-2.706,-2.7069,0.0,0.0,0.0,0.0,0.0,-2.608,-2.5968,-2.8199,-2.9471,-2.9638,-3.1868,-3.3092,-3.3291,-3.4226,-3.5135,-3.5978,-3.6007,-3.6473,-3.7311,-3.7311,-3.7381,-3.749,-3.7494,-3.8057,-3.8886,-3.8889,-3.9384,-4.0117,-4.0108,-4.0127,-4.0108,0.0,0.0,-4.4802,-4.4764,-4.4672,-4.4592,-4.4578,-4.4524,-4.4501,-4.4501,-4.4501,-4.4501,-4.4501,-4.4501,-4.4501,-4.4501,-4.4551,-4.4369,-4.3831,-4.2856,-4.2047,-4.151,-4.0468,-3.9922,-3.9975,-3.9815,-3.9334,-3.8566,-3.6771,-3.588,-3.5889,-3.507,-3.4684,-3.4699,-3.4759,-3.4777,-3.4791,-3.486,-3.4873,-3.4822,-3.4223,-3.399,-3.3919,-3.3244,-3.2993,-3.3089,-3.3745,-3.3988,-3.4127,-3.4996,-3.5336,-3.5392,-3.5543,-3.5595,-3.5577,-3.5502,-3.5483,-3.5463,-3.5393,-3.5372,-3.5364,-3.5308,-3.5289,-3.5277,-3.522,-3.5198,-3.5164,-3.5155,-3.5075,-3.5001,-3.4983,-3.4936,-3.4604,-3.3715,-3.2798,-3.192,-3.1064,-3.018,0.0,0.0,-2.9173,-2.928,-2.9725,-2.9689,-2.9898,0.0,0.0,0.0,0.0,-3.0456,-2.9787,-2.856,-2.9081,-3.027,-3.2128,-3.2769,-3.378,-3.5172,-3.6058,-3.6633,-3.69,-3.6963,-3.713,-3.7383,-3.7387,-3.7788,-3.8465,-3.8476,-3.8981,-3.9792,-3.9852,-3.9986,-4.0177,-4.0234,-4.029,-4.0317,-4.5729,-4.5653,-4.5445,-4.489,-4.4751,-4.4672,-4.4605,-4.4565,-4.4524,-4.4496,-4.4501,-4.4501,-4.4501,-4.4528,-4.4556,-4.4556,-4.4605,-4.432,-4.3548,-4.2786,-4.2006,-4.1226,-4.0388,-3.9965,-3.9996,-4.0067,-3.9709,-3.8956,-3.7675,-3.7071,-3.7069,-3.6233,-3.589,-3.5921,-3.5564,-3.5427,-3.5449,-3.547,-3.5528,-3.5514,-3.5069,-3.4913,-3.4886,-3.442,-3.4232,-3.429,-3.4765,-3.4935,-3.5004,-3.5488,-3.5672,-3.5697,-3.5651,-3.5646,-3.5635,-3.5571,-3.5515,-3.5483,-3.5456,-3.5448,-3.542,-3.5364,-3.5312,-3.5285,-3.5242,-3.522,-3.5206,-3.5208,-3.5138,-3.5075,-3.5011,-3.4974,-3.4643,-3.3762,-3.2845,-3.1959,-3.1111,-3.0218,0.0,-3.0113,-3.0082,-3.0358,-3.1174,-3.1184,-3.1318,-3.1775,-3.1778,0.0,-3.1812,-3.1794,-3.1403,-3.0511,-3.0846,-3.1663,-3.299,-3.3857,-3.4976,-3.6361,-3.685,-3.7344,-3.78,-3.7834,-3.8096,-3.8542,-3.8586,-3.8874,-3.9361,-3.9411,-3.9718,-4.0148,-4.0225,-4.0252,-4.0298,-4.0325,-4.037,-4.0407,-4.6657,-4.6544,-4.619,-4.5029,-4.4815,-4.4757,-4.4646,-4.4605,-4.4578,-4.451,-4.4515,-4.4515,-4.4515,-4.4565,-4.4619,-4.4619,-4.4685,-4.4366,-4.3561,-4.2815,-4.2041,-4.1226,-4.0439,-3.9996,-4.0007,-4.0157,-3.9881,-3.9202,-3.8332,-3.7938,-3.7972,-3.7108,-3.6773,-3.6834,-3.5996,-3.5635,-3.5682,-3.5579,-3.5553,-3.5606,-3.5612,-3.5654,-3.5695,-3.5702,-3.5693,-3.5698,-3.5699,-3.5708,-3.5708,-3.5708,-3.5708,-3.5704,-3.5698,-3.5693,-3.5683,-3.5635,-3.5577,-3.5509,-3.5496,-3.5495,-3.5474,-3.5412,-3.5354,-3.53,-3.5293,-3.5261,-3.5201,-3.5198,-3.5208,-3.5174,-3.5057,-3.5011,-3.4708,-3.379,-3.2997,-3.2185,-3.1318,0.0,-3.0321,-3.0919,-3.1003,-3.1281,-3.2027,-3.2079,-3.2102,-3.2158,-3.2165,-3.2165,-3.2165,-3.2295,-3.237,-3.237,-3.2778,-3.3131,-3.3396,-3.516,-3.6451,-3.7197,-3.7387,-3.7901,-3.8675,-3.8675,-3.9139,-3.99,-4.0097,-4.0197,-4.0226,-4.048,-4.0578,-4.0606,-4.0662,-4.0649,-4.0596,-4.0616,-4.0528,-4.0413,-4.6506,-4.6259,-4.5975,-4.5053,-4.4833,-4.4783,-4.4757,-4.4672,-4.4592,-4.4578,-4.4578,-4.4578,-4.4578,-4.4646,-4.4667,-4.4667,-4.4751,-4.443,-4.3636,-4.2839,-4.2041,-4.1226,-4.0439,-4.0036,-4.0077,-4.0225,-4.0225,-4.0091,-3.9285,-3.8891,-3.888,-3.8054,-3.769,-3.7686,-3.6918,-3.6587,-3.6543,-3.5874,-3.5595,-3.5606,-3.5657,-3.5697,-3.5702,-3.5689,-3.5699,-3.5704,-3.5704,-3.5708,-3.5708,-3.5708,-3.5708,-3.5704,-3.5704,-3.5699,-3.5694,-3.5683,-3.5632,-3.5574,-3.5515,-3.5495,-3.5474,-3.5412,-3.5398,-3.5369,-3.5308,-3.5285,-3.5269,-3.5201,-3.5206,-3.52,-3.5164,-3.5075,-3.4736,-3.3901,-3.3554,-3.3101,-3.2232,0.0,-3.1835,-3.1898,-3.1904,-3.22,-3.3002,-3.2982,-3.3187,-3.3853,-3.3861,-3.3826,-3.3826,-3.4525,-3.4934,-3.4934,-3.367,-3.3736,-3.5277,-3.6907,-3.786,-3.8119,-3.8863,-3.9312,-3.9512,-3.9512,-3.9656,-3.9938,-4.0753,-4.113,-4.1239,-4.1997,-4.2345,-4.2403,-4.2459,-4.2091,-4.1519,-4.1564,-4.1119,-4.05,-4.715,-4.6847,-4.643,-4.5122,-4.487,-4.4833,-4.4815,-4.4751,-4.468,-4.4659,-4.4659,-4.4659,-4.4659,-4.4725,-4.4745,-4.4745,-4.4827,-4.4694,-4.4316,-4.3109,-4.2064,-4.1282,-4.0482,-4.0098,-4.0215,-4.0282,-4.0301,-4.0309,-3.9934,-3.9787,-3.9829,-3.8988,-3.8624,-3.8611,-3.7858,-3.7526,-3.7527,-3.7153,-3.6739,-3.6367,-3.6394,-3.6119,-3.5694,-3.5737,-3.5747,-3.5747,-3.5741,-3.5745,-3.5745,-3.5745,-3.5745,-3.5741,-3.5751,-3.5747,-3.5742,-3.5718,-3.5648,-3.5593,-3.5553,-3.5528,-3.5495,-3.5456,-3.5422,-3.5398,-3.5361,-3.5324,-3.5285,-3.5261,-3.5229,-3.5206,-3.5208,-3.5129,-3.4915,-3.4517,-3.397,0.0,0.0,-3.2533,-3.2372,-3.2812,-3.2808,-3.3104,-3.3877,-3.4319,-3.4673,-3.4975,-3.5367,-3.5572,-3.5535,-3.5937,-3.616,-3.616,-3.5398,-3.5622,-3.692,-3.7698,-3.839,-3.8952,-3.9827,-4.0309,-4.0417,-4.0851,-4.1111,-4.1275,-4.1773,-4.2017,-4.2079,-4.2554,-4.2795,-4.2861,-4.2935,-4.2748,-4.2464,-4.2486,-4.226,-4.1921,-4.7719,-4.7397,-4.6866,-4.5198,-4.4895,-4.487,-4.4821,-4.4808,-4.477,-4.4738,-4.4706,-4.4706,-4.4706,-4.477,-4.4821,-4.4821,-4.4858,-4.4907,-4.4919,-4.3535,-4.2371,-4.1611,-4.0648,-4.0176,-4.0301,-4.0301,-4.03,-4.0307,-4.0325,-4.0396,-4.0482,-3.9826,-3.9546,-3.9567,-3.876,-3.8434,-3.8459,-3.8304,-3.7876,-3.7295,-3.7311,-3.69,-3.6285,-3.6153,-3.6099,-3.6084,-3.5868,-3.5795,-3.5795,-3.5795,-3.5795,-3.5791,-3.5793,-3.5808,-3.5784,-3.5742,-3.5688,-3.5623,-3.5608,-3.5553,-3.5522,-3.549,-3.5463,-3.5407,-3.5393,-3.5361,-3.5316,-3.5308,-3.525,-3.5209,-3.5215,-3.5164,-3.5092,-3.5029,0.0,0.0,0.0,-3.328,-3.3117,-3.3953,-3.4005,-3.4272,-3.5034,-3.5705,-3.6033,-3.5937,-3.6479,-3.6782,-3.6744,-3.6885,-3.7058,-3.7257,-3.7076,-3.732,-3.8,-3.8264,-3.8883,-3.9795,-4.0471,-4.0967,-4.1297,-4.192,-4.2276,-4.2412,-4.2756,-4.2906,-4.2936,-4.3272,-4.3426,-4.3492,-4.3565,-4.3502,-4.3399,-4.3392,-4.3273,-4.3135,-4.7719,-4.7397,-4.6866,-4.5198,-4.4895,-4.4895,-4.4883,-4.4833,-4.4815,-4.4783,-4.4783,-4.4783,-4.4783,-4.4846,-4.4883,-4.4883,-4.4895,-4.4919,-4.4998,-4.4193,-4.332,-4.2446,-4.0993,-4.0234,-4.0301,-4.0299,-4.0307,-4.0307,-4.0413,-4.0493,-4.0502,-4.0504,-4.0503,-4.0472,-3.9656,-3.9303,-3.9271,-3.8584,-3.8263,-3.8197,-3.819,-3.8171,-3.802,-3.7286,-3.6999,-3.6902,-3.6086,-3.5795,-3.5795,-3.5795,-3.5795,-3.5795,-3.5795,-3.5791,-3.5806,-3.5784,-3.5761,-3.5689,-3.5618,-3.5601,-3.5585,-3.5515,-3.5502,-3.5483,-3.5407,-3.5398,-3.5391,-3.5308,-3.5289,-3.5285,-3.5277,-3.5231,-3.5164,-3.5092,0.0,0.0,-3.4812,-3.4736,-3.4951,-3.5628,-3.573,-3.6028,-3.6828,-3.6902,-3.6904,-3.6892,-3.6845,-3.6807,-3.6789,-3.7432,-3.8154,-3.8897,-3.8191,-3.7878,-3.8,-3.888,-3.9743,-4.0613,-4.0734,-4.1268,-4.2108,-4.2165,-4.2276,-4.245,-4.3403,-4.38,-4.3888,-4.482,-4.5208,-4.5218,-4.5293,-4.4904,-4.4306,-4.4306,-4.3836,-4.318,-4.8225,-4.7378,-4.6487,-4.5122,-4.4895,-4.4895,-4.4895,-4.487,-4.4858,-4.4858,-4.4858,-4.4858,-4.4858,-4.4883,-4.4895,-4.4895,-4.4931,-4.4967,-4.501,-4.4285,-4.3246,-4.1878,-4.0816,-4.0263,-4.0299,-4.0298,-4.0334,-4.0413,-4.0485,-4.0507,-4.0562,-4.0592,-4.061,-4.066,-4.0339,-4.0237,-4.0242,-3.9975,-3.9564,-3.9116,-3.9117,-3.8806,-3.8335,-3.8013,-3.7905,-3.7859,-3.7529,-3.7401,-3.7417,-3.7417,-3.7086,-3.6678,-3.6678,-3.6304,-3.5853,-3.5811,-3.5778,-3.5766,-3.5728,-3.5653,-3.5587,-3.5577,-3.554,-3.5483,-3.5469,-3.5422,-3.5379,-3.5364,-3.5335,-3.5297,-3.5293,-3.5245,-3.5187,-3.5164,0.0,-3.5182,-3.5695,-3.5693,-3.5936,-3.6745,-3.6788,-3.6877,-3.713,-3.7596,-3.7831,-3.7747,-3.8203,-3.847,-3.8413,-3.8686,-3.8971,-3.9288,-3.9461,-3.9573,-3.9559,-3.9944,-4.0571,-4.1456,-4.2066,-4.2585,-4.3026,-4.3523,-4.3825,-4.3985,-4.4437,-4.4646,-4.4687,-4.5186,-4.541,-4.541,-4.5513,-4.5411,-4.52,-4.5213,-4.5032,-4.4807,-4.8945,-4.7618,-4.6241,-4.5103,-4.4895,-4.4895,-4.4895,-4.4895,-4.4895,-4.4895,-4.4895,-4.4895,-4.4895,-4.4919,-4.4931,-4.4931,-4.4979,-4.5045,-4.5049,-4.4367,-4.3209,-4.1473,-4.0693,-4.0309,-4.0307,-4.0334,-4.0405,-4.0502,-4.0507,-4.0554,-4.0607,-4.061,-4.066,-4.0694,-4.0726,-4.0764,-4.0792,-4.0823,-4.0507,-4.001,-4.0039,-3.9708,-3.9185,-3.8913,-3.8805,-3.8774,-3.8506,-3.84,-3.8392,-3.8392,-3.8022,-3.7575,-3.7575,-3.6991,-3.6248,-3.5919,-3.5811,-3.5801,-3.5793,-3.5732,-3.5653,-3.561,-3.5577,-3.5534,-3.5528,-3.5476,-3.5505,-3.5787,-3.5789,-3.5822,-3.6067,-3.605,-3.602,-3.5997,-3.59,-3.6055,-3.6635,-3.6615,-3.6848,-3.7709,-3.7751,-3.778,-3.7977,-3.8481,-3.8766,-3.867,-3.9183,-3.9582,-3.9778,-3.9778,-3.989,-4.0152,-4.0694,-4.111,-4.1344,-4.1123,-4.1458,-4.2323,-4.2986,-4.3506,-4.3913,-4.4448,-4.4757,-4.4907,-4.5038,-4.5103,-4.5125,-4.5321,-4.54,-4.5419,-4.5568,-4.5665,-4.5706,-4.5708,-4.5754,-4.5791,-4.9912,-4.8098,-4.6222,-4.5103,-4.4895,-4.4895,-4.4895,-4.4895,-4.4895,-4.4895,-4.4895,-4.4895,-4.4895,-4.4955,-4.4991,-4.4991,-4.5049,-4.5136,-4.5192,-4.4515,-4.3301,-4.1492,-4.0692,-4.0307,-4.0307,-4.0441,-4.0502,-4.0502,-4.0569,-4.0607,-4.0607,-4.0666,-4.0701,-4.07,-4.0763,-4.0798,-4.0812,-4.0872,-4.0903,-4.0912,-4.0978,-4.0999,-4.0918,-4.0038,-3.9708,-3.9595,-3.8723,-3.8412,-3.8415,-3.8415,-3.8415,-3.8415,-3.8396,-3.7847,-3.703,-3.6174,-3.5864,-3.5803,-3.5803,-3.5817,-3.5766,-3.5629,-3.5604,-3.5595,-3.5604,-3.5554,-3.5759,-3.6613,-3.675,-3.6949,-3.7744,-3.7838,-3.7783,-3.7702,-3.7696,-3.7679,-3.7614,-3.7547,-3.7811,-3.8624,-3.8656,-3.8901,-3.9625,-3.971,-3.9693,-3.9693,-3.9571,-3.9825,-4.0563,-4.0619,-4.0974,-4.1791,-4.181,-4.2268,-4.3184,-4.2342,-4.2342,-4.3203,-4.3286,-4.3807,-4.4712,-4.4712,-4.4757,-4.4907,-4.5038,-4.5103,-4.5125,-4.5321,-4.541,-4.5419,-4.5631,-4.5706,-4.5708,-4.5773,-4.5791,-4.5807,-4.9912,-4.7472,-4.5293,-4.4952,-4.4895,-4.4895,-4.4895,-4.4895,-4.4895,-4.4895,-4.4931,-4.4967,-4.4967,-4.5026,-4.508,-4.508,-4.5136,-4.5213,-4.5328,-4.4555,-4.3618,-4.2498,-4.1702,-4.102,-4.0441,-4.0487,-4.0527,-4.0569,-4.0583,-4.0626,-4.0666,-4.0694,-4.0739,-4.0769,-4.0798,-4.0823,-4.0864,-4.0893,-4.0941,-4.0975,-4.0984,-4.1011,-4.0976,-4.0704,-4.0614,-4.057,-4.0317,-4.025,-4.0296,-4.0296,-3.9887,-3.9283,-3.8663,-3.8303,-3.8063,-3.7809,-3.729,-3.6763,-3.6725,-3.6273,-3.5773,-3.5699,-3.5629,-3.559,-3.5604,-3.5583,-3.5791,-3.664,-3.6774,-3.7021,-3.782,-3.7909,-3.7862,-3.7841,-3.7747,-3.7905,-3.8497,-3.848,-3.8727,-3.9571,-3.9615,-3.9656,-3.9818,-3.98,-3.9743,-3.9696,-4.0226,-4.0628,-4.0797,-4.1355,-4.1742,-4.1932,-4.2527,-4.2991,-4.3267,-4.2968,-4.325,-4.4116,-4.4125,-4.4339,-4.4712,-4.4712,-4.4796,-4.4986,-4.5049,-4.5159,-4.5246,-4.537,-4.5429,-4.5485,-4.564,-4.5706,-4.5708,-4.5773,-4.5791,-4.5807,-4.9912,-4.8268,-4.6702,-4.6068,-4.5392,-4.5069,-4.5442,-4.5195,-4.4967,-4.4967,-4.5003,-4.5045,-4.5045,-4.5103,-4.5148,-4.5148,-4.5192,-4.5286,-4.5398,-4.4901,-4.4106,-4.2992,-4.2499,-4.169,-4.0534,-4.0535,-4.0554,-4.0591,-4.0633,-4.0668,-4.0701,-4.0739,-4.0775,-4.0834,-4.0848,-4.0883,-4.0945,-4.093,-4.0956,-4.1007,-4.1007,-4.1018,-4.1029,-4.1029,-4.1042,-4.1036,-4.1036,-4.1061,-4.1109,-4.1109,-4.0752,-4.0165,-3.9288,-3.9006,-3.8952,-3.8604,-3.8124,-3.7702,-3.7653,-3.7004,-3.6293,-3.6267,-3.5941,-3.5639,-3.5648,-3.59,-3.6342,-3.7179,-3.761,-3.8071,-3.8883,-3.8962,-3.8923,-3.8922,-3.8829,-3.895,-3.9485,-3.9442,-3.9547,-4.0071,-4.0087,-4.0007,-3.9975,-3.99,-3.9944,-4.0203,-4.07,-4.1273,-4.1895,-4.2385,-4.2787,-4.3055,-4.3555,-4.3804,-4.3804,-4.3755,-4.3971,-4.4501,-4.4501,-4.4565,-4.4712,-4.4712,-4.4808,-4.4991,-4.508,-4.517,-4.5307,-4.5361,-4.5438,-4.5513,-4.5646,-4.5703,-4.5715,-4.5788,-4.5805,-4.5814,-4.9939,-4.9939,-4.9498,-4.8083,-4.6366,-4.5437,-4.6282,-4.5654,-4.5103,-4.5103,-4.5114,-4.5114,-4.5114,-4.517,-4.5203,-4.5203,-4.5275,-4.5338,-4.5408,-4.54,-4.4719,-4.3199,-4.311,-4.2333,-4.0666,-4.0619,-4.0617,-4.0602,-4.0674,-4.0707,-4.0706,-4.0775,-4.0834,-4.0907,-4.0917,-4.0945,-4.0995,-4.0992,-4.0995,-4.1013,-4.1013,-4.1052,-4.1098,-4.1098,-4.1103,-4.1113,-4.1191,-4.121,-4.121,-4.121,-4.1164,-4.0961,-4.0162,-3.9917,-3.9766,-3.8967,-3.8685,-3.8614,-3.8614,-3.7929,-3.7222,-3.7222,-3.6567,-3.5902,-3.5742,-3.6331,-3.7154,-3.8014,-3.8833,-3.9642,-4.0448,-4.0546,-4.0508,-4.0499,-4.0449,-4.0415,-4.0415,-4.0298,-4.0215,-4.0215,-4.0148,-4.0098,-4.0117,-3.9994,-4.0227,-4.0974,-4.1095,-4.1831,-4.3416,-4.3586,-4.3951,-4.4693,-4.4646,-4.4605,-4.4592,-4.4537,-4.4515,-4.4501,-4.4515,-4.4584,-4.4712,-4.4712,-4.4827,-4.5003,-4.5061,-4.5181,-4.5309,-4.5361,-4.5438,-4.5522,-4.5651,-4.57,-4.5715,-4.5771,-4.58,-4.5814,-5.02,-5.02,-5.0116,-4.9759,-4.788,-4.6412,-4.6408,-4.5654,-4.5103,-4.5103,-4.5148,-4.5181,-4.5181,-4.5254,-4.5286,-4.5286,-4.5338,-4.537,-4.54,-4.5457,-4.5061,-4.4146,-4.345,-4.2653,-4.1709,-4.1021,-4.0674,-4.0675,-4.0745,-4.0775,-4.079,-4.0856,-4.0883,-4.0898,-4.0945,-4.098,-4.0999,-4.0993,-4.1029,-4.1087,-4.1078,-4.1083,-4.1111,-4.1111,-4.1091,-4.1191,-4.1876,-4.211,-4.211,-4.211,-4.1659,-4.1069,-4.0886,-4.0822,-4.0778,-4.0587,-4.0055,-3.9504,-3.9455,-3.8822,-3.8173,-3.8139,-3.7973,-3.745,-3.6085,-3.6411,-3.7214,-3.8034,-3.8876,-3.9721,-4.0526,-4.0626,-4.0571,-4.0585,-4.0527,-4.0468,-4.0474,-4.0415,-4.0344,-4.027,-4.0215,-4.0177,-4.0186,-4.0098,-4.0387,-4.1187,-4.1821,-4.259,-4.3535,-4.4184,-4.4575,-4.4712,-4.4685,-4.4659,-4.4592,-4.4578,-4.4551,-4.4501,-4.4551,-4.4619,-4.4712,-4.4745,-4.4883,-4.5091,-4.5103,-4.5205,-4.5371,-4.54,-4.5476,-4.5586,-4.5673,-4.5695,-4.5715,-4.5781,-4.5798,-4.5814,-5.0302,-5.0302,-5.0054,-4.9251,-4.788,-4.6797,-4.6488,-4.5726,-4.5192,-4.5192,-4.5243,-4.5254,-4.5254,-4.5286,-4.5317,-4.5338,-4.5388,-4.5419,-4.5457,-4.5485,-4.5175,-4.4421,-4.3589,-4.2779,-4.2026,-4.1171,-4.0758,-4.0757,-4.0787,-4.0815,-4.0848,-4.0873,-4.0922,-4.095,-4.0984,-4.0995,-4.1,-4.1036,-4.1073,-4.1106,-4.1091,-4.1098,-4.1142,-4.1554,-4.1712,-4.1833,-4.2713,-4.3025,-4.2967,-4.2538,-4.2104,-4.1649,-4.1235,-4.1106,-4.1095,-4.1106,-4.0785,-4.0406,-4.038,-3.9728,-3.9059,-3.9033,-3.8703,-3.8152,-3.7251,-3.7666,-3.836,-3.8775,-3.9542,-4.0242,-4.0636,-4.0681,-4.064,-4.0605,-4.0564,-4.0554,-4.0546,-4.0487,-4.0427,-4.0396,-4.0344,-4.0271,-4.0215,-4.0167,-4.0641,-4.1836,-4.2278,-4.3031,-4.4194,-4.4631,-4.4821,-4.4815,-4.4757,-4.4738,-4.4699,-4.4659,-4.4632,-4.4592,-4.4592,-4.4632,-4.4712,-4.4757,-4.4907,-4.5103,-4.5103,-4.5197,-4.54,-4.54,-4.5485,-4.5614,-4.5665,-4.5706,-4.5708,-4.5773,-4.5824,-4.586,-5.0302,-5.0302,-4.9805,-4.822,-4.7494,-4.6997,-4.6577,-4.5812,-4.5307,-4.5307,-4.5307,-4.5317,-4.5317,-4.5328,-4.5348,-4.5399,-4.5409,-4.5429,-4.5495,-4.5513,-4.525,-4.4649,-4.3709,-4.2879,-4.224,-4.1299,-4.0806,-4.0806,-4.0807,-4.0853,-4.0917,-4.0927,-4.0954,-4.0999,-4.0999,-4.1,-4.1016,-4.1075,-4.1108,-4.1098,-4.11,-4.1107,-4.1197,-4.2075,-4.2394,-4.2537,-4.3552,-4.3923,-4.3806,-4.3082,-4.2648,-4.227,-4.1544,-4.1217,-4.1103,-4.11,-4.1106,-4.1094,-4.1094,-4.0536,-3.9942,-3.9942,-3.9383,-3.8836,-3.884,-3.9256,-3.9612,-3.9606,-4.0253,-4.0806,-4.0738,-4.072,-4.0707,-4.0635,-4.0628,-4.0607,-4.0603,-4.0554,-4.0516,-4.0499,-4.0441,-4.0353,-4.0233,-4.0215,-4.0892,-4.25,-4.2569,-4.3247,-4.4927,-4.4943,-4.4907,-4.4907,-4.4846,-4.4808,-4.4796,-4.4732,-4.4725,-4.4712,-4.4659,-4.4659,-4.4725,-4.4802,-4.4919,-4.5103,-4.5103,-4.5216,-4.539,-4.54,-4.5457,-4.5586,-4.5676,-4.5706,-4.5715,-4.5781,-4.5838,-4.5906,-5.0302,-5.0302,-4.992,-4.8697,-4.8048,-4.7406,-4.6615,-4.5812,-4.5307,-4.5307,-4.5348,-4.5398,-4.5398,-4.54,-4.539,-4.539,-4.5457,-4.5485,-4.5504,-4.554,-4.5563,-4.5538,-4.4033,-4.3178,-4.3124,-4.1598,-4.0801,-4.0801,-4.0854,-4.0912,-4.0997,-4.0995,-4.1,-4.1002,-4.1,-4.1039,-4.1095,-4.11,-4.1109,-4.1092,-4.1101,-4.1109,-4.1193,-4.2073,-4.241,-4.2609,-4.4249,-4.4815,-4.4814,-4.4692,-4.3654,-4.2384,-4.2252,-4.1716,-4.1107,-4.1096,-4.1103,-4.1092,-4.1092,-4.1003,-4.0912,-4.0912,-4.0783,-4.0652,-4.0648,-4.0151,-3.9658,-3.9612,-4.0295,-4.0867,-4.0801,-4.0787,-4.0757,-4.0707,-4.0694,-4.0661,-4.0607,-4.06,-4.0552,-4.0516,-4.0447,-4.0379,-4.037,-4.0316,-4.095,-4.2564,-4.2675,-4.3384,-4.4996,-4.5014,-4.4998,-4.4998,-4.4919,-4.4846,-4.4796,-4.4783,-4.4764,-4.4712,-4.4764,-4.4789,-4.4802,-4.4865,-4.4955,-4.5103,-4.5103,-4.5213,-4.5399,-4.541,-4.5438,-4.5541,-4.5648,-4.5706,-4.5715,-4.5771,-4.5847,-4.5906,-5.0404,-4.9918,-4.9154,-4.8024,-4.7467,-4.6891,-4.6021,-4.558,-4.5351,-4.5351,-4.538,-4.539,-4.539,-4.539,-4.5419,-4.5448,-4.5485,-4.5513,-4.5559,-4.5622,-4.5442,-4.4998,-4.3824,-4.3032,-4.2634,-4.143,-4.1056,-4.1577,-4.1611,-4.1639,-4.1686,-4.2206,-4.2447,-4.2448,-4.2445,-4.2485,-4.2544,-4.2541,-4.255,-4.2555,-4.2544,-4.2547,-4.2647,-4.3526,-4.3859,-4.4017,-4.5286,-4.5735,-4.5657,-4.5166,-4.4169,-4.3035,-4.2558,-4.1809,-4.1101,-4.1109,-4.1096,-4.1106,-4.1106,-4.11,-4.1095,-4.1095,-4.1073,-4.1045,-4.1007,-4.0698,-4.042,-4.0399,-4.0655,-4.0883,-4.0854,-4.0837,-4.0784,-4.0754,-4.0756,-4.0732,-4.0681,-4.0649,-4.0629,-4.0552,-4.0508,-4.0452,-4.0452,-4.0405,-4.1014,-4.2632,-4.2765,-4.3458,-4.5063,-4.5103,-4.5045,-4.4991,-4.4967,-4.4919,-4.4846,-4.4865,-4.4833,-4.4808,-4.4833,-4.4852,-4.4796,-4.4858,-4.4967,-4.5103,-4.5103,-4.5213,-4.5408,-4.54,-4.5438,-4.5513,-4.5648,-4.5722,-4.5765,-4.5786,-4.5814,-4.5854]},{"header":{"parameterUnit":"m.s-1","parameterCategory":1,"la1":30.6,"la2":28.766,"lo1":-90.7593,"lo2":-88.6598,"dy":0.0162,"dx":0.0183,"nx":116,"ny":114,"refTime":"2023-07-31T12:00:00:Z","depth":0,"parameterNumber":3,"parameterNumberName":"V-component_of_WINDS"},"data":[0.0,0.0,0.0,0.0,0.0,0.0,0.0,0.0,0.0,0.0,0.0,0.0,0.0,0.0,0.0,0.0,0.0,0.0,0.0,0.0,0.0,0.0,0.0,0.0,0.0,0.0,0.0,0.0,0.0,0.0,0.0,0.0,0.0,0.0,0.0,0.0,0.0,0.0,0.0,0.0,0.0,0.0,0.0,0.0,0.0,0.0,0.0,0.0,0.0,0.0,0.0,0.0,0.0,0.0,0.0,0.0,0.0,0.0,0.0,0.0,0.0,0.0,0.0,0.0,0.0,0.0,0.0,0.0,0.0,0.0,0.0,0.0,0.0,0.0,0.0,0.0,0.0,0.0,0.0,0.0,0.0,0.0,0.0,0.0,0.0,0.0,0.0,0.0,0.0,0.0,0.0,0.0,0.0,0.0,0.0,0.0,0.0,0.0,0.0,0.0,0.0,0.0,0.0,0.0,0.0,0.0,0.0,0.0,0.0,0.0,0.0,0.0,0.0,0.0,0.0,0.0,0.0,0.0,0.0,0.0,0.0,0.0,0.0,0.0,0.0,0.0,0.0,0.0,0.0,0.0,0.0,0.0,0.0,0.0,0.0,0.0,0.0,0.0,0.0,0.0,0.0,0.0,0.0,0.0,0.0,0.0,0.0,0.0,0.0,0.0,0.0,0.0,0.0,0.0,0.0,0.0,0.0,0.0,0.0,0.0,0.0,0.0,0.0,0.0,0.0,0.0,0.0,0.0,0.0,0.0,0.0,0.0,0.0,0.0,0.0,0.0,0.0,0.0,0.0,0.0,0.0,0.0,0.0,0.0,0.0,0.0,0.0,0.0,0.0,0.0,0.0,0.0,0.0,0.0,0.0,0.0,0.0,0.0,0.0,0.0,0.0,0.0,0.0,0.0,0.0,0.0,0.0,0.0,0.0,0.0,0.0,0.0,0.0,0.0,0.0,0.0,0.0,0.0,0.0,0.0,0.0,0.0,0.0,0.0,0.0,0.0,0.0,0.0,0.0,0.0,0.0,0.0,0.0,0.0,0.0,0.0,0.0,0.0,0.0,0.0,0.0,0.0,0.0,0.0,0.0,0.0,0.0,0.0,0.0,0.0,0.0,0.0,0.0,0.0,0.0,0.0,0.0,0.0,0.0,0.0,0.0,0.0,0.0,0.0,0.0,0.0,0.0,0.0,0.0,0.0,0.0,0.0,0.0,0.0,0.0,0.0,0.0,0.0,0.0,0.0,0.0,0.0,0.0,0.0,0.0,0.0,0.0,0.0,0.0,0.0,0.0,0.0,0.0,0.0,0.0,0.0,0.0,0.0,0.0,0.0,0.0,0.0,0.0,0.0,0.0,0.0,0.0,0.0,0.0,0.0,0.0,0.0,0.0,0.0,0.0,0.0,0.0,0.0,0.0,0.0,0.0,0.0,0.0,0.0,0.0,0.0,0.0,0.0,0.0,0.0,0.0,0.0,0.0,0.0,0.0,0.0,0.0,0.0,0.0,0.0,0.0,0.0,0.0,0.0,0.0,0.0,0.0,0.0,0.0,0.0,0.0,0.0,0.0,0.0,0.0,0.0,0.0,0.0,0.0,0.0,0.0,0.0,0.0,0.0,0.0,0.0,0.0,0.0,0.0,0.0,0.0,0.0,0.0,0.0,0.0,0.0,0.0,0.0,0.0,0.0,0.0,0.0,0.0,0.0,0.0,0.0,0.0,0.0,0.0,0.0,0.0,0.0,0.0,0.0,0.0,0.0,0.0,0.0,0.0,0.0,0.0,0.0,0.0,0.0,0.0,0.0,0.0,0.0,0.0,0.0,0.0,0.0,0.0,0.0,0.0,0.0,0.0,0.0,0.0,0.0,0.0,0.0,0.0,0.0,0.0,0.0,0.0,0.0,0.0,0.0,0.0,0.0,0.0,0.0,0.0,0.0,0.0,0.0,0.0,0.0,0.0,0.0,0.0,0.0,0.0,0.0,0.0,0.0,0.0,0.0,0.0,0.0,0.0,0.0,0.0,0.0,0.0,0.0,0.0,0.0,0.0,0.0,0.0,0.0,0.0,0.0,0.0,0.0,0.0,0.0,0.0,0.0,0.0,0.0,0.0,0.0,0.0,0.0,0.0,0.0,0.0,0.0,0.0,0.0,0.0,0.0,0.0,0.0,0.0,0.0,0.0,0.0,0.0,0.0,0.0,0.0,0.0,0.0,0.0,0.0,0.0,0.0,0.0,0.0,0.0,0.0,0.0,0.0,0.0,0.0,0.0,0.0,0.0,0.0,0.0,0.0,0.0,0.0,0.0,0.0,0.0,0.0,0.0,0.0,0.0,0.0,0.0,0.0,0.0,0.0,0.0,0.0,0.0,0.0,0.0,0.0,0.0,0.0,0.0,0.0,0.0,0.0,0.0,0.0,0.0,0.0,0.0,0.0,0.0,0.0,0.0,0.0,0.0,0.0,0.0,0.0,0.0,0.0,0.0,0.0,0.0,0.0,0.0,0.0,0.0,0.0,0.0,0.0,0.0,0.0,0.0,0.0,0.0,0.0,0.0,0.0,0.0,0.0,0.0,0.0,0.0,0.0,0.0,0.0,0.0,0.0,0.0,0.0,0.0,0.0,0.0,0.0,0.0,0.0,0.0,0.0,0.0,0.0,0.0,0.0,0.0,0.0,0.0,0.0,0.0,0.0,0.0,0.0,0.0,0.0,0.0,0.0,0.0,0.0,0.0,0.0,0.0,0.0,0.0,0.0,0.0,0.0,0.0,0.0,0.0,0.0,0.0,0.0,0.0,0.0,0.0,0.0,0.0,0.0,0.0,0.0,0.0,0.0,0.0,0.0,0.0,0.0,0.0,0.0,0.0,0.0,0.0,0.0,0.0,0.0,0.0,0.0,0.0,0.0,0.0,0.0,0.0,0.0,0.0,0.0,0.0,0.0,0.0,0.0,0.0,0.0,0.0,0.0,0.0,0.0,0.0,0.0,0.0,0.0,0.0,0.0,0.0,0.0,0.0,0.0,0.0,0.0,0.0,0.0,0.0,0.0,0.0,0.0,0.0,0.0,0.0,0.0,0.0,0.0,0.0,0.0,0.0,0.0,0.0,0.0,0.0,0.0,0.0,0.0,0.0,0.0,0.0,0.0,0.0,0.0,0.0,0.0,0.0,0.0,0.0,0.0,0.0,0.0,0.0,0.0,0.0,0.0,0.0,0.0,0.0,0.0,0.0,0.0,0.0,0.0,0.0,0.0,0.0,0.0,0.0,0.0,0.0,0.0,0.0,0.0,0.0,0.0,0.0,0.0,0.0,0.0,0.0,0.0,0.0,0.0,0.0,0.0,0.0,0.0,0.0,0.0,0.0,0.0,0.0,0.0,0.0,0.0,0.0,0.0,0.0,0.0,0.0,0.0,0.0,0.0,0.0,0.0,0.0,0.0,0.0,0.0,0.0,0.0,0.0,0.0,0.0,0.0,0.0,0.0,0.0,0.0,0.0,0.0,0.0,0.0,0.0,0.0,0.0,0.0,0.0,0.0,0.0,0.0,0.0,0.0,0.0,0.0,0.0,0.0,0.0,0.0,0.0,0.0,0.0,0.0,0.0,0.0,0.0,0.0,0.0,0.0,0.0,0.0,0.0,0.0,0.0,0.0,0.0,0.0,0.0,0.0,0.0,0.0,0.0,0.0,0.0,0.0,0.0,0.0,0.0,0.0,0.0,0.0,0.0,0.0,0.0,0.0,0.0,0.0,0.0,0.0,0.0,0.0,0.0,0.0,0.0,0.0,0.0,0.0,0.0,0.0,0.0,0.0,0.0,0.0,0.0,0.0,0.0,0.0,0.0,0.0,0.0,0.0,0.0,0.0,0.0,0.0,0.0,0.0,0.0,0.0,0.0,0.0,0.0,0.0,0.0,0.0,0.0,0.0,0.0,0.0,0.0,0.0,0.0,0.0,0.0,0.0,0.0,0.0,0.0,0.0,0.0,0.0,0.0,0.0,0.0,0.0,0.0,0.0,0.0,0.0,0.0,0.0,0.0,0.0,0.0,0.0,0.0,0.0,0.0,0.0,0.0,0.0,0.0,0.0,0.0,0.0,0.0,0.0,0.0,0.0,0.0,0.0,0.0,0.0,0.0,0.0,0.0,0.0,0.0,0.0,0.0,0.0,0.0,0.0,0.0,0.0,0.0,0.0,0.0,0.0,0.0,0.0,0.0,0.0,0.0,0.0,0.0,0.0,0.0,0.0,0.0,0.0,0.0,0.0,0.0,0.0,0.0,0.0,0.0,0.0,0.0,0.0,0.0,0.0,0.0,0.0,0.0,0.0,0.0,0.0,0.0,0.0,0.0,0.0,0.0,0.0,0.0,0.0,0.0,0.0,0.0,0.0,0.0,0.0,0.0,0.0,0.0,0.0,0.0,0.0,0.0,0.0,0.0,0.0,0.0,0.0,0.0,0.0,0.0,0.0,0.0,0.0,0.0,0.0,0.0,0.0,0.0,0.0,0.0,0.0,0.0,0.0,0.0,0.0,0.0,0.0,0.0,0.0,0.0,0.0,0.0,0.0,0.0,0.0,0.0,0.0,0.0,0.0,0.0,0.0,0.0,0.0,0.0,0.0,0.0,0.0,0.0,0.0,0.0,0.0,0.0,0.0,0.0,0.0,0.0,0.0,0.0,0.0,0.0,0.0,0.0,0.0,0.0,0.0,0.0,0.0,0.0,0.0,0.0,0.0,0.0,0.0,0.0,0.0,0.0,0.0,0.0,0.0,0.0,0.0,0.0,0.0,0.0,0.0,0.0,0.0,0.0,0.0,0.0,0.0,0.0,0.0,0.0,0.0,0.0,0.0,0.0,0.0,0.0,0.0,0.0,0.0,0.0,0.0,0.0,0.0,0.0,0.0,0.0,0.0,0.0,0.0,0.0,0.0,0.0,0.0,0.0,0.0,0.0,0.0,0.0,0.0,0.0,0.0,0.0,0.0,0.0,0.0,0.0,0.0,0.0,0.0,0.0,0.0,0.0,0.0,0.0,0.0,0.0,0.0,0.0,0.0,0.0,0.0,0.0,0.0,0.0,0.0,0.0,0.0,0.0,0.0,0.0,0.0,0.0,0.0,0.0,0.0,0.0,0.0,0.0,0.0,0.0,0.0,0.0,0.0,0.0,0.0,0.0,0.0,0.0,0.0,0.0,0.0,0.0,0.0,0.0,0.0,0.0,0.0,0.0,0.0,0.0,0.0,0.0,0.0,0.0,0.0,0.0,0.0,0.0,0.0,0.0,0.0,0.0,0.0,0.0,0.0,0.0,0.0,0.0,0.0,0.0,0.0,0.0,0.0,0.0,0.0,0.0,0.0,0.0,0.0,0.0,0.0,0.0,0.0,0.0,0.0,0.0,0.0,0.0,0.0,0.0,0.0,0.0,0.0,0.0,0.0,0.0,0.0,0.0,0.0,0.0,0.0,0.0,0.0,0.0,0.0,0.0,0.0,0.0,0.0,0.0,0.0,0.0,0.0,0.0,0.0,0.0,0.0,0.0,0.0,0.0,0.0,0.0,0.0,0.0,0.0,0.0,0.0,0.0,0.0,0.0,0.0,0.0,0.0,0.0,0.0,0.0,0.0,0.0,0.0,0.0,0.0,0.0,0.0,0.0,0.0,0.0,0.0,0.0,0.0,0.0,0.0,0.0,0.0,0.0,0.0,0.0,0.0,0.0,0.0,0.0,0.0,0.0,0.0,0.0,0.0,0.0,0.0,0.0,0.0,0.0,0.0,0.0,0.0,0.0,0.0,0.0,0.0,0.0,0.0,0.0,0.0,0.0,0.0,0.0,0.0,0.0,0.0,0.0,0.0,0.0,0.0,0.0,0.0,0.0,0.0,0.0,0.0,0.0,0.0,0.0,0.0,0.0,0.0,0.0,0.0,0.0,0.0,0.0,0.0,0.0,0.0,0.0,0.0,0.0,0.0,0.0,0.0,0.0,0.0,0.0,0.0,0.0,0.0,0.0,0.0,0.0,0.0,0.0,0.0,0.0,0.0,0.0,0.0,0.0,0.0,0.0,0.0,0.0,0.0,0.0,0.0,0.0,0.0,0.0,0.0,0.0,0.0,0.0,0.0,0.0,0.0,-1.6143,0.0,0.0,0.0,0.0,0.0,0.0,0.0,0.0,0.0,0.0,0.0,0.0,0.0,0.0,0.0,0.0,0.0,0.0,0.0,0.0,0.0,0.0,0.0,0.0,0.0,0.0,0.0,0.0,0.0,0.0,0.0,0.0,0.0,0.0,0.0,0.0,0.0,0.0,0.0,0.0,0.0,0.0,0.0,0.0,0.0,0.0,0.0,0.0,0.0,0.0,0.0,0.0,0.0,0.0,0.0,0.0,0.0,0.0,0.0,0.0,0.0,0.0,0.0,0.0,0.0,0.0,0.0,0.0,0.0,0.0,0.0,0.0,0.0,0.0,0.0,0.0,0.0,0.0,0.0,0.0,0.0,0.0,0.0,0.0,0.0,0.0,0.0,0.0,0.0,0.0,0.0,0.0,0.0,0.0,0.0,0.0,0.0,0.0,0.0,0.0,0.0,0.0,0.0,0.0,0.0,0.0,0.0,0.0,0.0,0.0,0.0,0.0,0.0,0.0,0.0,0.0,-1.8005,0.0,0.0,0.0,0.0,0.0,0.0,0.0,0.0,0.0,0.0,0.0,0.0,0.0,0.0,0.0,0.0,0.0,0.0,0.0,0.0,0.0,0.0,0.0,0.0,0.0,0.0,0.0,0.0,0.0,0.0,0.0,0.0,0.0,0.0,0.0,0.0,0.0,0.0,0.0,0.0,0.0,0.0,0.0,0.0,0.0,0.0,0.0,0.0,0.0,0.0,0.0,0.0,0.0,0.0,0.0,0.0,0.0,0.0,0.0,0.0,0.0,0.0,0.0,0.0,0.0,0.0,0.0,0.0,0.0,0.0,0.0,0.0,0.0,0.0,0.0,0.0,0.0,0.0,0.0,0.0,0.0,0.0,0.0,0.0,0.0,0.0,0.0,0.0,0.0,0.0,0.0,0.0,0.0,0.0,0.0,0.0,0.0,0.0,0.0,0.0,0.0,0.0,0.0,0.0,0.0,0.0,0.0,0.0,-2.2315,-2.2988,-2.3282,-2.3844,-2.4216,-2.4289,-2.2164,-2.1061,-2.0803,-2.0873,0.0,0.0,0.0,0.0,0.0,0.0,0.0,0.0,0.0,0.0,0.0,0.0,0.0,0.0,0.0,0.0,0.0,0.0,0.0,0.0,0.0,0.0,0.0,0.0,0.0,0.0,0.0,0.0,0.0,0.0,0.0,0.0,0.0,0.0,0.0,0.0,0.0,0.0,-1.7726,-1.8276,-1.904,-1.9848,-1.8373,0.0,0.0,0.0,0.0,0.0,0.0,0.0,0.0,0.0,0.0,0.0,0.0,0.0,0.0,0.0,0.0,0.0,0.0,0.0,0.0,0.0,0.0,0.0,0.0,0.0,0.0,0.0,0.0,0.0,0.0,0.0,0.0,0.0,0.0,0.0,0.0,0.0,0.0,0.0,0.0,0.0,0.0,0.0,-0.9787,-1.1473,0.0,0.0,0.0,0.0,0.0,0.0,0.0,0.0,0.0,0.0,0.0,0.0,0.0,-2.1031,-2.1812,-2.2675,-2.3697,-2.4893,-2.5286,-2.5775,-2.633,-2.6712,-2.6867,-2.6822,-2.6652,0.0,-2.3565,-2.3585,0.0,0.0,0.0,0.0,0.0,0.0,0.0,0.0,0.0,0.0,0.0,0.0,0.0,0.0,0.0,0.0,0.0,0.0,0.0,0.0,0.0,0.0,0.0,0.0,0.0,0.0,0.0,0.0,0.0,0.0,0.0,0.0,0.0,0.0,0.0,0.0,-1.6847,-1.8024,-1.9191,-2.0126,-2.0953,-2.1753,-2.1318,-2.0653,-1.9769,-1.877,0.0,0.0,0.0,0.0,0.0,0.0,0.0,0.0,0.0,0.0,0.0,0.0,0.0,0.0,0.0,0.0,0.0,0.0,0.0,0.0,0.0,0.0,0.0,0.0,0.0,0.0,0.0,0.0,0.0,0.0,0.0,0.0,0.0,0.0,0.0,0.0,0.0,0.0,0.0,-1.0,-1.1539,-1.3262,-1.3927,-1.4709,0.0,0.0,0.0,0.0,0.0,0.0,0.0,0.0,0.0,-2.1608,-2.2794,-2.3928,-2.498,-2.58,-2.6746,-2.7735,-2.8318,-2.8763,-2.9096,-2.9363,-2.9502,-2.9557,-2.9722,-2.9263,-2.8263,-2.6875,-2.597,-2.5477,0.0,0.0,0.0,0.0,-2.3349,-2.3093,0.0,0.0,0.0,0.0,0.0,0.0,0.0,0.0,0.0,0.0,0.0,0.0,0.0,0.0,0.0,-1.3677,0.0,0.0,0.0,0.0,0.0,0.0,0.0,0.0,0.0,0.0,0.0,-1.7667,-1.8589,-1.9595,-2.0685,-2.1642,-2.2474,-2.3165,-2.3594,-2.299,-2.1556,-2.0668,-1.9859,0.0,0.0,0.0,0.0,0.0,0.0,0.0,0.0,0.0,0.0,0.0,0.0,0.0,0.0,0.0,0.0,0.0,0.0,0.0,0.0,0.0,0.0,0.0,0.0,0.0,0.0,0.0,0.0,0.0,0.0,0.0,0.0,0.0,0.0,0.0,0.0,0.0,0.0,-1.1836,-1.3366,-1.5265,-1.6202,-1.713,0.0,0.0,0.0,0.0,0.0,0.0,-2.1928,-2.2801,-2.3868,-2.5152,-2.5837,-2.6736,-2.7894,-2.8551,-2.9254,-3.0063,-3.0691,-3.1106,-3.1228,-3.1424,-3.1604,-3.1738,-3.1886,-3.2018,-3.2013,-2.9898,-2.8784,-2.8381,-2.8273,-2.7651,-2.6776,-2.6573,-2.6207,-2.5811,0.0,0.0,0.0,0.0,0.0,0.0,0.0,0.0,0.0,0.0,0.0,0.0,0.0,0.0,-1.4066,-1.5786,-1.6149,-1.6309,0.0,0.0,0.0,0.0,0.0,0.0,0.0,0.0,0.0,-1.8611,-1.9562,-2.0772,-2.2215,-2.2706,-2.353,-2.4586,-2.4608,-2.3916,-2.2684,-2.2191,-2.1151,-1.9773,0.0,0.0,0.0,0.0,0.0,0.0,0.0,0.0,0.0,0.0,0.0,0.0,0.0,0.0,0.0,0.0,0.0,0.0,0.0,0.0,0.0,0.0,0.0,0.0,0.0,0.0,0.0,0.0,0.0,0.0,0.0,0.0,0.0,0.0,0.0,0.0,0.0,0.0,0.0,-1.7643,-1.8636,0.0,0.0,0.0,0.0,-2.2129,-2.32,-2.4177,-2.4942,-2.6279,-2.7365,-2.8165,-2.8963,-2.9687,-3.0333,-3.0567,-3.1052,-3.1872,-3.2044,-3.2219,-3.2425,-3.2555,-3.2744,-3.2901,-3.3072,-3.3226,-3.332,-3.2261,-3.1868,-3.1827,-3.0703,-3.0289,-3.0175,-2.8835,-2.8419,-2.8529,0.0,0.0,0.0,0.0,0.0,0.0,0.0,0.0,0.0,0.0,0.0,0.0,0.0,-1.3559,-1.4977,-1.6411,-1.7288,-1.7788,-1.7923,0.0,0.0,0.0,0.0,0.0,0.0,0.0,-1.8837,-1.9595,-2.1176,-2.2248,-2.2783,-2.3886,-2.4778,-2.5475,-2.5782,-2.5505,-2.4739,-2.3902,-2.2851,-2.1665,-2.0574,-1.9266,0.0,0.0,0.0,0.0,0.0,0.0,0.0,0.0,0.0,0.0,0.0,0.0,0.0,0.0,0.0,0.0,0.0,0.0,0.0,0.0,0.0,0.0,0.0,0.0,0.0,0.0,0.0,0.0,0.0,0.0,0.0,0.0,0.0,0.0,0.0,0.0,0.0,-1.9536,-2.0758,0.0,-2.3191,-2.3997,-2.4647,-2.5153,-2.5939,-2.6748,-2.7469,-2.8481,-2.9416,-3.0183,-3.0993,-3.1893,-3.2869,-3.3091,-3.3561,-3.4382,-3.4556,-3.4744,-3.4951,-3.5122,-3.5307,-3.5524,-3.5663,-3.5814,-3.5968,-3.5746,-3.4773,-3.3314,-3.297,-3.2665,-3.2357,-3.1932,-3.1537,-3.1228,0.0,0.0,0.0,0.0,0.0,0.0,0.0,0.0,0.0,0.0,0.0,-1.0687,-1.253,-1.4277,-1.587,-1.7161,-1.816,-1.8796,-1.8938,0.0,0.0,0.0,-1.6914,0.0,0.0,-1.9012,-2.0031,-2.1078,-2.2379,-2.334,-2.3995,-2.4967,-2.5764,-2.6398,-2.6715,-2.6682,-2.631,-2.5429,-2.431,-2.3013,-2.1934,-2.0831,-1.9621,0.0,0.0,0.0,0.0,0.0,0.0,0.0,0.0,0.0,0.0,0.0,0.0,0.0,0.0,0.0,0.0,0.0,0.0,0.0,0.0,0.0,0.0,0.0,0.0,0.0,0.0,0.0,0.0,0.0,0.0,0.0,0.0,0.0,0.0,0.0,-1.9556,-2.1341,-2.2864,-2.4189,-2.5259,-2.6239,-2.7037,-2.7566,-2.8432,-2.9203,-2.9901,-3.0692,-3.1481,-3.234,-3.2919,-3.3648,-3.4534,-3.4657,-3.5036,-3.5601,-3.5783,-3.6,-3.6194,-3.6422,-3.6614,-3.6805,-3.6965,-3.7124,-3.7316,-3.7522,-3.6667,-3.5228,-3.4973,-3.4666,-3.431,-3.401,-3.3604,-3.3246,0.0,0.0,0.0,0.0,0.0,0.0,0.0,0.0,0.0,0.0,-0.9978,-1.1637,-1.3058,-1.4992,-1.6726,-1.8085,-1.8815,-1.9273,-1.9409,-1.943,0.0,0.0,0.0,0.0,-1.9889,-2.0096,-2.111,-2.3001,-2.3045,-2.4039,-2.5895,-2.5917,-2.6431,-2.7337,-2.7337,-2.7337,-2.726,-2.6824,-2.5526,-2.3694,-2.2735,-2.2084,-2.1428,0.0,0.0,0.0,0.0,0.0,0.0,0.0,0.0,0.0,0.0,0.0,0.0,0.0,0.0,0.0,0.0,0.0,0.0,0.0,0.0,0.0,0.0,0.0,0.0,0.0,0.0,0.0,0.0,0.0,0.0,0.0,0.0,0.0,-1.6991,-1.9081,-2.1277,-2.3091,-2.4934,-2.6301,-2.6912,-2.8365,-2.9262,-2.9262,-3.0586,-3.1626,-3.2209,-3.2936,-3.371,-3.4609,-3.4746,-3.4971,-3.5245,-3.5245,-3.5319,-3.5467,-3.5658,-3.5877,-3.6072,-3.6252,-3.648,-3.6672,-3.6864,-3.7024,-3.7184,-3.7376,-3.7582,-3.7647,-3.6645,-3.6255,-3.6118,-3.5016,-3.4613,-3.4627,0.0,0.0,0.0,0.0,0.0,0.0,0.0,0.0,0.0,0.0,-0.9813,-1.1392,-1.3278,-1.5117,-1.6715,-1.7943,-1.9083,-1.9717,-1.9771,0.0,0.0,0.0,0.0,0.0,-2.0042,-2.147,-2.2466,-2.3001,-2.4061,-2.5033,-2.5906,-2.6267,-2.6889,-2.7794,-2.7794,-2.7749,-2.7558,-2.7439,-2.6594,-2.5198,-2.4083,-2.3134,-2.2258,0.0,0.0,0.0,0.0,0.0,0.0,0.0,0.0,0.0,0.0,0.0,0.0,0.0,0.0,0.0,0.0,0.0,0.0,0.0,0.0,0.0,0.0,0.0,0.0,0.0,0.0,0.0,0.0,0.0,0.0,0.0,0.0,-1.9497,-1.9179,-2.1363,-2.3609,-2.5319,-2.6818,-2.8003,-2.871,-2.9945,-3.085,-3.1164,-3.229,-3.3106,-3.342,-3.3758,-3.4279,-3.5,-3.536,-3.576,-3.6283,-3.641,-3.6602,-3.6793,-3.6983,-3.7171,-3.7359,-3.7583,-3.7805,-3.7989,-3.804,-3.8259,-3.857,-3.8606,-3.8749,-3.8807,-3.7726,-3.743,-3.7617,-3.7315,-3.6981,-3.6599,0.0,0.0,0.0,0.0,0.0,0.0,0.0,0.0,0.0,0.0,-0.9867,-1.1493,-1.3096,-1.4904,-1.6418,-1.7519,-1.8532,-1.9201,-1.9458,0.0,0.0,0.0,0.0,-2.0729,-2.1296,-2.2433,-2.3296,-2.3908,-2.48,-2.5622,-2.6496,-2.678,-2.7424,-2.8342,-2.8204,-2.8112,-2.7963,-2.7678,-2.7016,-2.6115,-2.5104,-2.4217,-2.3324,-2.213,-2.1072,-2.0143,-1.9652,-1.889,-1.8024,-1.7345,0.0,0.0,0.0,0.0,0.0,0.0,0.0,0.0,0.0,0.0,0.0,0.0,0.0,0.0,0.0,0.0,0.0,0.0,0.0,0.0,0.0,0.0,0.0,0.0,-2.0817,-2.2038,-2.232,-2.3739,-2.5338,-2.6924,-2.8239,-2.9304,-3.0036,-3.1027,-3.1847,-3.2326,-3.3361,-3.4014,-3.417,-3.4595,-3.5051,-3.5552,-3.588,-3.6242,-3.6721,-3.6875,-3.707,-3.7187,-3.738,-3.7586,-3.7777,-3.7991,-3.8179,-3.8366,-3.8441,-3.8627,-3.8848,-3.9031,-3.9177,0.0,0.0,0.0,0.0,0.0,-3.8083,-3.7861,0.0,0.0,0.0,0.0,0.0,0.0,0.0,0.0,0.0,0.0,0.0,-1.1635,-1.2682,-1.4432,-1.5924,-1.6901,-1.7559,-1.8195,0.0,0.0,0.0,-2.0872,-2.0949,-2.1627,-2.2968,-2.311,-2.3831,-2.5215,-2.527,-2.5961,-2.7315,-2.7271,-2.7794,-2.8757,-2.8488,-2.8348,-2.8279,-2.7629,-2.7013,-2.6494,-2.5893,-2.5146,-2.431,-2.3023,-2.2216,-2.1664,-2.0971,-2.0136,-1.9297,-1.8998,0.0,0.0,0.0,0.0,0.0,0.0,0.0,0.0,0.0,0.0,0.0,0.0,0.0,0.0,0.0,0.0,0.0,0.0,0.0,0.0,0.0,0.0,0.0,0.0,-2.2947,-2.4482,-2.567,-2.6135,-2.6829,-2.8186,-2.9279,-3.0269,-3.1079,-3.1807,-3.2475,-3.3067,-3.4006,-3.454,-3.4619,0.0,0.0,0.0,0.0,-3.6484,-3.6682,-3.685,-3.6993,-3.6978,-3.7187,-3.7419,-3.7625,-3.7815,-3.7991,-3.8202,-3.8404,-3.8478,-3.8516,-3.8922,-3.9104,-3.9118,-3.8892,-3.8807,-3.8767,-3.8446,-3.8402,-3.855,0.0,0.0,0.0,0.0,0.0,0.0,0.0,0.0,0.0,-0.8122,-0.9512,-1.0947,-1.2459,-1.3753,-1.4994,-1.6253,-1.6931,-1.7817,0.0,0.0,-1.9803,-2.085,-2.1266,-2.1931,-2.2979,-2.3787,-2.4519,-2.5215,-2.5568,-2.6289,-2.7315,-2.7116,-2.759,-2.8488,-2.8196,-2.7961,-2.7726,-2.7584,-2.6966,-2.601,-2.5872,-2.5213,-2.4178,-2.3526,-2.2748,-2.1987,-2.1637,-2.1214,-2.0816,-2.0375,-2.002,-1.9539,-1.8509,0.0,0.0,0.0,0.0,0.0,0.0,0.0,0.0,0.0,0.0,0.0,0.0,0.0,0.0,0.0,0.0,0.0,0.0,0.0,0.0,-2.3335,-2.5093,-2.6611,-2.7293,-2.8337,-2.9214,-2.9643,-3.0433,-3.1267,-3.2044,-3.2655,-3.3193,-3.3673,-3.4349,-3.4872,-3.5224,-3.5372,-3.5562,-3.5764,-3.6032,-3.6246,-3.6484,-3.6668,-3.685,-3.6978,0.0,0.0,-3.7625,-3.7815,-3.7991,-3.8202,-3.824,-3.8366,-3.8516,-3.876,-3.9068,-3.9358,-3.9439,-3.95,-3.9481,-3.9131,-3.8971,-3.8823,0.0,0.0,0.0,0.0,0.0,0.0,0.0,0.0,0.0,0.0,-0.89,-1.0164,-1.1361,-1.2672,-1.3838,-1.4811,-1.5969,0.0,0.0,-1.8793,-1.9717,-2.1177,-2.1461,-2.2149,-2.334,-2.4104,-2.4716,-2.5215,-2.5666,-2.6344,-2.716,-2.7038,-2.7409,-2.8196,-2.7914,-2.7726,-2.7584,-2.7489,-2.6863,-2.5875,-2.5875,-2.5155,-2.3992,-2.3523,-2.3054,-2.2592,-2.2081,-2.1644,-2.1328,-2.119,-2.0943,-2.0529,-1.9565,-1.9193,-1.8865,0.0,0.0,0.0,0.0,0.0,0.0,0.0,0.0,0.0,0.0,0.0,0.0,0.0,0.0,-2.0688,0.0,0.0,-2.4449,-2.5085,-2.6492,-2.7742,-2.8511,-2.9422,-3.0154,-3.0455,-3.1055,-3.1775,-3.2566,-3.2985,-3.3433,-3.3966,-3.4515,-3.488,-3.5086,-3.5277,-3.544,-3.5562,-3.5912,-3.6206,-3.6405,-3.6603,-3.6786,-3.6978,-3.7109,-3.7303,-3.7625,-3.7701,-3.7915,-3.8202,-3.8202,-3.824,-3.8352,-3.8686,-3.9173,-3.9748,-3.9616,-3.9625,-3.9687,-3.9516,-3.948,-3.9449,0.0,0.0,0.0,0.0,0.0,0.0,0.0,0.0,0.0,0.0,-0.8161,-0.9321,-1.0148,-1.1438,-1.2561,0.0,0.0,0.0,0.0,-1.8243,-1.9512,-2.1208,-2.1483,-2.2215,-2.3558,-2.4082,-2.4618,-2.5123,-2.5515,-2.6043,-2.6775,-2.6764,-2.7123,-2.7766,-2.7542,-2.7411,-2.7411,-2.7222,-2.6635,-2.5751,-2.5706,-2.4952,-2.3784,-2.3278,-2.3051,-2.2976,-2.2185,-2.1686,-2.1424,-2.1475,-2.1336,-2.0962,-2.02,-1.9987,-1.9867,-1.8742,-1.8456,0.0,0.0,0.0,0.0,0.0,0.0,0.0,0.0,0.0,-2.0796,-2.1765,-2.2292,-2.2935,-2.42,-2.5147,-2.5913,-2.6505,-2.7489,-2.8458,-2.931,-2.9997,-3.0555,-3.1017,-3.1501,-3.2117,-3.2909,-3.3155,-3.3459,-3.405,-3.4465,-3.4714,-3.4797,-3.5113,-3.5358,-3.5399,-3.5817,-3.6152,-3.6405,-3.6563,-3.6842,-3.7161,-3.7161,-3.7466,-3.7982,-3.7982,-3.8198,-3.8565,-3.8565,-3.8565,-3.8655,-3.9016,-3.9639,-4.0256,-3.9934,-3.9907,-4.0007,-3.9787,-3.9768,-3.9889,0.0,0.0,0.0,0.0,0.0,0.0,0.0,0.0,0.0,0.0,0.0,0.0,0.0,0.0,0.0,0.0,0.0,0.0,-1.6477,-1.7624,-1.8805,-2.0052,-2.1054,-2.2062,-2.3056,-2.3569,-2.4139,-2.4856,-2.491,-2.5303,-2.6031,-2.5856,-2.623,-2.7079,-2.6837,-2.6687,-2.6687,-2.6698,-2.6134,-2.5261,-2.5084,-2.4423,-2.3472,-2.2817,-2.2564,-2.2449,-2.1528,-2.1303,-2.1345,-2.0925,-2.0625,-2.0416,-2.0479,-2.0246,-1.9825,-1.9398,0.0,-1.924,-1.8309,-1.8451,-1.8992,-1.9622,-2.0509,-2.1401,0.0,0.0,-2.3213,-2.3943,-2.4478,-2.4923,-2.5282,-2.6354,-2.7183,-2.7281,-2.8096,-2.8889,-2.9504,-3.0241,-3.0988,-3.1709,-3.2018,-3.2466,-3.3259,-3.3352,-3.359,-3.4076,-3.416,-3.4382,-3.4756,-3.5003,-3.5236,-3.5399,-3.5642,-3.5978,-3.6405,-3.6445,-3.6893,-3.7793,-3.7793,-3.8328,-3.9282,-3.9282,-3.9506,-3.9886,-3.9886,-4.0003,-4.0174,-4.0459,-4.0749,-4.1014,-4.1129,-4.1197,-4.1085,-4.0082,-3.9589,-3.9496,0.0,0.0,0.0,0.0,0.0,0.0,0.0,0.0,0.0,0.0,0.0,0.0,0.0,0.0,0.0,0.0,0.0,0.0,-1.5565,-1.6747,-1.8143,-1.9835,-2.0433,-2.1296,-2.2575,-2.3067,-2.352,-2.4007,-2.4546,-2.4994,-2.5326,-2.5514,-2.5866,-2.6358,-2.6256,-2.621,-2.6165,-2.6048,-2.5478,-2.4592,-2.4395,-2.3628,-2.2494,-2.1949,-2.1593,-2.1359,-2.1046,-2.0865,0.0,0.0,-2.0544,-2.0484,-2.03,-2.0281,-2.0224,-1.9814,-1.9998,0.0,-2.0204,-2.0412,0.0,0.0,-2.2701,-2.3886,-2.4212,-2.4948,-2.5784,-2.6368,-2.6753,-2.7034,-2.7114,-2.7653,-2.8002,0.0,-2.8116,-2.8679,-2.933,-3.0068,-3.0879,-3.163,-3.2177,-3.2677,-3.3172,-3.3313,-3.3484,-3.3696,-3.3949,-3.4215,-3.4382,-3.4714,-3.5003,-3.5236,-3.5763,-3.6321,-3.693,-3.7275,-3.781,-3.8454,-3.8454,-3.8837,-3.9482,-3.9482,-3.9707,-4.0104,-4.0104,-4.0143,-4.0222,-4.0471,-4.09,-4.1405,-4.1267,-4.1547,-4.1871,-4.1018,-4.0396,-3.9993,0.0,0.0,0.0,0.0,0.0,0.0,0.0,0.0,0.0,0.0,0.0,0.0,0.0,0.0,0.0,0.0,0.0,0.0,0.0,-1.5831,-1.7275,-1.8922,-1.9663,-2.0531,-2.1515,-2.2194,-2.2691,-2.3028,-2.3702,-2.4181,-2.4451,-2.4797,-2.5065,-2.5326,-2.5282,-2.5228,-2.5228,-2.5026,-2.4489,-2.3713,-2.339,-2.2622,-2.1539,-2.0919,-2.0359,-2.0008,-2.0133,-2.0089,0.0,0.0,-1.971,-1.985,-1.9695,-1.9834,-2.008,-2.0028,-2.0571,-2.1328,-2.1843,0.0,0.0,-2.325,-2.4625,-2.5847,-2.5887,-2.6687,-2.7539,-2.7903,-2.7996,-2.8031,-2.8115,-2.8184,0.0,-2.7847,-2.799,-2.8369,-2.9097,-2.9699,-3.0391,-3.1363,-3.1951,-3.2463,-3.2927,-3.3197,-3.3356,-3.3398,-3.3781,-3.4034,-3.4118,-3.4548,-3.4959,-3.5353,-3.5975,-3.6687,-3.7551,-3.7979,-3.8533,-3.9169,-3.9169,-3.9404,-3.9914,-4.0036,-4.032,-4.0655,-4.0655,-4.0655,-4.0655,-4.0854,-4.1331,-4.1871,-4.1651,-4.195,-4.241,-4.1948,-4.1308,-4.0666,0.0,0.0,0.0,0.0,0.0,0.0,0.0,0.0,0.0,0.0,0.0,0.0,0.0,0.0,0.0,0.0,0.0,0.0,0.0,-1.4977,-1.6157,-1.6662,-1.8762,-1.9823,-1.9702,-2.0801,-2.1628,-2.2122,-2.2153,-2.2569,-2.3266,-2.3287,-2.3535,-2.3939,-2.3668,-2.3584,-2.3542,-2.3353,-2.3007,-2.2584,-2.193,-2.1382,-2.0836,-1.976,-1.8941,-1.8397,-1.86,0.0,0.0,-1.788,-1.7688,-1.7885,-1.8553,-1.8754,0.0,-2.0007,-2.1075,-2.2118,0.0,0.0,-2.4588,-2.526,-2.6141,-2.6914,-2.7084,-2.7583,-2.7974,-2.7985,-2.7648,-2.7397,-2.7609,-2.7398,-2.729,-2.7482,-2.7748,-2.8179,-2.8933,-2.9017,-2.9564,-3.1022,-3.1254,-3.1645,0.0,-3.2939,-3.3197,-3.3398,-3.3598,-3.381,-3.4076,-3.4548,-3.5145,-3.594,-3.6189,-3.689,-3.8159,-3.8186,-3.8741,-3.9746,-3.9746,-4.0182,-4.0986,-4.1421,-4.1784,-4.2034,-4.2034,-4.2034,-4.2075,-4.2266,-4.2348,-4.2404,-4.2563,-4.2684,-4.2699,-4.2684,-4.211,-4.1354,0.0,0.0,0.0,0.0,0.0,0.0,0.0,0.0,0.0,0.0,0.0,0.0,0.0,0.0,0.0,0.0,0.0,0.0,0.0,-1.3606,-1.4921,-1.5706,-1.7084,-1.8102,-1.8731,-1.9671,-2.0358,-2.0761,-2.1335,-2.1684,-2.1818,-2.2128,-2.2278,-2.2314,-2.2225,-2.2107,-2.2017,-2.1769,-2.144,-2.1041,-2.0641,-2.0035,-1.9291,-1.8688,-1.812,-1.7612,0.0,0.0,0.0,-1.7573,-1.7543,-1.7677,-1.8289,-1.8771,-1.9425,-2.1172,-2.1961,-2.2553,0.0,0.0,-2.5487,-2.644,-2.7536,-2.8387,-2.8432,-2.9002,-2.9272,-2.8679,-2.841,-2.8028,-2.7113,-2.687,-2.6767,-2.668,-2.6835,-2.7208,-2.7912,-2.8562,-2.9308,-3.0151,-3.0822,0.0,0.0,0.0,0.0,-3.3197,-3.3513,-3.3755,-3.3852,-3.465,-3.5387,-3.598,-3.6783,-3.7679,-3.8582,-3.9109,-3.967,-4.0207,-4.0463,-4.0718,-4.1043,-4.1479,-4.1744,-4.1841,-4.1995,-4.2092,-4.2092,-4.2175,-4.2284,-4.2392,-4.2459,-4.2581,-4.2688,-4.2688,-4.2488,-4.2179,0.0,0.0,0.0,0.0,0.0,0.0,0.0,0.0,0.0,0.0,0.0,0.0,0.0,0.0,0.0,0.0,0.0,0.0,0.0,0.0,-1.3569,-1.466,-1.5701,-1.6623,-1.7368,-1.8289,-1.8934,-1.9233,-1.9975,-2.0365,-2.0389,-2.0653,-2.0699,-2.0553,-2.0433,-2.0323,-2.0203,-1.9982,-1.9713,-1.9446,-1.9144,-1.8682,-1.8105,-1.7363,-1.6914,0.0,0.0,0.0,-1.6417,-1.6567,-1.69,-1.7369,-1.81,-1.9191,-2.0494,-2.2066,-2.2893,-2.3589,0.0,-2.598,-2.6811,-2.7713,-2.8606,-2.9242,-2.9242,-2.9314,-2.9209,-2.841,-2.801,-2.7377,-2.6188,-2.5943,-2.5867,-2.5599,-2.6023,-2.6577,-2.7088,-2.79,-2.8787,-2.9689,-3.0356,0.0,0.0,0.0,0.0,-3.3068,-3.3471,-3.3713,-3.3713,-3.4705,-3.5591,-3.6313,-3.7234,-3.8155,-3.9084,-3.9729,-4.0184,-4.0515,-4.0773,-4.0916,-4.1001,-4.1296,-4.1521,-4.1688,-4.1883,-4.1995,-4.2092,-4.2092,-4.2175,-4.2284,-4.2284,-4.2351,-4.2474,-4.2474,-4.2474,-4.2441,0.0,0.0,0.0,0.0,0.0,0.0,0.0,0.0,0.0,0.0,0.0,0.0,0.0,0.0,0.0,0.0,0.0,0.0,0.0,0.0,0.0,-1.34,-1.4551,-1.5321,-1.5604,-1.6639,-1.731,-1.7595,-1.8071,-1.8538,-1.893,-1.8818,-1.8762,-1.8729,-1.8352,-1.8174,-1.814,-1.7939,-1.7871,-1.7808,-1.7441,-1.7266,-1.7119,-1.5859,0.0,0.0,0.0,0.0,0.0,0.0,0.0,0.0,0.0,-1.9943,-2.198,-2.2684,-2.3874,-2.5176,-2.628,-2.7487,-2.8509,-2.9015,-2.9304,-2.951,-2.9441,-2.8689,-2.7838,-2.7271,-2.642,-2.5565,0.0,0.0,-2.4581,-2.4366,-2.5278,-2.6172,-2.645,-2.7025,-2.8005,0.0,0.0,0.0,0.0,0.0,0.0,-3.3038,0.0,-3.3683,-3.3764,-3.4756,-3.5828,-3.6884,-3.7443,-3.837,-3.9642,-3.9878,-4.0213,-4.0702,-4.0702,-4.0816,-4.1001,-4.1001,-4.1254,-4.1646,-4.1688,-4.1841,-4.2051,-4.2092,-4.2092,-4.2092,-4.2092,-4.2092,-4.2092,-4.2092,-4.2092,-4.2092,0.0,0.0,0.0,0.0,0.0,0.0,0.0,0.0,0.0,0.0,0.0,0.0,0.0,0.0,0.0,0.0,0.0,0.0,0.0,0.0,0.0,0.0,0.0,0.0,0.0,0.0,0.0,0.0,-1.6693,-1.6913,-1.6937,-1.6918,-1.6768,-1.6497,-1.6397,-1.6266,-1.6135,-1.5983,-1.5912,-1.5912,0.0,-1.5484,-1.5294,0.0,0.0,0.0,0.0,0.0,0.0,0.0,0.0,0.0,0.0,-2.0884,-2.2542,-2.3722,-2.4823,-2.5909,-2.7022,-2.7799,-2.8549,-2.9611,-2.9646,-2.9331,-2.8978,-2.8211,-2.7106,-2.5615,-2.483,-2.4014,0.0,0.0,0.0,-2.3352,-2.3782,0.0,-2.6064,-2.6565,0.0,0.0,0.0,-3.0317,-3.1653,-3.2169,0.0,0.0,-3.3227,-3.3747,-3.4353,-3.521,-3.6144,-3.7233,-3.798,-3.8608,-3.91,-3.9689,-4.014,-4.0471,-4.063,-4.073,-4.0773,-4.0916,-4.1085,-4.117,-4.1367,-4.1522,-4.1578,-4.1717,-4.1785,-4.1841,-4.1995,-4.2092,-4.2092,-4.2092,-4.198,-4.18,0.0,0.0,0.0,0.0,0.0,0.0,0.0,0.0,0.0,0.0,0.0,0.0,0.0,0.0,0.0,0.0,0.0,0.0,0.0,0.0,0.0,0.0,0.0,0.0,0.0,0.0,0.0,0.0,0.0,0.0,0.0,-1.5368,-1.5303,-1.5107,-1.5023,-1.4901,-1.4769,-1.4628,0.0,0.0,0.0,0.0,0.0,0.0,0.0,0.0,0.0,0.0,0.0,0.0,0.0,-1.9055,-2.0353,-2.1896,-2.3505,-2.4745,0.0,-2.677,-2.7997,-2.8634,-2.9108,-2.9775,-2.9664,-2.9179,-2.8343,-2.7256,-2.5957,-2.4068,-2.3129,0.0,0.0,0.0,0.0,0.0,0.0,0.0,-2.5043,-2.591,-2.7024,0.0,-2.9378,0.0,-3.1388,-3.1937,-3.2399,0.0,-3.342,-3.3992,-3.4584,-3.5574,-3.6525,-3.7382,-3.8071,-3.8621,-3.9056,-3.9615,-3.998,-4.0255,-4.0457,-4.0544,-4.0587,-4.0773,-4.093,-4.1001,0.0,-4.1297,-4.1396,-4.1507,-4.1591,-4.1577,-4.1731,-4.1787,-4.1787,-4.1787,-4.1689,-4.1591,0.0,0.0,0.0,0.0,0.0,0.0,0.0,0.0,0.0,0.0,0.0,0.0,0.0,0.0,0.0,0.0,0.0,0.0,0.0,0.0,0.0,0.0,0.0,0.0,0.0,0.0,0.0,0.0,0.0,0.0,0.0,0.0,0.0,0.0,0.0,0.0,0.0,0.0,0.0,0.0,0.0,0.0,0.0,0.0,0.0,0.0,0.0,0.0,0.0,0.0,-1.836,-1.98,-2.1098,-2.2747,-2.4451,-2.5502,-2.6574,-2.7648,-2.8836,-2.9444,-2.9721,-2.9658,-2.94,-2.8847,-2.7494,-2.604,-2.4413,-2.2541,0.0,0.0,-1.8892,0.0,-1.9458,-1.9684,0.0,-2.2509,-2.378,-2.5127,-2.6616,-2.8356,-2.9029,-2.9816,-3.1015,-3.1625,-3.2301,-3.3073,-3.3827,-3.4388,-3.4771,-3.5916,-3.6845,-3.75,-3.7962,-3.853,-3.9247,-3.9496,-3.9774,-3.9966,-4.0211,-4.0356,-4.0399,-4.0587,-4.0773,-4.0958,-4.0958,0.0,-4.1311,-4.1354,-4.1354,-4.1354,-4.1396,-4.1396,-4.1396,-4.1396,-4.1396,-4.1354,0.0,0.0,0.0,0.0,0.0,0.0,0.0,0.0,0.0,0.0,-0.5015,0.0,0.0,0.0,0.0,0.0,0.0,0.0,0.0,0.0,0.0,0.0,0.0,0.0,0.0,0.0,0.0,0.0,0.0,0.0,0.0,0.0,0.0,0.0,0.0,0.0,0.0,0.0,0.0,0.0,0.0,0.0,0.0,0.0,0.0,0.0,0.0,0.0,0.0,0.0,-1.836,-1.9823,-2.1181,-2.2914,-2.4549,-2.5164,-2.6591,-2.8112,-2.8348,-2.9127,-2.9829,-2.9445,-2.8769,-2.7831,-2.6447,-2.4491,0.0,0.0,0.0,-1.7989,-1.703,-1.7336,0.0,-1.8797,0.0,0.0,0.0,0.0,-2.5334,0.0,0.0,0.0,0.0,0.0,0.0,0.0,0.0,-3.4743,-3.5625,-3.6115,-3.6891,-3.8009,-3.816,-3.8427,-3.8953,-3.9247,-3.9496,-3.973,-3.998,-4.0198,-4.0399,-4.0442,-4.0544,-4.073,-4.073,0.0,-4.083,-4.1015,-4.1057,-4.11,-4.1297,-4.1396,-4.1396,-4.1396,-4.1255,-4.1057,0.0,0.0,0.0,0.0,0.0,0.0,0.0,0.0,0.0,-0.5219,-0.5642,-0.6109,0.0,0.0,0.0,0.0,0.0,0.0,0.0,0.0,0.0,0.0,0.0,0.0,0.0,0.0,0.0,0.0,0.0,0.0,0.0,0.0,0.0,0.0,0.0,0.0,0.0,0.0,0.0,0.0,0.0,0.0,0.0,0.0,0.0,0.0,0.0,0.0,0.0,0.0,-1.7678,-1.9136,-2.1006,-2.2707,-2.4167,-2.5203,-2.637,-2.7418,-2.7894,-2.8533,-2.8952,-2.85,-2.7796,-2.6796,-2.5093,0.0,0.0,0.0,0.0,-1.6619,-1.5825,0.0,0.0,0.0,0.0,0.0,0.0,0.0,0.0,0.0,0.0,0.0,0.0,0.0,0.0,0.0,0.0,-3.4759,-3.5655,-3.6361,-3.7057,-3.7802,-3.7985,-3.82,-3.8517,-3.8922,-3.9158,-3.9305,-3.9672,-3.9906,-4.0051,-4.0154,-4.0227,-4.0343,-4.0501,0.0,-4.0544,-4.0773,-4.0845,-4.0859,-4.1001,-4.1043,-4.1043,-4.1043,-4.0944,-4.0845,0.0,0.0,0.0,0.0,0.0,0.0,0.0,-0.4073,-0.5057,-0.5574,-0.6305,-0.6804,-0.6883,-0.7325,-0.7656,0.0,0.0,0.0,0.0,0.0,0.0,0.0,0.0,0.0,0.0,0.0,0.0,0.0,0.0,0.0,0.0,0.0,0.0,0.0,0.0,0.0,0.0,0.0,0.0,0.0,0.0,0.0,0.0,0.0,0.0,0.0,0.0,0.0,0.0,0.0,-1.6679,-1.7935,-2.0155,-2.1943,-2.3495,-2.484,-2.5782,-2.6599,-2.7312,-2.7824,-2.8024,-2.7484,-2.6822,-2.5766,-2.382,-2.1857,0.0,0.0,-1.634,-1.5325,-1.4656,0.0,0.0,0.0,0.0,0.0,0.0,0.0,0.0,0.0,0.0,0.0,0.0,0.0,0.0,0.0,0.0,0.0,-3.5624,-3.654,-3.7155,-3.7413,-3.7677,-3.7893,-3.8122,-3.8549,-3.8774,-3.8832,-3.9305,-3.9554,-3.9598,-3.9848,-3.9966,-3.9996,-4.0198,0.0,0.0,-4.0487,-4.0573,-4.063,-4.063,-4.0659,-4.0702,-4.0702,-4.0702,-4.0702,0.0,0.0,0.0,0.0,0.0,0.0,0.0,-0.4413,-0.5516,-0.5756,-0.668,-0.7375,-0.7502,-0.7622,-0.7744,0.0,0.0,0.0,0.0,0.0,0.0,0.0,0.0,0.0,0.0,0.0,0.0,0.0,0.0,0.0,0.0,0.0,0.0,0.0,0.0,0.0,0.0,0.0,0.0,0.0,0.0,0.0,0.0,0.0,0.0,0.0,0.0,0.0,0.0,0.0,0.0,-1.6129,-1.7878,-2.0216,-2.2475,-2.3227,0.0,0.0,-2.6248,-2.7062,-2.7723,-2.6826,-2.594,-2.4876,-2.3089,0.0,0.0,0.0,-1.5063,-1.3522,-1.3078,-1.3395,-1.4045,0.0,0.0,0.0,0.0,0.0,0.0,0.0,0.0,0.0,0.0,0.0,0.0,0.0,0.0,0.0,-3.6282,-3.6602,-3.6862,-3.7108,-3.74,-3.7677,-3.7939,-3.8167,-3.8395,-3.8647,-3.8877,-3.91,-3.9349,-3.9598,-3.9818,-3.9996,-4.0053,0.0,0.0,-4.0053,-4.0198,-4.0442,-4.0442,-4.0544,-4.0702,-4.0702,-4.0702,-4.0702,0.0,0.0,0.0,0.0,0.0,0.0,0.0,-0.4088,-0.5086,-0.5772,-0.6551,-0.7192,-0.7613,-0.7759,-0.7875,0.0,0.0,0.0,0.0,0.0,0.0,0.0,0.0,0.0,0.0,0.0,0.0,0.0,0.0,0.0,0.0,0.0,0.0,0.0,0.0,0.0,0.0,0.0,0.0,0.0,0.0,0.0,0.0,0.0,0.0,0.0,0.0,0.0,0.0,0.0,0.0,0.0,-1.6435,-1.8116,0.0,0.0,-2.3145,-2.4173,-2.4621,-2.5377,-2.5894,-2.5275,-2.4355,-2.3207,-2.1599,0.0,0.0,-1.554,-1.4156,-1.3061,-1.2491,-1.2783,-1.3354,0.0,0.0,0.0,0.0,0.0,0.0,0.0,0.0,0.0,0.0,0.0,0.0,0.0,0.0,0.0,-3.5644,-3.6038,-3.6465,-3.6862,-3.6956,-3.7155,-3.7433,-3.7802,-3.8076,-3.8181,-3.8544,-3.8769,-3.8904,-3.9114,-3.9234,-3.9367,-3.9659,0.0,0.0,-3.9966,-4.0053,-4.0154,-4.0154,-4.0184,-4.0257,-4.0257,-4.0257,-4.0257,0.0,0.0,0.0,0.0,0.0,-0.2476,-0.3022,-0.3852,-0.4735,-0.558,-0.6237,-0.6793,-0.7263,-0.7435,-0.7572,-0.7712,0.0,0.0,0.0,0.0,0.0,0.0,0.0,0.0,0.0,0.0,0.0,0.0,0.0,0.0,0.0,0.0,0.0,0.0,0.0,0.0,0.0,0.0,0.0,0.0,0.0,0.0,0.0,0.0,0.0,0.0,0.0,0.0,0.0,0.0,0.0,0.0,0.0,0.0,0.0,0.0,-2.1435,-2.2289,-2.2887,-2.3437,-2.3772,-2.3467,-2.2591,-2.1431,0.0,0.0,-1.6098,-1.4552,-1.3412,-1.2497,-1.1936,-1.2246,-1.2773,-1.3318,0.0,0.0,0.0,0.0,0.0,0.0,0.0,0.0,0.0,0.0,0.0,0.0,0.0,0.0,0.0,-3.5524,-3.5991,-3.6499,-3.6581,-3.6722,-3.6968,-3.7433,-3.7723,-3.7769,-3.8181,-3.8408,-3.8498,-3.8711,-3.8832,-3.8832,-3.9261,0.0,0.0,-3.9703,-3.9834,-3.9922,-3.9922,-3.9966,-3.9996,-3.9996,-3.9996,-3.9996,0.0,0.0,0.0,0.0,0.0,0.0,0.0,-0.3889,-0.4665,-0.5143,-0.5791,-0.626,-0.6392,-0.6535,-0.6677,-0.6797,0.0,0.0,0.0,0.0,0.0,0.0,0.0,0.0,0.0,0.0,-0.9231,-0.9103,-0.9974,0.0,0.0,0.0,0.0,0.0,0.0,0.0,0.0,0.0,0.0,0.0,0.0,0.0,0.0,0.0,0.0,0.0,0.0,0.0,0.0,0.0,0.0,0.0,0.0,0.0,0.0,0.0,-1.9745,-2.0821,-2.124,-2.147,-2.1627,-2.1566,-2.0731,-1.9707,0.0,0.0,-1.5186,-1.4289,-1.2831,-1.1606,-1.1276,-1.1693,-1.2279,-1.281,-1.4097,0.0,0.0,0.0,0.0,0.0,0.0,0.0,0.0,0.0,0.0,0.0,0.0,0.0,0.0,-3.5078,-3.5464,-3.5968,-3.6275,-3.6499,-3.6709,-3.6956,-3.7261,-3.7505,-3.7769,-3.8031,-3.82,-3.8498,-3.8602,0.0,0.0,0.0,0.0,-3.9203,-3.9452,-3.97,-3.97,-3.9804,-3.9996,-3.9996,-3.9996,-3.9996,0.0,0.0,0.0,0.0,0.0,0.0,0.0,-0.3057,-0.3722,-0.4787,-0.5189,-0.5662,-0.6381,-0.6549,-0.6657,-0.6786,0.0,0.0,0.0,0.0,0.0,0.0,0.0,0.0,0.0,0.0,-0.9137,-0.9103,-0.9835,-1.0291,-1.0428,-1.0233,0.0,0.0,0.0,0.0,0.0,0.0,0.0,0.0,0.0,0.0,0.0,0.0,0.0,0.0,0.0,0.0,0.0,0.0,0.0,0.0,0.0,0.0,0.0,0.0,0.0,0.0,-1.9117,-1.944,-1.9621,-1.9334,-1.8759,-1.7979,-1.6814,-1.5688,-1.4432,-1.2976,-1.2112,-1.1423,-1.0775,-1.1407,-1.2214,-1.2753,-1.4047,0.0,0.0,0.0,0.0,0.0,0.0,0.0,0.0,0.0,0.0,0.0,0.0,0.0,0.0,-3.4628,-3.4969,-3.5716,-3.6003,-3.6146,-3.6228,-3.664,-3.6862,-3.6968,-3.74,-3.7677,-3.7723,-3.8122,-3.8317,0.0,0.0,0.0,0.0,-3.8922,-3.9056,-3.9158,-3.9349,-3.9482,-3.9526,-3.9526,-3.9526,-3.9526,0.0,0.0,0.0,0.0,0.0,0.0,0.0,-0.2633,-0.3117,-0.4105,-0.453,-0.4991,-0.5676,-0.5961,-0.6139,-0.6227,0.0,0.0,0.0,0.0,0.0,0.0,0.0,0.0,0.0,-0.8531,-0.8994,-0.8994,-0.9868,-1.0371,-1.0533,-1.0459,-1.036,-1.0222,0.0,0.0,0.0,0.0,0.0,0.0,0.0,0.0,-0.8964,0.0,0.0,0.0,0.0,0.0,0.0,0.0,0.0,0.0,0.0,0.0,0.0,0.0,-1.4616,0.0,0.0,-1.7269,-1.7309,-1.7341,-1.685,0.0,0.0,-1.4449,-1.3451,-1.2244,-1.1637,-1.1173,-1.0745,-1.1344,-1.2165,-1.2909,-1.423,0.0,0.0,0.0,0.0,0.0,0.0,0.0,0.0,0.0,0.0,0.0,0.0,0.0,0.0,-3.4157,-3.4353,-3.4883,-3.5414,-3.5812,-3.6015,-3.6275,-3.6546,-3.6709,-3.7062,-3.7261,-3.7353,-3.7769,-3.7939,0.0,0.0,0.0,0.0,-3.8711,-3.8787,-3.8787,-3.9056,-3.9145,-3.9145,-3.9247,-3.9305,-3.9305,0.0,0.0,0.0,0.0,0.0,0.0,0.0,0.0,0.0,0.0,-0.3808,-0.4263,-0.4436,-0.4925,-0.525,0.0,0.0,0.0,0.0,0.0,0.0,0.0,0.0,0.0,0.0,-0.8245,-0.8789,-0.8789,-1.0,-1.0522,-1.0433,-1.0684,-1.071,-1.0503,-0.997,-0.9568,-0.9312,-0.8865,-0.8683,-0.8683,-0.8683,-0.8773,0.0,0.0,0.0,0.0,0.0,0.0,0.0,0.0,0.0,0.0,0.0,0.0,0.0,0.0,0.0,0.0,0.0,0.0,0.0,0.0,0.0,0.0,0.0,-1.3368,0.0,-1.2034,-1.1385,-1.0923,-1.1091,-1.154,-1.2235,-1.3297,-1.4654,0.0,0.0,0.0,0.0,0.0,0.0,0.0,0.0,0.0,0.0,0.0,0.0,0.0,0.0,-3.3607,-3.3624,-3.3624,-3.4571,-3.5306,-3.5796,-3.5881,-3.6166,-3.6611,-3.6649,-3.6815,-3.7062,-3.7353,-3.7505,0.0,0.0,0.0,0.0,-3.8453,-3.8557,-3.8602,-3.8787,-3.8863,-3.8908,-3.9158,-3.9261,-3.9261,0.0,0.0,0.0,0.0,0.0,0.0,0.0,0.0,0.0,0.0,-0.3146,-0.3476,-0.3912,-0.4446,-0.4782,0.0,0.0,0.0,0.0,0.0,0.0,0.0,0.0,0.0,0.0,-0.8125,-0.8729,-0.8729,-0.9774,-1.0438,-1.0715,-1.0828,-1.0851,-1.0786,-1.0189,-0.9475,-0.8696,-0.8594,-0.8541,-0.8541,-0.8541,-0.8622,0.0,0.0,0.0,0.0,-0.8952,-0.926,0.0,0.0,0.0,0.0,0.0,0.0,0.0,0.0,-1.1933,-1.2207,-1.2914,0.0,-1.3709,-1.3903,0.0,-1.3487,0.0,-1.2945,-1.2576,-1.1855,0.0,-1.1647,-1.1385,-1.2129,-1.3104,-1.4031,-1.5492,0.0,0.0,0.0,0.0,0.0,0.0,0.0,0.0,0.0,0.0,0.0,0.0,0.0,-3.2794,-3.2996,-3.3088,-3.3066,-3.3314,-3.3656,-3.4147,-3.4959,-3.5438,-3.5578,-3.6319,-3.6722,-3.6815,-3.7062,-3.7307,0.0,0.0,0.0,-3.7979,-3.8226,-3.8304,-3.8304,-3.8589,-3.8679,-3.8679,-3.8724,-3.8782,-3.8782,0.0,0.0,0.0,0.0,0.0,0.0,0.0,0.0,0.0,0.0,0.0,0.0,0.0,0.0,0.0,0.0,0.0,0.0,0.0,0.0,0.0,0.0,0.0,0.0,-0.6575,-0.7879,-0.865,-0.8845,-0.9849,-1.0548,-1.0938,-1.1046,-1.1074,-1.1049,-1.0193,-0.9333,-0.85,-0.8459,-0.8447,-0.8447,-0.8447,0.0,0.0,0.0,0.0,0.0,-0.8871,-0.9067,0.0,-0.9615,-0.9973,-1.0332,0.0,0.0,0.0,0.0,-1.1009,-1.1153,-1.1559,-1.2152,-1.2694,-1.2876,-1.2847,-1.2698,-1.2468,0.0,0.0,0.0,0.0,0.0,0.0,0.0,0.0,0.0,0.0,0.0,0.0,0.0,0.0,0.0,0.0,0.0,0.0,0.0,0.0,0.0,0.0,0.0,-3.1817,-3.1963,-3.2041,-3.2043,-3.2051,-3.2526,-3.3584,-3.4188,-3.4725,-3.5205,-3.5725,-3.6188,-3.6581,-3.6815,-3.7015,0.0,0.0,0.0,-3.7749,-3.7965,-3.8044,-3.8103,-3.8317,-3.8408,-3.8408,-3.8544,-3.8602,-3.8602,0.0,0.0,0.0,0.0,0.0,0.0,0.0,0.0,0.0,0.0,0.0,0.0,0.0,0.0,0.0,0.0,0.0,0.0,0.0,0.0,0.0,0.0,0.0,-0.6191,-0.6232,-0.7638,-0.8594,-0.9056,-0.9979,-1.0634,-1.1039,-1.1171,-1.1166,-1.1005,-1.0023,-0.9187,-0.848,-0.8394,-0.8381,-0.8381,-0.8381,0.0,0.0,0.0,0.0,0.0,0.0,0.0,0.0,-0.9329,-0.9542,-0.9658,-0.9944,0.0,0.0,0.0,0.0,0.0,-1.0759,-1.1292,-1.1852,-1.2291,-1.2293,-1.2168,-1.2193,0.0,0.0,0.0,0.0,0.0,0.0,0.0,0.0,0.0,0.0,0.0,0.0,0.0,0.0,0.0,0.0,0.0,0.0,0.0,0.0,0.0,0.0,0.0,-3.0767,-3.0827,-3.0893,-3.0905,-3.0867,-3.1622,-3.3192,-3.338,-3.39,-3.4851,-3.5071,-3.5535,-3.6232,-3.6543,-3.6675,-3.6722,0.0,0.0,-3.7459,-3.7703,-3.7854,-3.7854,-3.8089,-3.8167,-3.8167,-3.8421,-3.8466,-3.8466,0.0,0.0,0.0,0.0,0.0,0.0,0.0,0.0,0.0,0.0,0.0,0.0,0.0,0.0,0.0,0.0,0.0,0.0,0.0,0.0,0.0,0.0,-0.5759,-0.6135,-0.6367,-0.7592,-0.8558,-0.9246,-0.9861,-1.0357,-1.0752,-1.0906,-1.0565,-0.9861,-0.9686,-0.9165,-0.8414,-0.8278,-0.8237,-0.8237,-0.8237,0.0,0.0,0.0,0.0,0.0,0.0,0.0,0.0,-0.8869,-0.9278,-0.9615,-0.9666,0.0,0.0,0.0,0.0,0.0,-1.0617,-1.0883,-1.1215,-1.1843,-1.2217,-1.2468,-1.2571,0.0,0.0,0.0,0.0,0.0,0.0,0.0,0.0,0.0,0.0,0.0,0.0,0.0,0.0,0.0,0.0,0.0,0.0,0.0,0.0,0.0,0.0,0.0,-2.9752,-3.015,-3.0384,-3.0296,-3.0307,-3.067,-3.14,-3.2223,-3.2838,-3.317,-3.4561,-3.5242,-3.5388,-3.6144,-3.6534,-3.6709,0.0,-3.6956,-3.7168,-3.7459,-3.7551,-3.7598,-3.7841,-3.7946,-3.7933,-3.7992,-3.7992,-3.7992,0.0,0.0,0.0,0.0,0.0,0.0,0.0,0.0,0.0,0.0,0.0,0.0,0.0,0.0,0.0,0.0,0.0,0.0,0.0,0.0,0.0,-0.513,-0.5546,-0.6075,-0.6716,-0.7589,-0.8496,-0.9416,-0.977,-1.0235,-1.0805,-1.0797,-1.0311,-0.9445,-0.9445,-0.8958,-0.818,-0.8118,-0.8098,-0.8075,0.0,0.0,0.0,0.0,0.0,0.0,0.0,0.0,0.0,0.0,-0.8861,-0.9236,-0.9269,0.0,0.0,0.0,0.0,0.0,-1.0226,-1.0426,-1.0718,-1.1717,-1.2225,-1.2596,-1.2947,-1.335,0.0,0.0,0.0,0.0,0.0,0.0,0.0,0.0,0.0,0.0,0.0,0.0,0.0,0.0,0.0,0.0,0.0,0.0,0.0,0.0,0.0,0.0,-2.8918,-2.9283,-2.9511,-2.9588,-2.9874,-3.0193,-3.0544,-3.1172,-3.1884,-3.2623,-3.3518,-3.4345,-3.5205,-3.5594,-3.6022,-3.6534,0.0,-3.6769,-3.6909,-3.7168,-3.7261,-3.7307,-3.7413,-3.7564,-3.7703,-3.7854,-3.79,-3.79,0.0,0.0,0.0,0.0,0.0,0.0,0.0,0.0,0.0,0.0,0.0,0.0,0.0,0.0,0.0,0.0,0.0,0.0,0.0,0.0,-0.4704,-0.5125,-0.5402,-0.6004,-0.6985,-0.7543,-0.8407,-0.9565,-0.9657,-1.0042,-1.0693,-1.0535,-1.001,-0.9229,-0.9174,-0.8718,-0.8,-0.7979,-0.7934,-0.7843,0.0,0.0,0.0,0.0,0.0,0.0,0.0,0.0,0.0,0.0,0.0,0.0,0.0,0.0,0.0,-0.8996,-0.8996,-0.9141,-0.9807,-1.0055,-1.0411,-1.1688,-1.2299,-1.2761,-1.3378,-1.3956,-1.4361,0.0,0.0,0.0,0.0,0.0,0.0,0.0,0.0,0.0,0.0,0.0,0.0,0.0,0.0,0.0,0.0,0.0,0.0,0.0,0.0,0.0,-2.8207,-2.8477,-2.8746,-2.9035,-2.9416,-2.9783,-3.0034,-3.0352,-3.1092,-3.2229,-3.2563,-3.3472,-3.4833,-3.5003,-3.5503,-3.6216,-3.6452,-3.6534,-3.6534,-3.6875,-3.7015,-3.7015,-3.7062,-3.7214,-3.7413,-3.7657,-3.7749,-3.7808,0.0,0.0,0.0,0.0,0.0,0.0,0.0,0.0,0.0,0.0,0.0,0.0,0.0,0.0,0.0,0.0,0.0,0.0,0.0,0.0,-0.4439,-0.5507,-0.5469,-0.5915,-0.6975,-0.7404,-0.8331,-0.9779,-0.9552,-0.9643,-1.0069,-0.9813,-0.9443,-0.902,-0.876,-0.8415,-0.8,-0.7933,-0.7732,-0.7446,-0.7423,0.0,0.0,0.0,0.0,0.0,0.0,0.0,0.0,0.0,0.0,0.0,0.0,0.0,-0.8996,-0.8996,-0.8996,-0.9089,-0.9508,-0.9867,-1.0411,-1.1748,-1.2493,-1.3119,-1.4006,-1.4918,0.0,-1.6065,0.0,0.0,0.0,0.0,0.0,0.0,0.0,0.0,0.0,0.0,0.0,0.0,0.0,0.0,0.0,0.0,0.0,0.0,0.0,0.0,-2.7678,-2.7904,-2.8279,-2.8803,-2.885,-2.9128,-2.9531,-2.9988,-3.0646,-3.141,-3.2169,-3.2938,-3.3749,-3.4482,-3.5151,-3.5668,-3.5968,-3.6063,-3.6098,-3.6534,-3.6722,-3.6769,-3.7015,-3.7108,-3.7108,-3.7155,-3.7307,-3.7505,0.0,0.0,0.0,0.0,0.0,0.0,0.0,0.0,0.0,0.0,0.0,0.0,0.0,0.0,0.0,0.0,0.0,0.0,0.0,0.0,-0.4216,-0.5063,-0.5212,-0.5668,-0.649,-0.709,-0.8009,-0.9238,-0.9227,-0.9298,-0.9449,-0.9327,-0.9059,-0.8611,-0.8512,-0.8227,-0.7808,-0.7795,-0.7582,-0.7265,-0.704,-0.6712,0.0,0.0,0.0,0.0,0.0,0.0,0.0,0.0,-0.7573,-0.7883,-0.832,-0.8487,-0.8549,-0.8747,-0.8874,-0.9067,-0.969,-0.9976,-1.0448,-1.1921,-1.2697,0.0,0.0,-1.5398,-1.6381,-1.6763,-1.7588,0.0,0.0,0.0,0.0,0.0,0.0,0.0,0.0,0.0,0.0,0.0,0.0,0.0,0.0,0.0,0.0,0.0,0.0,0.0,0.0,-2.7489,-2.7773,-2.8279,-2.8617,-2.8896,-2.9071,-2.9531,-3.0034,-3.0623,-3.125,-3.2024,-3.2962,-3.3586,-3.4308,-3.5141,-3.5568,-3.5764,-3.5764,-3.6133,-3.6275,-3.6323,-3.6687,-3.6862,-3.6862,-3.7062,-3.7155,-3.7261,0.0,0.0,0.0,0.0,0.0,0.0,0.0,0.0,0.0,0.0,0.0,0.0,0.0,0.0,0.0,0.0,0.0,0.0,0.0,-0.3491,-0.3958,-0.4732,-0.5028,-0.5487,-0.616,-0.6729,-0.7542,-0.8645,-0.8875,-0.8927,-0.8834,-0.8752,-0.8543,-0.8231,-0.8128,-0.7895,-0.76,-0.7548,-0.7323,-0.6996,-0.6688,-0.6402,0.0,0.0,0.0,0.0,0.0,0.0,0.0,0.0,-0.712,-0.7423,-0.7838,-0.8073,-0.8251,-0.8464,-0.869,-0.8976,-0.9619,-0.9939,-1.0409,-1.1849,0.0,0.0,-1.4551,-1.5774,-1.6875,-1.7501,-1.8454,-1.9454,-2.0338,0.0,0.0,0.0,0.0,0.0,0.0,0.0,0.0,0.0,0.0,0.0,0.0,0.0,0.0,0.0,0.0,0.0,0.0,-2.7119,-2.7357,-2.7762,-2.8186,-2.8524,-2.8664,-2.9071,-2.9485,-2.9852,-3.0329,-3.114,-3.2273,-3.2644,-3.3331,-3.4236,-3.4696,-3.5013,-3.5267,-3.5505,-3.5711,-3.5908,-3.631,-3.6499,-3.6499,-3.6781,-3.6922,-3.693,0.0,0.0,0.0,0.0,0.0,0.0,0.0,0.0,0.0,0.0,0.0,0.0,0.0,0.0,0.0,0.0,0.0,0.0,-0.3258,-0.3238,-0.3651,-0.4652,-0.495,-0.5403,-0.6075,-0.6284,-0.6959,-0.809,-0.8483,-0.8555,-0.8273,-0.8018,-0.7899,-0.7885,-0.7553,-0.7398,-0.7398,-0.7175,-0.6908,-0.6586,-0.6385,-0.6105,-0.5811,0.0,0.0,0.0,0.0,0.0,0.0,0.0,-0.6883,-0.7048,-0.7398,-0.7811,-0.8193,-0.8183,-0.8431,-0.879,-0.9278,-0.9709,-1.0297,0.0,0.0,0.0,-1.4966,-1.6087,-1.7227,-1.8373,-1.9486,-2.0413,-2.1,0.0,0.0,0.0,0.0,0.0,0.0,0.0,0.0,0.0,0.0,0.0,0.0,0.0,0.0,0.0,0.0,0.0,0.0,-2.6757,-2.7034,-2.7262,-2.7489,-2.7867,-2.8395,-2.8664,-2.8896,-2.9082,-2.9347,-3.0251,-3.1713,-3.1713,-3.2134,-3.2898,-3.319,-3.3689,-3.4421,-3.4668,-3.5116,-3.5608,-3.5895,-3.5991,-3.5991,-3.6298,-3.6521,-3.662,0.0,0.0,0.0,0.0,0.0,0.0,0.0,0.0,0.0,0.0,0.0,0.0,0.0,0.0,0.0,0.0,0.0,0.0,-0.3114,-0.3138,-0.3452,-0.4176,-0.446,-0.4781,-0.5175,-0.5797,-0.6416,-0.7054,-0.7293,-0.7397,-0.7321,-0.7468,-0.7553,-0.7553,-0.744,-0.7398,-0.7377,-0.7088,-0.6798,-0.6505,-0.6263,-0.5981,-0.5732,0.0,0.0,0.0,0.0,0.0,0.0,0.0,0.0,0.0,-0.6906,-0.7107,-0.731,-0.7773,-0.8059,-0.8406,-0.9297,-0.9927,0.0,-1.2149,0.0,0.0,0.0,-1.6778,0.0,0.0,-2.0349,-2.0819,-2.098,0.0,0.0,0.0,0.0,0.0,0.0,0.0,0.0,0.0,0.0,0.0,0.0,0.0,0.0,0.0,0.0,0.0,0.0,-2.6294,-2.6448,-2.6736,-2.7156,-2.7452,-2.7631,-2.8045,-2.8466,-2.8896,-2.8989,-2.9564,-3.0685,-3.1044,-3.1518,-3.2098,-3.2557,-3.2947,-3.3383,-3.3768,-3.4179,-3.4499,-3.4545,-3.4592,-3.4638,-3.4894,-3.5044,-3.5053,0.0,0.0,0.0,0.0,0.0,0.0,0.0,0.0,0.0,0.0,0.0,0.0,0.0,0.0,0.0,0.0,0.0,0.0,0.0,0.0,-0.3328,-0.393,-0.4212,-0.4485,-0.4755,-0.5181,-0.5585,-0.597,-0.6435,-0.6693,-0.679,-0.6976,-0.7148,-0.7245,-0.7245,-0.7176,-0.7065,-0.6781,-0.6496,-0.619,-0.5952,-0.5769,-0.5638,0.0,0.0,0.0,0.0,0.0,0.0,0.0,0.0,0.0,-0.649,-0.6697,-0.6871,-0.7283,-0.7656,-0.813,-0.9136,-0.9868,0.0,-1.2284,-1.3403,-1.4597,-1.6489,0.0,0.0,0.0,0.0,-2.0907,0.0,0.0,0.0,0.0,0.0,0.0,0.0,0.0,0.0,0.0,0.0,0.0,0.0,0.0,0.0,0.0,0.0,0.0,0.0,-2.5897,-2.6042,-2.6342,-2.6784,-2.7071,-2.7309,-2.7584,-2.7998,-2.8466,-2.8571,-2.8989,-2.968,-3.0261,-3.0767,-3.1157,-3.1867,-3.2264,-3.2474,-3.3071,-3.3421,-3.3594,-3.379,-3.3836,-3.3882,-3.4123,-3.4226,-3.4235,0.0,0.0,0.0,0.0,0.0,0.0,0.0,0.0,0.0,0.0,0.0,0.0,0.0,0.0,0.0,0.0,0.0,0.0,0.0,0.0,-0.3261,-0.386,-0.4137,-0.4391,-0.4628,-0.4532,-0.4638,-0.4974,-0.5807,-0.6321,-0.6553,-0.6573,-0.6727,-0.6985,-0.6985,-0.6819,-0.6553,-0.6342,-0.6064,-0.5749,-0.5559,-0.5475,-0.5491,-0.5602,0.0,0.0,0.0,0.0,0.0,0.0,0.0,0.0,-0.6125,-0.6435,-0.6696,-0.6776,-0.7251,-0.7944,-0.8848,-0.9606,0.0,-1.2126,-1.3415,0.0,-1.7269,-1.8515,-1.929,-1.993,0.0,0.0,0.0,0.0,0.0,0.0,0.0,0.0,0.0,0.0,0.0,0.0,0.0,0.0,0.0,0.0,0.0,0.0,0.0,0.0,0.0,0.0,-2.58,-2.6004,-2.6304,-2.6688,-2.7214,-2.7262,-2.7489,-2.7951,-2.8196,-2.8477,-2.8803,-2.9508,-2.9966,-3.0239,-3.1169,-3.1596,-3.1677,-3.2438,-3.2721,-3.2814,-3.3242,-3.3392,-3.3484,-3.3735,-3.3814,-3.3752,0.0,0.0,0.0,0.0,0.0,0.0,0.0,0.0,0.0,0.0,0.0,0.0,0.0,0.0,0.0,0.0,0.0,0.0,0.0,0.0,-0.3185,-0.3792,-0.3976,-0.4094,-0.4143,-0.4281,-0.4475,-0.4765,-0.5273,-0.5721,-0.6128,-0.635,-0.6557,-0.6772,-0.6772,-0.6605,-0.6356,-0.6091,-0.5824,-0.5561,-0.5397,-0.534,-0.5329,-0.5249,-0.5305,0.0,0.0,0.0,0.0,0.0,0.0,0.0,-0.5574,-0.5722,-0.5898,-0.6536,-0.7007,-0.7575,-0.8656,-0.973,0.0,0.0,-1.4294,-1.6063,-1.6928,-1.7929,-1.8837,-1.9557,0.0,0.0,0.0,0.0,0.0,0.0,0.0,0.0,0.0,0.0,0.0,0.0,0.0,0.0,0.0,0.0,0.0,0.0,0.0,0.0,0.0,0.0,-2.5421,-2.5479,-2.5955,-2.6245,-2.6342,-2.6794,-2.7129,0.0,-2.7689,-2.8008,-2.8488,-2.9035,-2.9508,-2.9977,-3.0342,-3.0649,-3.0888,-3.1254,-3.1516,-3.1639,-3.1774,-3.192,-3.2143,-3.2366,-3.241,-3.2442,0.0,0.0,0.0,0.0,0.0,0.0,0.0,0.0,0.0,0.0,0.0,0.0,0.0,0.0,0.0,0.0,0.0,0.0,0.0,0.0,0.0,-0.3681,-0.3737,-0.3752,-0.3712,-0.3783,-0.3967,-0.427,-0.4617,-0.5183,-0.5962,-0.6085,-0.6348,-0.6694,-0.6694,-0.6473,-0.6105,-0.5957,-0.5657,-0.525,-0.5184,-0.5097,-0.5005,-0.497,-0.4948,-0.4897,-0.4679,0.0,0.0,0.0,0.0,0.0,0.0,0.0,-0.5422,-0.5967,-0.641,-0.696,-0.8031,0.0,0.0,-1.2658,0.0,-1.5932,-1.6668,-1.7391,-1.8129,0.0,0.0,0.0,0.0,0.0,0.0,0.0,0.0,0.0,0.0,0.0,0.0,0.0,0.0,0.0,0.0,0.0,0.0,0.0,0.0,0.0,0.0,-2.4541,-2.483,-2.5284,-2.5577,-2.5858,-2.61,-2.64,-2.6736,-2.7129,-2.7357,-2.7783,-2.8395,-2.8896,-2.9312,-2.9737,-2.9966,-3.0148,-3.0273,-3.0646,-3.0859,-3.0982,-3.1095,-3.1318,-3.1528,-3.1629,-3.1761,-3.1893,0.0,0.0,0.0,0.0,0.0,0.0,0.0,0.0,0.0,0.0,0.0,0.0,0.0,0.0,0.0,0.0,0.0,0.0,0.0,0.0,0.0,-0.355,-0.3499,-0.3436,-0.3387,-0.3334,-0.3456,-0.3788,-0.4044,0.0,0.0,0.0,0.0,-0.6651,-0.6651,-0.6356,-0.5838,-0.5838,-0.5503,-0.4966,-0.4976,-0.4877,-0.4735,-0.4762,-0.469,-0.4521,-0.432,-0.4268,-0.4293,-0.4361,0.0,0.0,0.0,0.0,-0.5024,-0.5307,-0.5752,-0.6371,-0.7344,0.0,-1.0205,-1.264,-1.4095,0.0,-1.6039,-1.667,0.0,0.0,0.0,0.0,0.0,0.0,0.0,0.0,0.0,0.0,0.0,0.0,0.0,0.0,0.0,0.0,0.0,0.0,0.0,0.0,0.0,0.0,-2.3668,-2.3725,-2.4172,-2.4908,-2.5091,-2.5363,-2.5837,-2.5954,-2.6294,-2.6757,-2.7119,-2.7641,-2.8301,-2.8757,-2.9117,-2.9439,-2.9691,-2.9794,-2.9931,-3.0318,-3.0532,-3.0623,-3.0826,-3.105,-3.1261,-3.1261,-3.1395,-3.1617,0.0,0.0,0.0,0.0,0.0,0.0,0.0,0.0,0.0,0.0,0.0,0.0,0.0,0.0,0.0,0.0,0.0,0.0,-0.2197,0.0,0.0,-0.3416,-0.3359,-0.3328,-0.3317,-0.3298,-0.3431,-0.3717,0.0,0.0,0.0,0.0,0.0,-0.6438,0.0,-0.6153,-0.5633,-0.5633,-0.5327,-0.4838,-0.489,-0.4897,-0.4866,-0.4746,-0.4731,-0.4703,-0.4216,-0.4113,-0.4179,-0.397,-0.3932,0.0,0.0,0.0,-0.4484,-0.4862,-0.544,-0.6135,0.0,0.0,-1.0802,0.0,-1.286,-1.3904,0.0,0.0,0.0,0.0,0.0,0.0,0.0,0.0,0.0,0.0,0.0,0.0,0.0,0.0,0.0,0.0,0.0,0.0,0.0,0.0,0.0,0.0,0.0,0.0,-2.277,-2.3147,-2.3458,-2.3551,-2.4117,-2.4593,-2.4861,-2.546,-2.5897,-2.6197,-2.6976,-2.7452,-2.7726,-2.8254,-2.871,-2.9174,-2.9174,-2.9462,-2.9886,-2.9977,-3.0227,-3.0623,-3.0623,-3.0826,-3.1017,-3.1017,-3.1184,-3.135,0.0,0.0,0.0,0.0,0.0,0.0,0.0,0.0,0.0,0.0,0.0,0.0,0.0,0.0,0.0,-0.1742,-0.1742,-0.1862,-0.2125,-0.2364,-0.2698,-0.3156,-0.3109,-0.3145,-0.3298,-0.3262,-0.3291,-0.3367,0.0,0.0,0.0,-0.521,-0.577,0.0,0.0,0.0,0.0,-0.5474,-0.5198,-0.4851,-0.4758,-0.4662,-0.4563,-0.4589,-0.4559,-0.4501,-0.4289,-0.4284,-0.4358,-0.428,-0.4176,-0.4092,-0.4206,0.0,0.0,0.0,-0.4818,-0.5414,-0.6777,-0.8464,-1.0048,0.0,-1.2058,-1.3167,-1.3688,0.0,0.0,0.0,0.0,0.0,0.0,0.0,0.0,0.0,0.0,0.0,0.0,0.0,0.0,0.0,0.0,0.0,0.0,0.0,0.0,0.0,0.0,-2.1794,-2.2026,-2.2361,-2.2741,-2.3111,-2.3532,-2.3862,-2.4135,-2.4553,-2.498,-2.5367,-2.6042,-2.646,-2.667,-2.7049,-2.775,-2.8699,-2.8692,-2.8855,-2.9071,-2.9071,-2.918,-2.9389,-2.9498,-2.9686,-2.994,-2.994,-3.0047,-3.0253,0.0,0.0,0.0,0.0,0.0,0.0,0.0,0.0,0.0,0.0,0.0,0.0,0.0,0.0,0.0,0.0,-0.1791,-0.1834,-0.2033,-0.2046,-0.2293,-0.2822,-0.2799,-0.2863,-0.3061,-0.3068,-0.3053,0.0,0.0,0.0,-0.4211,-0.486,-0.545,0.0,-0.6012,-0.5861,0.0,0.0,0.0,0.0,-0.4808,-0.4689,-0.4583,-0.4703,-0.4712,-0.4656,-0.4677,-0.4729,-0.4773,-0.4699,-0.4558,-0.4378,-0.4235,-0.4103,0.0,0.0,0.0,0.0,0.0,0.0,-0.8906,-0.9862,-1.1054,-1.2154,0.0,0.0,0.0,0.0,0.0,0.0,0.0,0.0,0.0,0.0,0.0,0.0,0.0,0.0,0.0,0.0,0.0,0.0,0.0,0.0,0.0,0.0,0.0,-2.1039,-2.1349,-2.1587,-2.1997,-2.2472,-2.2815,-2.3103,-2.3382,-2.3774,-2.4239,-2.471,-2.5143,-2.5498,-2.584,-2.6076,-2.6816,-2.7879,-2.8003,-2.8075,-2.8143,-2.8186,-2.8258,-2.8345,-2.8551,-2.8766,-2.8919,-2.8993,-2.9153,-2.9312,0.0,0.0,0.0,0.0,0.0,0.0,0.0,0.0,0.0,0.0,0.0,0.0,-0.2246,-0.2267,-0.2267,-0.2267,-0.2032,-0.1893,-0.1907,-0.1907,-0.2065,-0.2416,-0.2428,0.0,-0.2447,-0.2629,0.0,0.0,0.0,0.0,-0.4205,-0.456,-0.502,-0.5549,-0.5853,-0.5861,-0.5593,0.0,0.0,0.0,0.0,0.0,0.0,0.0,0.0,0.0,0.0,-0.5492,-0.5468,-0.504,-0.4918,-0.4872,-0.4357,-0.4191,-0.4155,0.0,0.0,0.0,0.0,-0.6654,0.0,-0.8585,0.0,0.0,0.0,0.0,0.0,0.0,0.0,0.0,0.0,0.0,0.0,0.0,0.0,0.0,0.0,0.0,0.0,0.0,0.0,0.0,0.0,0.0,0.0,0.0,0.0,-2.0708,-2.0725,-2.0942,-2.1077,-2.1104,-2.1752,-2.2189,-2.2474,-2.3298,-2.4007,-2.4536,-2.4536,-2.495,-2.5609,-2.585,-2.6097,-2.642,-2.687,-2.7226,-2.7469,-2.7668,-2.7865,-2.8128,-2.8345,-2.8432,-2.8475,-2.8669,-2.8884,-2.9133,0.0,0.0,0.0,0.0,0.0,0.0,0.0,0.0,0.0,0.0,0.0,0.0,0.0,-0.2237,-0.2237,-0.2237,-0.215,-0.2039,-0.1909,-0.19,-0.1955,-0.207,-0.2124,-0.2225,-0.2396,-0.2431,0.0,0.0,0.0,-0.3312,-0.3758,-0.4219,-0.4601,-0.4888,-0.552,-0.576,-0.565,-0.5486,0.0,0.0,0.0,0.0,0.0,0.0,0.0,0.0,0.0,0.0,0.0,-0.5912,-0.5591,-0.5227,-0.5029,-0.462,-0.4157,-0.3954,0.0,0.0,0.0,0.0,0.0,-0.7821,-0.8709,0.0,0.0,0.0,0.0,0.0,0.0,0.0,0.0,0.0,0.0,0.0,0.0,0.0,0.0,0.0,0.0,0.0,0.0,0.0,0.0,0.0,0.0,0.0,0.0,0.0,-2.0201,-2.0555,-2.0826,-2.0826,-2.1184,-2.1536,-2.1961,-2.227,-2.2661,-2.3156,-2.347,-2.3737,-2.4014,-2.4402,-2.4709,-2.4993,-2.5288,-2.5892,-2.6683,-2.6594,-2.6675,-2.6888,-2.713,-2.7299,-2.7425,-2.7508,-2.7676,-2.7895,0.0,0.0,0.0,0.0,0.0,0.0,0.0,0.0,0.0,0.0,0.0,0.0,0.0,0.0,-0.2372,-0.2307,-0.2302,-0.2178,-0.1886,-0.1891,-0.1858,-0.1772,-0.1828,-0.1938,-0.2099,0.0,0.0,0.0,0.0,0.0,0.0,-0.3869,-0.4177,-0.4362,-0.5059,-0.5397,0.0,0.0,0.0,-0.5375,0.0,0.0,-0.5889,0.0,0.0,0.0,0.0,0.0,0.0,0.0,0.0,-0.5825,0.0,0.0,0.0,0.0,0.0,0.0,-0.4983,0.0,0.0,0.0,0.0,0.0,0.0,0.0,0.0,0.0,0.0,0.0,0.0,0.0,0.0,0.0,0.0,0.0,0.0,0.0,0.0,0.0,0.0,0.0,0.0,0.0,0.0,0.0,0.0,0.0,-1.9424,-1.9773,-2.01,-2.0409,-2.0588,-2.0962,-2.1454,-2.1562,-2.1785,-2.2176,-2.2574,-2.2882,-2.3091,-2.3406,-2.3754,-2.4067,-2.4196,-2.4835,-2.584,-2.5731,-2.5812,-2.6032,-2.6271,-2.6479,-2.6685,-2.685,-2.6974,-2.7108,0.0,0.0,0.0,0.0,0.0,0.0,0.0,0.0,0.0,-0.2498,0.0,0.0,0.0,0.0,0.0,-0.2536,-0.2524,-0.2318,-0.1851,-0.1873,-0.1787,-0.1519,-0.1567,-0.1566,-0.1496,0.0,0.0,0.0,0.0,0.0,0.0,0.0,-0.3786,-0.3993,-0.4461,-0.4781,-0.4989,0.0,-0.548,-0.5523,0.0,-0.6081,-0.6296,0.0,0.0,0.0,-0.7929,-0.7955,0.0,0.0,0.0,0.0,0.0,0.0,0.0,0.0,0.0,0.0,0.0,0.0,0.0,0.0,0.0,0.0,0.0,0.0,0.0,0.0,0.0,0.0,0.0,0.0,0.0,0.0,0.0,0.0,0.0,0.0,0.0,0.0,0.0,0.0,0.0,0.0,0.0,0.0,0.0,-1.8473,-1.8473,-1.8516,-1.8891,-1.9736,-1.9938,-2.0342,-2.0979,-2.123,-2.1472,-2.1687,-2.1963,-2.2441,-2.3057,-2.3091,-2.3363,-2.3797,-2.3797,-2.4176,-2.4861,-2.5073,-2.5338,-2.5601,-2.5812,-2.6021,-2.624,-2.6685,-2.6891,-2.6933,0.0,0.0,0.0,0.0,0.0,0.0,0.0,0.0,0.0,0.0,0.0,0.0,-0.3292,-0.3303,-0.3232,-0.3026,-0.3005,-0.2805,-0.2335,-0.2189,-0.2001,-0.1729,-0.1593,-0.1523,-0.1496,0.0,0.0,0.0,0.0,0.0,0.0,0.0,0.0,0.0,-0.3909,-0.4091,-0.4114,-0.4828,0.0,0.0,-0.5706,-0.6216,0.0,0.0,0.0,0.0,0.0,-0.8347,0.0,0.0,-0.7739,-0.7295,0.0,0.0,0.0,0.0,0.0,0.0,-0.507,0.0,0.0,0.0,0.0,0.0,0.0,0.0,0.0,0.0,0.0,0.0,0.0,0.0,0.0,0.0,0.0,0.0,0.0,0.0,0.0,0.0,0.0,0.0,0.0,0.0,0.0,0.0,-1.7866,-1.8083,-1.8273,-1.843,-1.8696,-1.9065,-1.9116,-1.9556,-2.0324,-2.043,-2.0793,-2.1482,-2.1696,-2.2008,-2.2397,-2.253,-2.2828,-2.3266,-2.3266,-2.3624,-2.4133,-2.4529,-2.4956,-2.5338,-2.5601,-2.5812,-2.6032,-2.6271,-2.652,-2.6685,0.0,0.0,0.0,0.0,0.0,0.0,0.0,0.0,0.0,0.0,0.0,0.0,-0.366,-0.367,-0.3625,-0.3494,-0.3397,-0.3127,-0.266,-0.2566,-0.2364,-0.1982,-0.1774,-0.1656,-0.1626,0.0,0.0,0.0,0.0,0.0,0.0,0.0,0.0,0.0,0.0,0.0,0.0,0.0,0.0,0.0,-0.5722,0.0,0.0,-0.7389,-0.8032,0.0,0.0,0.0,-0.8806,-0.8806,-0.8383,0.0,0.0,0.0,0.0,0.0,0.0,0.0,0.0,0.0,0.0,0.0,0.0,0.0,-0.7445,-0.7923,0.0,0.0,0.0,0.0,0.0,0.0,0.0,0.0,0.0,0.0,0.0,0.0,0.0,0.0,0.0,0.0,0.0,0.0,0.0,-1.6672,-1.6966,-1.7214,-1.7435,-1.7639,-1.7924,-1.8293,-1.8472,-1.8905,-1.9548,-1.9765,-2.0088,-2.0624,-2.1093,-2.1484,-2.1757,-2.2101,-2.2485,-2.2794,-2.2794,-2.3047,-2.3527,-2.3797,-2.4315,-2.4914,-2.5094,-2.5391,-2.5822,-2.5979,-2.6229,-2.6437,0.0,0.0,0.0,0.0,0.0,0.0,0.0,0.0,0.0,0.0,-0.3635,-0.3761,-0.3995,-0.4016,-0.4005,-0.3984,-0.3734,-0.3401,-0.296,-0.2979,-0.2791,-0.2313,-0.2067,-0.1905,-0.1821,-0.1593,0.0,0.0,0.0,0.0,0.0,0.0,0.0,0.0,0.0,0.0,0.0,0.0,0.0,-0.4836,-0.5756,-0.6316,0.0,0.0,-0.839,0.0,-0.9464,-0.9505,-0.9344,-0.9688,-0.907,0.0,0.0,0.0,0.0,0.0,-0.6222,0.0,0.0,0.0,0.0,0.0,0.0,0.0,-0.736,-0.7464,-0.7645,0.0,0.0,0.0,0.0,0.0,0.0,0.0,0.0,0.0,0.0,0.0,0.0,0.0,0.0,0.0,0.0,-1.4865,-1.5283,-1.5443,-1.5805,-1.607,-1.6298,-1.6511,-1.6875,-1.7477,-1.7912,-1.8347,-1.8725,-1.9144,-1.9409,-1.9461,-2.0277,-2.0802,-2.1071,-2.1614,-2.2001,-2.2211,-2.2211,-2.2475,-2.2911,-2.2911,-2.3481,-2.4411,-2.4497,-2.4882,-2.5517,-2.5673,-2.5861,-2.6058,-0.2516,0.0,0.0,0.0,0.0,0.0,0.0,0.0,0.0,0.0,-0.4464,-0.4723,-0.4784,-0.4795,-0.4701,-0.4473,-0.4269,-0.404,-0.3785,-0.3286,-0.2949,-0.2847,-0.2441,-0.2142,-0.196,-0.1906,0.0,0.0,0.0,0.0,0.0,0.0,0.0,0.0,0.0,0.0,0.0,0.0,0.0,-0.4538,-0.5326,0.0,-0.675,-0.7433,-0.8247,-0.9092,-0.9343,-0.9626,-0.9838,0.0,-0.9178,-0.839,0.0,0.0,0.0,0.0,0.0,0.0,0.0,0.0,0.0,0.0,0.0,0.0,-0.7048,-0.7295,-0.7547,0.0,0.0,0.0,0.0,0.0,0.0,0.0,0.0,0.0,0.0,0.0,0.0,0.0,0.0,0.0,0.0,-1.4273,-1.4513,-1.4687,-1.5076,-1.5432,-1.574,-1.5949,-1.6306,-1.6867,-1.7163,-1.7581,-1.8154,-1.8414,-1.8786,-1.9256,-1.9582,-1.9908,-2.0173,-2.0287,-2.0546,-2.0939,-2.0939,-2.1184,-2.1555,-2.1555,-2.251,-2.397,-2.4368,-2.4583,-2.4712,-2.4775,-2.4802,-2.4789,-0.2694,0.0,0.0,0.0,0.0,0.0,0.0,0.0,0.0,-0.4447,-0.4922,-0.5316,-0.5475,-0.5491,-0.5443,-0.5304,-0.4985,-0.4732,-0.4554,-0.3985,-0.3613,-0.3555,-0.2943,-0.252,-0.2358,-0.2117,-0.2019,0.0,0.0,0.0,0.0,0.0,0.0,0.0,0.0,0.0,0.0,0.0,-0.3909,-0.4461,-0.5201,0.0,-0.6676,-0.7333,-0.8196,-0.9068,-0.9342,-0.9702,-0.9973,-0.9723,-0.934,0.0,0.0,-0.8344,-0.8129,0.0,-0.7716,-0.7465,0.0,0.0,0.0,-0.7394,0.0,0.0,0.0,-0.7383,-0.745,0.0,0.0,0.0,0.0,0.0,0.0,0.0,0.0,0.0,0.0,0.0,0.0,0.0,0.0,0.0,0.0,-1.3121,-1.3527,-1.3911,-1.4247,-1.458,-1.5025,-1.5238,-1.5588,-1.6145,-1.6516,-1.6928,-1.7358,-1.7664,-1.8045,-1.848,-1.8869,-1.9174,-1.9444,-1.9756,-2.0005,-2.0235,-2.0235,-2.0488,-2.0899,-2.0899,-2.1522,-2.2533,-2.3008,-2.3471,-2.3857,-2.3865,-2.3974,-2.4104,-0.2805,0.0,0.0,0.0,0.0,0.0,0.0,0.0,0.0,-0.4812,-0.5344,-0.5808,-0.6114,0.0,0.0,0.0,-0.5787,-0.5479,0.0,0.0,0.0,-0.4295,-0.3528,-0.3047,-0.2897,-0.2431,-0.2154,0.0,0.0,0.0,0.0,0.0,0.0,0.0,0.0,0.0,0.0,0.0,0.0,-0.4514,0.0,-0.5868,-0.6576,-0.728,-0.8143,-0.8983,-0.9351,-0.9678,-0.9845,-0.9601,0.0,-0.9291,-0.8823,-0.8661,0.0,0.0,0.0,0.0,0.0,0.0,0.0,0.0,0.0,-0.798,0.0,0.0,0.0,0.0,0.0,0.0,0.0,0.0,0.0,0.0,0.0,0.0,0.0,0.0,0.0,0.0,0.0,0.0,0.0,-1.1943,-1.2494,-1.3091,-1.3289,-1.3595,-1.4154,-1.4445,-1.4824,-1.5389,-1.5842,-1.6174,-1.6451,-1.6928,-1.7284,-1.7478,-1.81,-1.8494,-1.8726,-1.9221,-1.9488,-1.953,-1.9572,-1.9832,-2.0227,-2.0227,-2.0467,-2.0913,-2.1613,-2.2329,-2.297,-2.2969,-2.3179,-2.3438,-0.2805,-0.3014,0.0,0.0,0.0,0.0,0.0,0.0,0.0,-0.5653,-0.6122,0.0,0.0,0.0,0.0,0.0,0.0,0.0,-0.6336,0.0,0.0,0.0,0.0,0.0,-0.3588,-0.3132,-0.2828,-0.27,0.0,0.0,0.0,0.0,0.0,0.0,-0.247,0.0,0.0,0.0,-0.4006,0.0,-0.5157,-0.5789,0.0,-0.7182,-0.7944,-0.8732,-0.9291,-0.9496,-0.9495,0.0,-0.9521,-0.9307,0.0,-0.9284,0.0,0.0,0.0,0.0,0.0,0.0,0.0,0.0,-0.7929,0.0,0.0,0.0,-0.75,0.0,0.0,0.0,0.0,0.0,0.0,0.0,0.0,0.0,0.0,0.0,0.0,0.0,0.0,0.0,0.0,0.0,-1.1639,-1.2109,-1.2171,-1.2459,-1.3043,-1.3513,-1.4014,-1.4589,-1.5009,-1.5351,-1.5545,-1.6126,-1.6516,-1.6636,-1.7236,-1.7539,-1.758,-1.785,-1.8029,-1.825,-1.8484,-1.8695,-1.8914,-1.8914,-1.9137,-1.9663,-2.1298,-2.196,-2.2043,-2.204,-2.2069,-2.2048,-0.2805,-0.3079,0.0,0.0,0.0,0.0,0.0,0.0,0.0,-0.6077,0.0,0.0,0.0,0.0,0.0,0.0,0.0,-0.7204,0.0,0.0,0.0,0.0,0.0,0.0,0.0,-0.3644,-0.3267,-0.2981,-0.2769,0.0,0.0,0.0,0.0,0.0,-0.2569,0.0,-0.3397,0.0,0.0,0.0,0.0,0.0,0.0,-0.7057,-0.7802,-0.8662,-0.928,-0.9376,-0.9254,0.0,-0.9425,0.0,0.0,0.0,0.0,0.0,0.0,0.0,0.0,0.0,0.0,0.0,0.0,0.0,-0.8101,0.0,-0.7943,0.0,0.0,0.0,0.0,0.0,0.0,0.0,0.0,0.0,0.0,0.0,0.0,0.0,0.0,0.0,0.0,0.0,0.0,0.0,-1.0898,-1.1255,-1.193,-1.2267,-1.2855,-1.3708,-1.4074,-1.4479,-1.5033,-1.5412,-1.5858,-1.6381,-1.6645,-1.6992,-1.7392,-1.7514,-1.7587,-1.7676,-1.7757,-1.8,-1.8282,-1.8282,-1.8563,-1.9038,-1.9888,-2.0543,-2.1004,-2.1105,-2.1242,-2.133,-0.2985,0.0,0.0,0.0,0.0,0.0,0.0,0.0,0.0,0.0,0.0,0.0,-0.7921,-0.829,0.0,0.0,0.0,-0.8047,0.0,0.0,-0.6829,0.0,0.0,0.0,0.0,0.0,0.0,-0.326,-0.3067,0.0,0.0,0.0,0.0,0.0,0.0,-0.308,-0.3555,0.0,0.0,-0.5063,-0.5456,-0.6014,-0.6619,-0.7094,-0.7778,-0.8552,-0.8998,-0.9045,-0.897,-0.9231,-0.9255,0.0,-0.9291,0.0,0.0,0.0,0.0,0.0,-0.9241,0.0,0.0,0.0,0.0,0.0,0.0,0.0,0.0,0.0,0.0,0.0,0.0,0.0,0.0,0.0,0.0,0.0,0.0,0.0,0.0,0.0,0.0,0.0,0.0,0.0,0.0,-0.9476,-0.9722,-1.0137,-1.076,-1.1143,-1.1745,-1.2643,-1.3078,-1.3609,-1.4313,-1.4614,-1.5142,-1.5858,-1.5913,-1.6246,-1.6774,-1.7,-1.7082,-1.713,-1.731,-1.7554,-1.7838,-1.7838,-1.808,-1.8531,-1.8683,-1.9201,-1.9912,-2.0216,-2.045,-2.0634,-0.3459,-0.3443,0.0,0.0,0.0,0.0,0.0,0.0,0.0,0.0,0.0,0.0,0.0,0.0,0.0,0.0,0.0,-0.8857,-0.8852,0.0,-0.7752,0.0,0.0,-0.601,0.0,0.0,0.0,-0.3686,-0.3486,-0.325,0.0,0.0,0.0,0.0,0.0,-0.3275,-0.3627,-0.4106,-0.4599,-0.5139,-0.554,-0.6147,-0.6859,0.0,-0.7912,-0.8214,-0.822,0.0,0.0,-0.8981,-0.8964,0.0,0.0,0.0,0.0,0.0,0.0,0.0,0.0,0.0,0.0,-0.9225,0.0,0.0,0.0,0.0,-0.7923,0.0,0.0,0.0,0.0,0.0,0.0,-0.6793,0.0,0.0,0.0,0.0,0.0,0.0,0.0,0.0,0.0,0.0,0.0,-0.8533,-0.8777,-0.911,-0.9541,-1.023,-1.0843,-1.1359,-1.2109,-1.2713,-1.3053,-1.3719,-1.4223,-1.4682,-1.4973,-1.5134,-1.5196,-1.5961,-1.6357,-1.6373,-1.7082,-1.74,-1.7432,-1.7432,-1.7676,-1.804,-1.804,-1.8331,-1.882,-1.9408,-1.9754,-1.9942,0.0,0.0,0.0,0.0,0.0,0.0,0.0,-0.541,0.0,0.0,0.0,0.0,0.0,0.0,-0.9615,0.0,0.0,-0.9497,-0.9381,-0.8712,0.0,0.0,0.0,-0.6633,0.0,0.0,0.0,-0.4371,-0.3848,-0.3528,0.0,0.0,0.0,0.0,0.0,-0.3403,0.0,0.0,0.0,0.0,0.0,-0.6595,-0.7114,0.0,0.0,-0.7884,-0.8107,-0.8236,0.0,-0.8809,-0.8975,-0.9047,-0.9365,-0.9456,-0.9485,-0.9553,-0.9553,0.0,0.0,0.0,-0.9438,-0.9089,0.0,0.0,0.0,0.0,0.0,0.0,0.0,0.0,0.0,0.0,0.0,-0.6835,0.0,0.0,0.0,0.0,0.0,0.0,0.0,0.0,0.0,0.0,0.0,-0.7759,-0.7847,-0.8158,0.0,-0.9084,-0.9764,-1.0809,-1.1228,-1.1829,-1.265,-1.2906,-1.333,-1.4012,-1.4236,-1.4552,-1.4917,-1.5304,-1.5521,-1.5537,-1.615,-1.6509,-1.6693,-1.7041,-1.7343,-1.7595,-1.7595,-1.7789,-1.8112,-1.8922,-1.9311,-1.9539,-0.3899,0.0,0.0,0.0,0.0,0.0,0.0,0.0,0.0,0.0,-0.7839,0.0,-0.9195,0.0,-1.003,0.0,-1.0012,-0.9995,-0.9851,-0.9218,0.0,-0.8856,-0.7962,0.0,0.0,0.0,0.0,0.0,-0.4351,-0.3957,0.0,0.0,0.0,0.0,0.0,0.0,0.0,0.0,-0.4735,0.0,0.0,-0.6847,0.0,0.0,-0.7661,-0.7731,0.0,-0.8172,-0.8283,-0.8838,-0.9028,-0.9085,-0.9425,-0.9534,-0.9532,-0.9607,-0.9642,-0.9608,-0.9519,-0.9576,0.0,-0.9177,-0.9192,0.0,-0.9029,0.0,0.0,0.0,0.0,0.0,0.0,0.0,0.0,0.0,-0.6495,0.0,0.0,-0.5387,0.0,0.0,0.0,0.0,0.0,0.0,-0.6738,-0.6891,-0.6997,-0.7298,0.0,0.0,-0.8909,-0.9939,-1.0425,-1.1164,-1.213,-1.2318,-1.2733,-1.3426,-1.3545,-1.3834,-1.4258,-1.4576,-1.4743,-1.4835,-1.5397,-1.5779,-1.6078,-1.6412,-1.6741,-1.7057,-1.7106,-1.7302,-1.7578,-1.8353,-1.8834,-1.9112,0.0,0.0,0.0,0.0,-0.4773,0.0,0.0,0.0,-0.6818,0.0,-0.8285,-0.8969,-0.9809,-1.0164,-1.0417,-1.0592,-1.0411,0.0,-1.0289,-0.9678,0.0,0.0,-0.8497,-0.7845,-0.7438,0.0,0.0,0.0,0.0,0.0,0.0,0.0,0.0,0.0,-0.3446,0.0,-0.3738,-0.428,-0.4726,-0.5153,-0.6182,-0.6852,-0.7223,-0.7418,-0.7591,-0.7731,-0.7922,-0.8079,-0.8304,-0.8975,-0.906,-0.8998,-0.9479,-0.9432,-0.9279,-0.9465,-0.9506,-0.9541,-0.9659,-0.9688,-0.9667,-0.944,0.0,0.0,0.0,0.0,-0.8729,0.0,0.0,0.0,0.0,0.0,0.0,0.0,0.0,0.0,0.0,0.0,0.0,0.0,0.0,0.0,0.0,-0.5689,-0.5781,-0.5974,-0.6234,0.0,0.0,0.0,-0.8336,-0.8756,-0.9728,-1.0633,-1.1424,-1.1907,-1.2392,-1.2842,-1.2856,-1.2973,-1.3207,-1.3702,-1.4066,-1.4291,-1.482,-1.524,-1.5561,-1.5576,-1.5896,-1.6394,-1.6607,-1.6804,-1.7115,-1.774,-1.8282,-1.87,-0.5161,-0.546,-0.5753,0.0,-0.5751,-0.5734,0.0,0.0,0.0,0.0,-0.8898,-0.9543,-0.9863,-1.0449,-1.0749,-1.0595,-1.0559,0.0,0.0,0.0,0.0,-0.9296,-0.8784,-0.827,-0.7698,-0.7059,0.0,-0.596,0.0,0.0,-0.4271,0.0,0.0,0.0,0.0,0.0,-0.3746,-0.4432,-0.5232,-0.6061,-0.6347,-0.6847,0.0,0.0,-0.7526,-0.7559,-0.7727,-0.7889,-0.8151,-0.8808,-0.9098,-0.92,-0.968,-0.9787,-0.9739,-0.9776,-0.9781,-0.9775,-0.9643,-0.9697,-0.9708,-0.9539,-0.9525,-0.9513,0.0,0.0,0.0,0.0,0.0,0.0,0.0,0.0,0.0,0.0,0.0,0.0,0.0,0.0,0.0,-0.5749,0.0,0.0,0.0,-0.5657,-0.5776,-0.5775,-0.6034,0.0,0.0,0.0,0.0,-0.8336,-0.9093,-0.9813,-1.0458,-1.1127,-1.162,-1.1948,-1.2424,-1.2709,-1.279,-1.3205,-1.3425,-1.3513,-1.4208,-1.469,-1.5061,-1.5437,-1.5822,-1.617,-1.6252,-1.6254,-1.6325,-1.7397,-1.7951,-1.8201,-0.5724,0.0,0.0,-0.7079,0.0,0.0,-0.6984,0.0,0.0,-0.8685,-0.9384,0.0,-1.0353,-1.074,-1.0984,-1.0921,-1.0757,0.0,0.0,0.0,0.0,-0.9421,-0.9041,-0.8637,-0.8193,-0.7574,0.0,-0.6473,0.0,0.0,-0.4398,0.0,0.0,0.0,0.0,-0.3702,0.0,-0.4476,-0.5414,-0.6405,-0.6405,0.0,0.0,-0.7489,-0.7489,-0.7521,-0.7591,-0.7727,-0.7977,-0.8596,-0.8951,-0.9205,-0.9616,-0.9841,-0.9884,-0.9884,-0.9884,-0.989,-0.9766,-0.9802,-0.9779,-0.9581,-0.9663,-0.9697,-0.9479,-0.9491,-0.9411,0.0,0.0,0.0,0.0,0.0,0.0,0.0,0.0,0.0,0.0,0.0,0.0,0.0,0.0,0.0,0.0,0.0,-0.566,0.0,0.0,0.0,0.0,0.0,0.0,-0.7912,-0.8592,-0.9265,-0.9958,-1.0707,-1.1264,-1.1621,-1.2091,-1.2415,-1.2599,-1.282,-1.2973,-1.309,-1.352,-1.3893,-1.4221,-1.4629,-1.4992,-1.5334,-1.5498,-1.5582,-1.5728,-1.6325,-1.6826,-1.7198,0.0,0.0,0.0,0.0,0.0,0.0,0.0,-0.8142,0.0,-0.9378,0.0,-1.0299,-1.0912,-1.1009,-1.1117,-1.1246,0.0,-1.0684,-1.0641,-1.0042,-0.963,-0.9606,-0.9235,-0.8949,-0.8708,-0.8099,0.0,0.0,0.0,0.0,0.0,0.0,0.0,0.0,0.0,0.0,0.0,-0.4569,-0.5456,0.0,-0.6427,-0.6871,-0.7489,-0.7489,-0.7489,-0.7489,-0.7489,-0.7591,-0.7794,-0.8351,-0.8693,-0.8971,-0.9383,-0.9638,-0.9804,-0.9798,-0.9809,-0.9846,-0.9846,-0.9846,-0.9836,-0.9674,-0.973,-0.9774,-0.9572,-0.9587,-0.9614,-0.9423,-0.9173,-0.8988,0.0,0.0,0.0,0.0,0.0,0.0,0.0,0.0,0.0,0.0,0.0,0.0,0.0,0.0,0.0,0.0,0.0,0.0,0.0,0.0,0.0,-0.7522,-0.8207,-0.8901,-0.9655,0.0,-1.1038,-1.1456,-1.1777,-1.2154,-1.2526,-1.2562,-1.2709,-1.2856,-1.29,-1.3075,-1.3421,-1.3649,-1.3943,-1.4263,-1.4633,-1.4885,-1.5051,-1.4962,-1.5257,-1.5807,0.0,0.0,0.0,0.0,0.0,-0.9136,-0.9419,-0.9423,-0.9466,-0.9782,-1.0406,-1.0848,-1.0972,-1.1165,-1.1176,-1.1046,-1.0824,0.0,0.0,0.0,0.0,-0.9611,-0.9366,-0.9091,-0.8708,-0.8099,-0.7593,0.0,0.0,0.0,0.0,0.0,0.0,0.0,0.0,0.0,-0.4622,-0.505,0.0,-0.6418,-0.6573,-0.699,-0.7489,-0.7489,-0.7489,-0.7489,-0.7489,-0.7591,-0.7761,-0.8077,-0.8307,-0.8511,-0.8959,-0.9118,-0.9185,-0.9341,-0.9397,-0.9435,-0.962,-0.9657,-0.969,-0.9836,-0.9857,-0.9835,-0.9645,-0.959,-0.955,-0.9295,-0.9157,-0.9014,-0.8775,0.0,0.0,0.0,0.0,0.0,0.0,0.0,0.0,0.0,0.0,0.0,0.0,0.0,0.0,0.0,0.0,0.0,0.0,0.0,0.0,0.0,-0.7981,0.0,0.0,0.0,-1.0479,-1.0782,-1.1378,-1.1817,-1.2114,-1.2452,-1.2636,-1.2673,-1.282,-1.3075,-1.3407,-1.3456,-1.3666,-1.3987,-1.4066,-1.3949,-1.3753,-1.3887,-1.3969,-1.4147,0.0,0.0,0.0,0.0,0.0,0.0,0.0,-1.0299,0.0,-1.046,-1.0772,-1.1031,-1.116,-1.1236,-1.1262,-1.1181,-1.0959,-1.0776,-1.0511,-1.0294,-1.0034,-0.9809,-0.9559,0.0,-0.903,-0.842,-0.79,-0.7512,0.0,0.0,0.0,0.0,0.0,0.0,0.0,-0.4308,0.0,0.0,0.0,-0.6263,-0.6453,-0.6802,-0.7199,-0.7199,-0.7199,-0.7199,-0.7199,-0.7237,-0.7353,-0.7749,-0.8019,-0.8269,-0.8705,-0.8923,-0.9023,-0.9256,-0.9284,-0.9322,-0.9435,-0.9435,-0.9473,-0.9582,-0.9657,-0.9707,-0.9633,-0.9681,-0.969,-0.9448,-0.9379,-0.922,-0.8788,-0.8621,0.0,0.0,0.0,0.0,0.0,0.0,0.0,0.0,0.0,0.0,0.0,0.0,0.0,0.0,0.0,0.0,0.0,0.0,0.0,0.0,0.0,0.0,0.0,0.0,0.0,-1.061,-1.1053,-1.1476,-1.1855,-1.204,-1.212,-1.215,-1.2224,-1.2385,-1.2525,-1.2692,-1.2933,-1.3226,-1.3182,-1.3065,-1.2954,-1.3067,-1.3107,-1.3199,0.0,-0.9594,0.0,0.0,-1.0449,0.0,-1.0715,-1.1025,-1.1197,-1.1004,-1.1074,-1.1209,-1.1359,-1.1429,-1.1455,-1.1455,-1.128,-1.1035,-1.0765,-1.0542,-1.0256,-0.9999,-0.9757,-0.9503,-0.9286,-0.876,-0.824,0.0,0.0,0.0,0.0,0.0,0.0,0.0,0.0,0.0,0.0,0.0,-0.5706,-0.6197,-0.6387,-0.6649,-0.6913,-0.6913,-0.6913,-0.6913,-0.6913,-0.6913,-0.6979,-0.7372,-0.7674,-0.7923,-0.8324,-0.8561,-0.8743,-0.9015,-0.9094,-0.9132,-0.9213,-0.9246,-0.9251,-0.9284,-0.9435,-0.9544,-0.9544,-0.9657,-0.9718,-0.958,-0.9542,-0.9389,-0.8903,-0.8752,0.0,0.0,0.0,0.0,0.0,0.0,0.0,0.0,0.0,0.0,0.0,0.0,0.0,0.0,0.0,0.0,0.0,0.0,0.0,0.0,0.0,-0.7931,-0.8698,0.0,-0.9786,-1.0541,-1.0785,-1.1166,-1.1632,-1.1669,-1.1706,-1.1706,-1.1706,-1.1669,-1.1651,-1.1891,-1.2112,-1.2329,-1.2286,-1.2343,-1.2413,-1.2485,-1.2557,-1.2716,0.0,0.0,0.0,0.0,0.0,0.0,0.0,-1.1661,-1.1759,-1.1111,-1.1359,-1.1639,-1.1666,-1.19,-1.2029,-1.2029,-1.1801,-1.1439,-1.1009,-1.0781,-1.047,-1.0004,-0.9757,-0.9503,-0.9286,-0.8897,-0.8382,0.0,0.0,0.0,0.0,0.0,0.0,0.0,0.0,0.0,0.0,-0.5685,-0.6041,-0.6396,-0.6578,-0.6761,-0.6913,-0.6913,-0.6913,-0.6913,-0.6913,-0.6913,-0.6913,-0.6946,-0.6992,-0.7072,-0.7478,-0.7642,-0.7767,-0.8331,-0.8479,-0.8556,-0.8946,-0.9022,-0.9061,-0.9251,-0.9322,-0.9322,-0.9322,-0.9359,-0.9354,-0.9334,-0.932,-0.9274,-0.916,-0.9117,-0.8975,0.0,0.0,0.0,0.0,0.0,0.0,0.0,0.0,0.0,0.0,0.0,0.0,0.0,0.0,0.0,0.0,0.0,0.0,-0.7133,0.0,-0.7824,-0.8698,-0.8993,-0.9522,-1.0327,-1.0531,-1.0914,-1.1446,-1.1632,-1.1706,-1.1706,-1.1706,-1.1595,-1.1409,-1.1291,-1.1315,-1.1521,-1.1496,-1.1759,-1.2145,-1.2152,-1.2421,-1.2798,0.0,0.0,0.0,0.0,0.0,0.0,0.0,-1.1975,-1.1991,-1.1705,-1.1835,-1.1954,-1.1954,-1.204,-1.2094,-1.2094,-1.1997,-1.1731,-1.1227,-1.097,-1.0682,-1.0194,-0.9941,-0.9729,-0.9479,-0.907,-0.8713,0.0,0.0,0.0,0.0,0.0,0.0,0.0,0.0,-0.5345,-0.5502,-0.5922,-0.6145,-0.6291,-0.6441,-0.6548,-0.6585,-0.6515,-0.6478,-0.6449,-0.635,-0.6288,-0.6288,-0.6288,-0.6552,-0.6979,-0.7368,-0.7491,-0.7601,-0.8063,-0.8217,-0.8255,-0.8412,-0.856,-0.8675,-0.8751,-0.8941,-0.9137,-0.9137,-0.9213,-0.9284,-0.9284,-0.9219,-0.9145,-0.9232,-0.9092,-0.899,0.0,0.0,0.0,0.0,0.0,0.0,0.0,0.0,0.0,0.0,0.0,0.0,0.0,0.0,0.0,0.0,0.0,0.0,-0.6945,0.0,-0.7904,-0.8698,-0.9137,-0.9666,-1.0298,-1.0525,-1.0863,-1.1223,-1.1186,-1.1074,-1.0962,-1.0962,-1.0925,-1.085,-1.0775,-1.0775,-1.0868,-1.1033,-1.1201,-1.1397,-1.1663,-1.1869,-1.2058,-1.1207,0.0,-1.1578,0.0,-1.2154,-1.2202,-1.2202,-1.2262,-1.2305,-1.2305,-1.2305,-1.2278,-1.2208,-1.2262,-1.2305,-1.2305,-1.2305,-1.204,-1.1461,-1.1253,-1.0875,-1.0322,-1.0113,0.0,-0.9611,-0.9253,-0.8978,-0.8703,-0.7785,0.0,0.0,0.0,0.0,0.0,-0.564,-0.5722,-0.5783,-0.6007,-0.6145,-0.6201,-0.6233,-0.6255,-0.6251,-0.6148,-0.6115,-0.6083,-0.5954,-0.5888,-0.5899,-0.5948,-0.6264,-0.6722,-0.7065,-0.7204,-0.7312,-0.7778,-0.791,-0.7949,-0.8063,-0.8217,-0.8327,-0.8327,-0.8522,-0.8756,-0.8789,-0.8941,-0.9056,-0.917,-0.9083,-0.9047,-0.9279,-0.9161,-0.9053,-0.9127,0.0,0.0,0.0,0.0,0.0,0.0,-0.8612,-0.8408,-0.8125,0.0,0.0,0.0,0.0,0.0,0.0,0.0,0.0,0.0,0.0,0.0,0.0,-0.9245,-0.9781,-1.0298,-1.0527,-1.0748,-1.0999,-1.0812,-1.0625,-1.0513,-1.0443,-1.0368,-1.0331,-1.0255,-1.0257,-1.034,-1.0523,-1.0723,-1.0948,-1.1237,-1.1386,-1.1518,-1.1244,-1.1497,-1.1768,-1.2048,-1.2248,-1.2409,-1.2409,-1.2608,-1.2802,-1.2802,-1.2802,-1.2667,-1.2436,-1.2614,-1.2802,-1.2802,-1.2802,-1.2464,-1.1715,-1.1533,-1.1075,0.0,0.0,-0.9856,-0.9611,-0.939,-0.9115,-0.8703,0.0,0.0,-0.6975,0.0,-0.5884,-0.588,-0.5884,-0.6012,-0.6171,-0.599,-0.6029,-0.6178,-0.5987,-0.5892,-0.5892,-0.5892,-0.5892,-0.5892,-0.5892,-0.5888,-0.5914,-0.6048,-0.6103,-0.6129,-0.636,-0.6492,-0.6731,-0.7317,-0.7522,-0.7599,-0.7987,-0.8102,-0.8102,-0.8102,-0.8102,-0.8178,-0.8365,-0.8403,-0.8518,-0.8908,-0.8984,-0.9056,-0.9246,-0.9288,-0.9285,-0.9285,0.0,0.0,0.0,0.0,0.0,0.0,-0.8754,-0.8457,-0.8119,0.0,0.0,0.0,0.0,0.0,0.0,0.0,0.0,-0.7176,-0.7588,0.0,-0.8698,-0.9245,-0.9781,-1.0298,-1.0379,-1.0529,-1.0812,-1.0594,-1.0513,-1.0475,-1.0293,-1.0105,-0.9879,-0.9695,-0.9712,-0.9909,-0.9909,-1.0311,-1.0883,-1.093,-1.1075,-1.1316,-1.1211,-1.1649,-1.2098,-1.2294,-1.2502,-1.2651,-1.2651,-1.2764,-1.2813,-1.2813,-1.2813,-1.278,-1.2662,-1.277,-1.2813,0.0,-1.2813,-1.2538,0.0,-1.1572,-1.1145,-1.0526,-1.0184,-0.9966,-0.9856,-0.9649,-0.9325,-0.8889,0.0,0.0,0.0,-0.68,-0.6649,-0.6649,-0.6445,-0.6408,-0.6455,-0.6245,-0.6206,-0.6244,-0.6104,-0.6029,-0.6015,-0.5796,-0.5686,-0.5701,-0.5681,-0.5617,-0.5501,-0.5652,-0.5663,-0.5639,-0.5865,-0.6245,-0.6656,-0.7007,-0.7096,-0.7134,-0.7411,-0.7603,-0.7718,-0.7876,-0.7991,-0.8102,-0.8178,-0.8289,-0.8441,-0.8556,-0.8708,-0.8861,-0.9061,-0.919,-0.9282,-0.9317,-0.9349,0.0,0.0,0.0,0.0,0.0,-0.9065,-0.9015,0.0,-0.8717,0.0,0.0,0.0,0.0,0.0,0.0,0.0,0.0,-0.7979,0.0,-0.9251,-0.9781,-1.0151,-1.0385,-1.0572,-1.0587,-1.0368,-1.018,-1.003,-0.9884,-0.9657,-0.9632,-0.9694,-0.9617,-0.9715,-0.9933,-1.008,-1.0186,-1.0243,-1.0436,-1.0451,-1.0424,-1.1194,-1.1536,-1.1975,-1.2322,-1.2521,-1.2667,-1.2759,-1.2813,-1.2813,-1.2813,-1.2813,-1.2813,-1.2813,-1.2813,0.0,-1.2813,-1.271,-1.2467,-1.2029,-1.1514,-1.1037,-1.0621,-1.0217,-0.9994,-0.9994,0.0,0.0,-0.9005,-0.8367,-0.7753,-0.719,-0.7052,-0.6952,-0.6849,-0.667,-0.6563,-0.6488,-0.6309,-0.6197,-0.6115,-0.5951,-0.5846,-0.5727,-0.5521,-0.545,-0.5463,-0.5459,-0.5387,-0.53,-0.5406,-0.5436,-0.5442,-0.5604,-0.5922,-0.6284,-0.6681,-0.6788,-0.6826,-0.7022,-0.7176,-0.733,-0.7531,-0.7684,-0.7795,-0.7953,-0.814,-0.8327,-0.8365,-0.8518,-0.8665,-0.8861,-0.9061,-0.9175,-0.9175,-0.923,-0.9235,-0.9125,0.0,0.0,0.0,0.0,0.0,0.0,-0.8997,-0.8925,0.0,0.0,0.0,0.0,0.0,0.0,-0.8039,-0.8495,0.0,-0.951,-1.013,-1.042,-1.04,-1.051,-1.0413,-1.0084,-0.9975,-0.983,-0.9686,-0.9569,-0.9571,-0.9577,-0.9533,-0.958,-0.9671,-0.9755,-0.9729,-0.9691,-0.986,-0.9864,-0.9738,-1.1194,-1.1198,0.0,0.0,-1.237,0.0,-1.2716,-1.2813,-1.2813,-1.2813,-1.2813,-1.2813,-1.2813,-1.2813,-1.2813,-1.2813,0.0,0.0,0.0,-1.1363,-1.0888,-1.0602,-1.0208,-0.9994,-0.9951,-0.9553,-0.9191,-0.8982,-0.8013,-0.7405,-0.7219,-0.7078,-0.6881,-0.6633,-0.6597,-0.6486,-0.6298,-0.6162,-0.5981,-0.5794,-0.5574,-0.5387,-0.5204,-0.5192,-0.5189,-0.5192,-0.5201,-0.5204,-0.5225,-0.5362,-0.537,-0.5394,-0.552,-0.5598,-0.5712,-0.637,-0.6563,-0.6598,-0.6826,-0.6865,-0.6942,-0.7142,-0.718,-0.73,-0.7688,-0.7953,-0.814,-0.8327,-0.8365,-0.8441,-0.8627,-0.8861,-0.8987,-0.8981,-0.8934,-0.8951,-0.9057,0.0,0.0,0.0,0.0,0.0,0.0,-0.9054,-0.909,0.0,0.0,0.0,0.0,0.0,-0.8411,-0.8375,-0.9094,-0.954,-0.9594,-1.0316,-1.0593,-1.0417,-1.0301,-1.0116,-0.9935,-0.9901,-0.9901,-0.9867,-0.9867,-0.9754,-0.9565,-0.9392,-0.9312,-0.9291,-0.9023,-0.9047,-0.9262,-0.9213,-0.9218,-0.9213,0.0,0.0,-1.1639,-1.1785,-1.2127,-1.2419,-1.2467,-1.2662,-1.2813,-1.2813,-1.2813,-1.2813,-1.2813,-1.2813,-1.2813,-1.2813,-1.2565,-1.22,-1.1796,-1.1283,-1.0825,-1.0398,-1.0137,-0.9907,-0.9689,-0.9605,-0.9262,-0.8682,-0.8026,-0.7708,-0.7669,-0.7294,-0.7135,-0.706,-0.6757,-0.6563,-0.6487,-0.6107,-0.5914,-0.5866,-0.5535,-0.5384,-0.5334,-0.5228,-0.5189,-0.5204,-0.5307,-0.5269,-0.5138,-0.5269,-0.5242,-0.5132,-0.5312,-0.5359,-0.5476,-0.5941,-0.6057,-0.6173,-0.656,-0.6676,-0.6714,-0.6903,-0.7099,-0.7257,-0.7526,-0.7723,-0.7876,-0.7915,-0.8178,-0.8403,-0.8479,-0.8751,-0.8949,-0.8798,-0.8827,-0.8852,-0.8724,-0.8761,0.0,0.0,-0.9058,-0.9302,-0.9515,-0.9754,-0.9931,0.0,0.0,0.0,0.0,-0.9859,-0.9642,-0.9245,-0.9414,-0.9799,-1.04,-1.045,-1.0489,-1.0544,-1.051,-1.0418,-1.019,-1.0034,-0.9862,-0.9668,-0.9495,-0.9422,-0.9368,-0.9326,-0.9314,-0.9278,-0.9018,-0.8865,-0.8723,-0.8552,-0.838,-0.8248,-1.1401,-1.1541,-1.1647,-1.1609,-1.1834,-1.2127,-1.237,-1.2516,-1.2662,-1.2759,-1.2813,-1.2813,-1.2813,-1.2716,-1.2619,-1.2619,-1.237,-1.2083,-1.172,-1.1165,-1.0668,-1.0327,-0.9976,-0.9733,-0.9602,-0.9388,-0.9031,-0.8458,-0.8094,-0.7837,-0.7753,-0.7454,-0.718,-0.7023,-0.6712,-0.6486,-0.6251,-0.6015,-0.5786,-0.5625,-0.5437,-0.5296,-0.5214,-0.5029,-0.4963,-0.4972,-0.4963,-0.4871,-0.4803,-0.4869,-0.4815,-0.4779,-0.4971,-0.501,-0.5087,-0.5515,-0.5744,-0.5938,-0.6212,-0.637,-0.6525,-0.6714,-0.6984,-0.7219,-0.733,-0.7526,-0.7684,-0.7765,-0.7991,-0.8178,-0.8365,-0.8599,-0.8718,-0.8692,-0.8724,-0.8713,-0.8628,-0.8629,0.0,-0.892,-0.909,-0.939,-0.9792,-1.0019,-1.0176,-1.0286,-1.0402,0.0,-1.0298,-1.0292,-1.0166,-0.9877,-0.9985,-1.025,-1.0719,-1.0635,-1.0652,-1.0727,-1.0654,-1.0488,-1.0305,-1.0182,-1.003,-0.9788,-0.9531,-0.9423,-0.9404,-0.9189,-0.9078,-0.8947,-0.8688,-0.8464,-0.8245,-0.8113,-0.7984,-0.79,-1.1633,-1.1605,-1.157,-1.1541,-1.159,-1.1731,-1.2224,-1.237,-1.2467,-1.271,-1.2764,-1.2764,-1.2764,-1.2516,-1.2322,-1.2322,-1.2078,-1.1836,-1.1672,-1.0973,-1.0531,-1.0327,-0.9849,-0.9602,-0.9559,-0.9087,-0.8705,-0.8333,-0.8104,-0.7891,-0.7725,-0.7465,-0.7148,-0.6827,-0.6631,-0.6323,-0.5931,-0.5834,-0.5631,-0.5282,-0.5243,-0.509,-0.4937,-0.474,-0.4659,-0.4621,-0.4462,-0.4384,-0.4384,-0.4384,-0.4384,-0.4423,-0.4621,-0.4659,-0.4737,-0.5087,-0.5476,-0.5783,-0.586,-0.6099,-0.6335,-0.6563,-0.6872,-0.7142,-0.718,-0.7334,-0.7522,-0.7723,-0.7765,-0.7919,-0.8255,-0.8365,-0.8453,-0.8582,-0.861,-0.8624,-0.8612,0.0,-0.8694,-0.9085,-0.9147,-0.9377,-0.9945,-1.0038,-1.016,-1.0371,-1.0412,-1.0412,-1.0412,-1.0454,-1.0478,-1.0478,-1.0611,-1.0725,-1.073,-1.0918,-1.0971,-1.093,-1.0765,-1.06,-1.0363,-1.0363,-1.0213,-0.9994,-0.9765,-0.9604,-0.9565,-0.916,-0.881,-0.8585,-0.8319,-0.8086,-0.7845,-0.7849,-0.7786,-0.7764,-1.1595,-1.1534,-1.1463,-1.1285,-1.1438,-1.1634,-1.1731,-1.2127,-1.2419,-1.2467,-1.2467,-1.2467,-1.2467,-1.2224,-1.2073,-1.2073,-1.1834,-1.1594,-1.1387,-1.088,-1.0531,-1.0327,-0.9849,-0.9519,-0.9345,-0.8872,-0.8596,-0.8567,-0.8127,-0.7912,-0.7866,-0.7311,-0.7028,-0.6942,-0.6468,-0.6205,-0.6115,-0.5602,-0.5359,-0.5282,-0.4932,-0.4779,-0.474,-0.454,-0.4462,-0.4423,-0.4423,-0.4384,-0.4384,-0.4384,-0.4384,-0.4423,-0.4423,-0.4462,-0.4501,-0.4737,-0.4968,-0.5237,-0.5744,-0.6099,-0.6335,-0.6563,-0.6641,-0.6795,-0.7103,-0.7219,-0.7296,-0.7522,-0.7684,-0.7804,-0.7876,-0.8178,-0.8339,-0.8217,-0.8483,-0.8676,-0.8674,0.0,-0.8941,-0.9147,-0.9337,-0.9576,-0.9893,-1.0162,-1.0424,-1.0714,-1.088,-1.0991,-1.0991,-1.1176,-1.1309,-1.1309,-1.09,-1.0758,-1.087,-1.1284,-1.1305,-1.0976,-1.1144,-1.0995,-1.0633,-1.0633,-1.0394,-1.0004,-0.9878,-0.9732,-0.9521,-0.9359,-0.9049,-0.8675,-0.8397,-0.8039,-0.7695,-0.7563,-0.7389,-0.7187,-1.1756,-1.168,-1.1576,-1.125,-1.1292,-1.1438,-1.159,-1.1834,-1.2024,-1.2175,-1.2175,-1.2175,-1.2175,-1.1932,-1.178,-1.178,-1.1541,-1.1351,-1.1255,-1.0848,-1.0439,-1.0102,-0.9672,-0.9257,-0.8915,-0.87,-0.852,-0.8384,-0.817,-0.7914,-0.7697,-0.7314,-0.7028,-0.6765,-0.642,-0.6154,-0.5902,-0.5635,-0.5368,-0.5071,-0.4872,-0.4715,-0.4501,-0.4309,-0.4231,-0.4231,-0.4112,-0.4073,-0.4073,-0.4073,-0.4073,-0.4112,-0.4192,-0.4231,-0.427,-0.4465,-0.4851,-0.524,-0.5631,-0.5906,-0.6099,-0.6212,-0.6405,-0.6641,-0.6834,-0.7026,-0.7219,-0.7334,-0.7488,-0.7684,-0.7765,-0.803,-0.8262,-0.8247,-0.8509,0.0,0.0,-0.8832,-0.8978,-0.9215,-0.9446,-0.9688,-1.0035,-1.0329,-1.0642,-1.0986,-1.1236,-1.143,-1.1546,-1.1633,-1.1706,-1.1706,-1.1459,-1.1403,-1.1508,-1.157,-1.1508,-1.14,-1.1467,-1.1273,-1.0877,-1.0994,-1.0776,-1.0291,-0.9981,-0.9797,-0.9618,-0.9191,-0.8804,-0.8477,-0.82,-0.7923,-0.7631,-0.7396,-0.7214,-0.7109,-1.1898,-1.1817,-1.1685,-1.1269,-1.1194,-1.1292,-1.1487,-1.1536,-1.1683,-1.1883,-1.1927,-1.1927,-1.1927,-1.1683,-1.1487,-1.1487,-1.134,-1.1145,-1.1096,-1.0754,-1.0417,-0.999,-0.9478,-0.8999,-0.8612,-0.852,-0.8428,-0.8201,-0.8113,-0.7852,-0.7503,-0.7292,-0.6973,-0.6621,-0.6356,-0.6044,-0.5748,-0.5597,-0.5281,-0.491,-0.4788,-0.4613,-0.4335,-0.4119,-0.4073,-0.4032,-0.3849,-0.3802,-0.3802,-0.3802,-0.3802,-0.3841,-0.3999,-0.404,-0.4077,-0.427,-0.4698,-0.5165,-0.5401,-0.5631,-0.5825,-0.5899,-0.6173,-0.6483,-0.656,-0.6834,-0.7065,-0.7103,-0.7292,-0.7484,-0.7646,-0.7876,-0.8102,-0.8289,0.0,0.0,0.0,-0.8839,-0.9068,-0.9416,-0.9591,-0.9868,-1.0253,-1.0534,-1.0802,-1.1116,-1.1414,-1.1686,-1.1806,-1.194,-1.2041,-1.206,-1.2047,-1.1991,-1.1981,-1.179,-1.1702,-1.1788,-1.1701,-1.1457,-1.1066,-1.1232,-1.1032,-1.0575,-1.0068,-0.9856,-0.9814,-0.9099,-0.8638,-0.8405,-0.8124,-0.7817,-0.7506,-0.731,-0.7193,-0.7073,-1.1898,-1.1817,-1.1685,-1.1269,-1.1194,-1.1194,-1.1243,-1.1438,-1.159,-1.1634,-1.1634,-1.1634,-1.1634,-1.1389,-1.1243,-1.1243,-1.1194,-1.1096,-1.0855,-1.061,-1.04,-1.019,-0.937,-0.8828,-0.8612,-0.8336,-0.8201,-0.8201,-0.7764,-0.7551,-0.7507,-0.7051,-0.6823,-0.6773,-0.6192,-0.5918,-0.5869,-0.5294,-0.5037,-0.4944,-0.452,-0.4349,-0.429,-0.4001,-0.393,-0.3919,-0.3833,-0.3802,-0.3802,-0.3802,-0.3802,-0.3802,-0.3802,-0.3841,-0.3882,-0.4077,-0.4272,-0.454,-0.4927,-0.5321,-0.5676,-0.5864,-0.5941,-0.6057,-0.6483,-0.6641,-0.6679,-0.6903,-0.7099,-0.7219,-0.7257,-0.7569,-0.7876,-0.8102,0.0,0.0,-0.8922,-0.8983,-0.9243,-0.988,-0.9951,-1.0118,-1.0517,-1.0756,-1.0888,-1.0928,-1.1353,-1.1605,-1.1599,-1.2027,-1.2397,-1.2638,-1.2409,-1.217,-1.1981,-1.198,-1.1961,-1.1982,-1.1777,-1.1542,-1.1283,-1.1298,-1.1032,-1.0584,-1.022,-1.0062,-1.0031,-0.9425,-0.8992,-0.8738,-0.8446,-0.7968,-0.7414,-0.7414,-0.7139,-0.6791,-1.1968,-1.1813,-1.159,-1.125,-1.1194,-1.1194,-1.1194,-1.1292,-1.134,-1.134,-1.134,-1.134,-1.134,-1.1243,-1.1194,-1.1194,-1.1047,-1.09,-1.0806,-1.0479,-1.0034,-0.962,-0.9002,-0.8604,-0.8336,-0.8245,-0.8069,-0.7764,-0.7595,-0.737,-0.7061,-0.6884,-0.6659,-0.6349,-0.6119,-0.5879,-0.5566,-0.5352,-0.5033,-0.4673,-0.45,-0.4293,-0.4114,-0.3995,-0.39,-0.3771,-0.3738,-0.3642,-0.3479,-0.3479,-0.3449,-0.3411,-0.3411,-0.3416,-0.3413,-0.3645,-0.3958,-0.4233,-0.4387,-0.4813,-0.5279,-0.5476,-0.5709,-0.5938,-0.6135,-0.6405,-0.6637,-0.6714,-0.6868,-0.7061,-0.718,-0.7411,-0.768,-0.7876,0.0,-0.8487,-0.8776,-0.9024,-0.9336,-0.9717,-0.9857,-1.0054,-1.0384,-1.0603,-1.0848,-1.1136,-1.1452,-1.1716,-1.1836,-1.2012,-1.2147,-1.2246,-1.2347,-1.2382,-1.2426,-1.2307,-1.2259,-1.2231,-1.2162,-1.191,-1.1479,-1.1662,-1.1436,-1.0967,-1.0515,-1.0307,-1.0214,-0.9296,-0.8878,-0.8775,-0.8333,-0.7905,-0.7513,-0.7313,-0.7082,-0.6746,-1.2147,-1.1817,-1.1529,-1.1246,-1.1194,-1.1194,-1.1194,-1.1194,-1.1194,-1.1194,-1.1194,-1.1194,-1.1194,-1.1096,-1.1047,-1.1047,-1.085,-1.0659,-1.0556,-1.0039,-0.9579,-0.9194,-0.8742,-0.8384,-0.8201,-0.8069,-0.7808,-0.7507,-0.737,-0.7105,-0.6795,-0.6659,-0.6349,-0.5991,-0.5905,-0.5638,-0.528,-0.5193,-0.4884,-0.4426,-0.4341,-0.413,-0.3859,-0.3833,-0.3736,-0.3648,-0.3581,-0.3444,-0.3317,-0.3317,-0.3285,-0.3246,-0.3246,-0.3196,-0.3171,-0.334,-0.3645,-0.3921,-0.3999,-0.4348,-0.4813,-0.5124,-0.5476,-0.5747,-0.5786,-0.6096,-0.638,-0.6471,-0.6674,-0.6922,-0.7092,-0.7375,-0.7615,-0.7816,-0.8164,-0.8448,-0.8626,-0.896,-0.9316,-0.9577,-0.9807,-1.0079,-1.0398,-1.0627,-1.0842,-1.118,-1.1514,-1.1819,-1.2114,-1.2114,-1.2148,-1.2228,-1.2393,-1.2569,-1.2739,-1.2524,-1.2428,-1.2537,-1.2427,-1.2168,-1.1715,-1.191,-1.1731,-1.1145,-1.0605,-1.0413,-1.0314,-0.9221,-0.8825,-0.8726,-0.8137,-0.7693,-0.7444,-0.7188,-0.6889,-0.6639,-1.2387,-1.1992,-1.1524,-1.1246,-1.1194,-1.1194,-1.1194,-1.1194,-1.1194,-1.1194,-1.1194,-1.1194,-1.1194,-1.0949,-1.0801,-1.0801,-1.0556,-1.0265,-1.0019,-0.936,-0.9056,-0.9199,-0.8557,-0.8201,-0.8201,-0.7724,-0.7507,-0.7507,-0.7017,-0.6795,-0.6795,-0.6305,-0.5947,-0.5675,-0.5502,-0.5235,-0.4966,-0.4792,-0.4525,-0.4255,-0.3991,-0.3767,-0.358,-0.3547,-0.3518,-0.3464,-0.3345,-0.3318,-0.3276,-0.3276,-0.3276,-0.3276,-0.3275,-0.327,-0.3199,-0.3125,-0.3295,-0.3526,-0.3724,-0.3962,-0.4233,-0.4849,-0.5162,-0.5359,-0.5559,-0.575,-0.5944,-0.6168,-0.6521,-0.6848,-0.6953,-0.7398,-0.7773,-0.7971,-0.8185,-0.8353,-0.8554,-0.8841,-0.9165,-0.9541,-0.9817,-1.0196,-1.0664,-1.0873,-1.1008,-1.1008,-1.144,-1.1891,-1.2353,-1.237,-1.2478,-1.2677,-1.2683,-1.2721,-1.2792,-1.2542,-1.2542,-1.2797,-1.2514,-1.2252,-1.198,-1.198,-1.1731,-1.1145,-1.0605,-1.0413,-1.0314,-0.9221,-0.8775,-0.8726,-0.7892,-0.7444,-0.7188,-0.6892,-0.6639,-0.6387,-1.2387,-1.1836,-1.1293,-1.1208,-1.1194,-1.1194,-1.1194,-1.1194,-1.1194,-1.1194,-1.1047,-1.09,-1.09,-1.0654,-1.0511,-1.0511,-1.0265,-0.992,-0.948,-0.9166,-0.8874,-0.8598,-0.8295,-0.802,-0.7724,-0.7367,-0.7146,-0.7017,-0.67,-0.6435,-0.6305,-0.5991,-0.568,-0.5458,-0.5235,-0.4877,-0.452,-0.4433,-0.4168,-0.381,-0.3721,-0.3633,-0.3585,-0.3561,-0.3464,-0.3282,-0.3262,-0.3124,-0.3039,-0.3039,-0.3008,-0.2962,-0.2873,-0.2972,-0.3037,-0.3017,-0.314,-0.3338,-0.3536,-0.3732,-0.3997,-0.4462,-0.4849,-0.5121,-0.5162,-0.5437,-0.5749,-0.5885,-0.6154,-0.6445,-0.6754,-0.7026,-0.7274,-0.7484,-0.7851,-0.8143,-0.8359,-0.8707,-0.903,-0.9363,-0.9602,-0.9842,-1.0159,-1.0386,-1.0603,-1.0776,-1.1061,-1.1363,-1.1698,-1.1809,-1.2019,-1.2272,-1.2396,-1.248,-1.2509,-1.2626,-1.2709,-1.2806,-1.2705,-1.2453,-1.198,-1.198,-1.1585,-1.0904,-1.0556,-1.0167,-0.9772,-0.9076,-0.8676,-0.8482,-0.7842,-0.7444,-0.7188,-0.6892,-0.6639,-0.6387,-1.2387,-1.2035,-1.1536,-1.1166,-1.1055,-1.0976,-1.1015,-1.0955,-1.09,-1.09,-1.0752,-1.0659,-1.0659,-1.0413,-1.0216,-1.0216,-1.0019,-0.9677,-0.9236,-0.9033,-0.8723,-0.8211,-0.7877,-0.7633,-0.733,-0.7102,-0.6877,-0.6656,-0.639,-0.6169,-0.5947,-0.568,-0.5413,-0.5104,-0.4835,-0.4523,-0.4123,-0.4076,-0.3808,-0.3452,-0.3452,-0.3318,-0.3184,-0.3184,-0.3005,-0.2825,-0.2825,-0.2736,-0.2604,-0.2604,-0.2671,-0.2677,-0.2618,-0.2728,-0.2937,-0.2869,-0.3,-0.3133,-0.3253,-0.3482,-0.3734,-0.3972,-0.4413,-0.4771,-0.4851,-0.5165,-0.5512,-0.5722,-0.5999,-0.6328,-0.6681,-0.6914,-0.7126,-0.7346,-0.7724,-0.8013,-0.8123,-0.8519,-0.8858,-0.9021,-0.9301,-0.9559,-0.9689,-0.9994,-1.0377,-1.0772,-1.0953,-1.1156,-1.1471,-1.1605,-1.1765,-1.2041,-1.2284,-1.2406,-1.2406,-1.265,-1.2816,-1.2813,-1.2813,-1.2516,-1.198,-1.198,-1.1536,-1.0801,-1.0511,-1.0117,-0.9579,-0.9023,-0.8627,-0.8333,-0.769,-0.7341,-0.7138,-0.6792,-0.6539,-0.6337,-1.2278,-1.2278,-1.1941,-1.1046,-1.0758,-1.0699,-1.0685,-1.054,-1.0413,-1.0413,-1.0364,-1.0364,-1.0364,-1.0117,-0.9969,-0.9969,-0.9727,-0.943,-0.9187,-0.8928,-0.8541,-0.7958,-0.7456,-0.7132,-0.7033,-0.6843,-0.6615,-0.634,-0.6124,-0.5902,-0.563,-0.5413,-0.5104,-0.4661,-0.4391,-0.4123,-0.3812,-0.3631,-0.3361,-0.3138,-0.3138,-0.2871,-0.2469,-0.2469,-0.2379,-0.22,-0.2204,-0.2205,-0.2205,-0.2205,-0.2337,-0.246,-0.2412,-0.2573,-0.2781,-0.2725,-0.2832,-0.2997,-0.2997,-0.3235,-0.3461,-0.3461,-0.3924,-0.4408,-0.4587,-0.4904,-0.5222,-0.5554,-0.589,-0.6279,-0.6678,-0.6922,-0.7143,-0.7415,-0.768,-0.7856,-0.7856,-0.8245,-0.8548,-0.8548,-0.8947,-0.9257,-0.9262,-0.9694,-1.0216,-1.0835,-1.0915,-1.1111,-1.1532,-1.1577,-1.1725,-1.1975,-1.2224,-1.237,-1.2419,-1.2613,-1.2764,-1.2813,-1.2764,-1.2521,-1.198,-1.198,-1.1541,-1.0752,-1.0507,-1.0068,-0.9476,-0.9023,-0.8627,-0.8283,-0.7537,-0.7238,-0.7138,-0.6637,-0.6437,-0.6337,-1.1072,-1.1072,-1.0996,-1.0804,-1.0615,-1.0555,-1.0661,-1.054,-1.0413,-1.0413,-1.0216,-1.0068,-1.0068,-0.9826,-0.9677,-0.9677,-0.943,-0.9179,-0.8928,-0.863,-0.8199,-0.7536,-0.732,-0.6994,-0.6466,-0.6314,-0.6124,-0.5852,-0.5636,-0.5413,-0.5144,-0.4926,-0.4703,-0.4389,-0.4123,-0.3765,-0.3317,-0.3136,-0.2914,-0.2648,-0.2467,-0.2378,-0.2244,-0.2244,-0.2243,-0.2204,-0.2195,-0.2207,-0.2207,-0.2207,-0.2229,-0.2287,-0.2411,-0.2497,-0.2583,-0.2794,-0.2845,-0.2892,-0.3019,-0.3098,-0.313,-0.3295,-0.3615,-0.3936,-0.4191,-0.443,-0.4776,-0.5134,-0.5464,-0.5759,-0.6192,-0.6435,-0.6653,-0.6928,-0.7146,-0.7363,-0.7547,-0.7856,-0.8116,-0.8285,-0.8548,-0.8815,-0.8955,-0.9257,-0.9649,-1.0078,-1.0282,-1.0668,-1.131,-1.153,-1.1736,-1.198,-1.2078,-1.2175,-1.2419,-1.2467,-1.2565,-1.2813,-1.2565,-1.2322,-1.198,-1.178,-1.1243,-1.0462,-1.0413,-0.9867,-0.8973,-0.8825,-0.8531,-0.8038,-0.7643,-0.7391,-0.7138,-0.6842,-0.6589,-0.6337,-1.0692,-1.0692,-1.0639,-1.0469,-1.0341,-1.0268,-1.0306,-1.0137,-1.0019,-1.0019,-0.9875,-0.9826,-0.9826,-0.9677,-0.9529,-0.943,-0.9286,-0.9034,-0.863,-0.8482,-0.8118,-0.7434,-0.7197,-0.6823,-0.6328,-0.597,-0.5683,-0.5547,-0.5324,-0.5102,-0.4835,-0.4612,-0.4346,-0.4078,-0.3721,-0.3361,-0.3047,-0.2825,-0.2557,-0.2334,-0.2243,-0.2109,-0.2021,-0.1996,-0.1958,-0.1872,-0.1865,-0.1879,-0.1876,-0.1857,-0.193,-0.2046,-0.2116,-0.2334,-0.2513,-0.2649,-0.2763,-0.287,-0.2956,-0.3039,-0.3074,-0.3158,-0.3344,-0.359,-0.3956,-0.4292,-0.4583,-0.489,-0.5206,-0.5566,-0.5847,-0.608,-0.6346,-0.6567,-0.6697,-0.6877,-0.7149,-0.7367,-0.7584,-0.7852,-0.8116,-0.8376,-0.8732,-0.8951,-0.9336,-0.9803,-1.0053,-1.043,-1.1019,-1.1283,-1.1487,-1.159,-1.1731,-1.1883,-1.2029,-1.2175,-1.2273,-1.2419,-1.2419,-1.2273,-1.198,-1.1731,-1.1145,-1.0413,-1.0413,-0.9813,-0.8825,-0.8825,-0.8482,-0.7992,-0.7693,-0.7444,-0.7188,-0.6892,-0.6542,-0.6139,-1.0692,-1.0692,-1.0586,-1.0249,-1.0095,-0.9989,-0.99,-0.9738,-0.9579,-0.9579,-0.9579,-0.9529,-0.9529,-0.948,-0.9381,-0.9133,-0.9084,-0.8882,-0.8432,-0.8333,-0.803,-0.7372,-0.707,-0.6695,-0.6219,-0.5621,-0.5327,-0.5327,-0.501,-0.479,-0.4572,-0.4302,-0.4034,-0.3767,-0.3317,-0.3047,-0.2823,-0.2512,-0.2289,-0.2109,-0.2064,-0.193,-0.1664,-0.1699,-0.1527,-0.1346,-0.1378,-0.139,-0.1386,-0.141,-0.1536,-0.1707,-0.1768,-0.207,-0.2379,-0.2424,-0.2649,-0.2829,-0.2829,-0.2968,-0.3056,-0.3056,-0.3186,-0.3398,-0.3783,-0.4126,-0.4469,-0.4688,-0.5032,-0.5327,-0.5544,-0.5813,-0.6038,-0.6254,-0.6299,-0.6432,-0.6704,-0.6877,-0.7098,-0.7415,-0.7724,-0.8072,-0.846,-0.864,-0.9019,-0.9617,-0.9926,-1.0283,-1.0734,-1.0998,-1.1145,-1.1145,-1.1389,-1.1536,-1.1585,-1.1829,-1.1932,-1.198,-1.2175,-1.2175,-1.1932,-1.1639,-1.1096,-1.0413,-1.0413,-0.9817,-0.8874,-0.8825,-0.8528,-0.8038,-0.7746,-0.7444,-0.7138,-0.6842,-0.6442,-0.5942,-1.0692,-1.0692,-1.0611,-1.0351,-1.0213,-1.0131,-0.9908,-0.9738,-0.9579,-0.9579,-0.9381,-0.9236,-0.9236,-0.9031,-0.8874,-0.8874,-0.863,-0.8482,-0.8382,-0.8184,-0.7829,-0.7263,-0.7023,-0.6549,-0.5821,-0.5292,-0.5055,-0.5055,-0.461,-0.4255,-0.3993,-0.3812,-0.3542,-0.3272,-0.3047,-0.278,-0.2513,-0.2064,-0.1885,-0.1839,-0.1615,-0.1391,-0.1214,-0.1194,-0.1018,-0.0837,-0.0869,-0.088,-0.0929,-0.117,-0.1238,-0.1249,-0.166,-0.1867,-0.193,-0.2154,-0.2379,-0.2558,-0.2558,-0.2732,-0.2906,-0.2906,-0.3075,-0.3244,-0.3288,-0.3601,-0.4037,-0.4469,-0.468,-0.4837,-0.5055,-0.5324,-0.5547,-0.5766,-0.5991,-0.6213,-0.6432,-0.6476,-0.665,-0.7098,-0.7588,-0.794,-0.7984,-0.8157,-0.8564,-0.9144,-0.9461,-0.9867,-1.044,-1.0703,-1.0855,-1.0855,-1.1096,-1.1389,-1.1585,-1.1634,-1.1785,-1.198,-1.1785,-1.1688,-1.1639,-1.1394,-1.0949,-1.0413,-1.0413,-0.992,-0.9133,-0.8878,-0.8627,-0.8287,-0.7793,-0.7444,-0.7138,-0.6637,-0.6239,-0.5942,-1.0198,-1.0043,-0.9777,-0.9553,-0.9549,-0.954,-0.9311,-0.9222,-0.9175,-0.9175,-0.9027,-0.8977,-0.8977,-0.8874,-0.8726,-0.8577,-0.8482,-0.8333,-0.8187,-0.7942,-0.7604,-0.7177,-0.6843,-0.6335,-0.566,-0.5225,-0.4905,-0.4645,-0.4328,-0.4055,-0.3968,-0.3646,-0.3341,-0.3061,-0.2828,-0.2505,-0.2137,-0.1764,-0.1532,-0.1393,-0.1114,-0.0975,-0.0884,-0.0902,-0.0861,-0.0768,-0.079,-0.0798,-0.0797,-0.0936,-0.0964,-0.0986,-0.13,-0.1506,-0.1615,-0.1885,-0.2154,-0.2334,-0.2334,-0.2424,-0.2513,-0.2513,-0.2557,-0.269,-0.2957,-0.3158,-0.3447,-0.389,-0.4273,-0.4523,-0.461,-0.4924,-0.5188,-0.5275,-0.5411,-0.5589,-0.5944,-0.603,-0.6163,-0.665,-0.7143,-0.7452,-0.7452,-0.7808,-0.8251,-0.8819,-0.9139,-0.9535,-1.0145,-1.0413,-1.0659,-1.0801,-1.09,-1.1096,-1.1389,-1.1394,-1.1438,-1.1536,-1.1438,-1.1443,-1.1585,-1.134,-1.09,-1.0413,-1.0413,-0.992,-0.9187,-0.8928,-0.8627,-0.8333,-0.7793,-0.7344,-0.6942,-0.6537,-0.6337,-0.6189]}]]